<?xml version='1.0' encoding='UTF-8'?>
<gpx version="1.1" creator="https://www.komoot.de" xmlns="http://www.topografix.com/GPX/1/1" xmlns:xsi="http://www.w3.org/2001/XMLSchema-instance" xsi:schemaLocation="http://www.topografix.com/GPX/1/1 http://www.topografix.com/GPX/1/1/gpx.xsd">
  <metadata>
    <name>RTF_20082026_60km</name>
    <author>
      <link href="https://www.komoot.de">
        <text>komoot</text>
        <type>text/html</type>
      </link>
    </author>
  </metadata>
  <trk>
    <name>RTF_20082026_60km</name>
    <type>racebike</type>
    <trkseg>
      <trkpt lat="48.071499" lon="7.804477">
        <ele>199.825451</ele>
        <time>2026-08-24T18:14:22.179Z</time>
      </trkpt>
      <trkpt lat="48.071787" lon="7.804308">
        <ele>199.825451</ele>
        <time>2026-08-24T18:14:26.642Z</time>
      </trkpt>
      <trkpt lat="48.071838" lon="7.804604">
        <ele>199.825451</ele>
        <time>2026-08-24T18:14:29.688Z</time>
      </trkpt>
      <trkpt lat="48.071910" lon="7.805078">
        <ele>199.825451</ele>
        <time>2026-08-24T18:14:34.646Z</time>
      </trkpt>
      <trkpt lat="48.072018" lon="7.805596">
        <ele>200.021739</ele>
        <time>2026-08-24T18:14:40.299Z</time>
      </trkpt>
      <trkpt lat="48.072161" lon="7.806163">
        <ele>200.285229</ele>
        <time>2026-08-24T18:14:46.991Z</time>
      </trkpt>
      <trkpt lat="48.072490" lon="7.807233">
        <ele>200.797321</ele>
        <time>2026-08-24T18:15:01.770Z</time>
      </trkpt>
      <trkpt lat="48.072802" lon="7.808076">
        <ele>201.137515</ele>
        <time>2026-08-24T18:15:13.327Z</time>
      </trkpt>
      <trkpt lat="48.072927" lon="7.808342">
        <ele>201.228392</ele>
        <time>2026-08-24T18:15:17.129Z</time>
      </trkpt>
      <trkpt lat="48.073330" lon="7.809105">
        <ele>201.500185</ele>
        <time>2026-08-24T18:15:28.588Z</time>
      </trkpt>
      <trkpt lat="48.073459" lon="7.809300">
        <ele>201.576867</ele>
        <time>2026-08-24T18:15:31.553Z</time>
      </trkpt>
      <trkpt lat="48.073535" lon="7.809420">
        <ele>201.623072</ele>
        <time>2026-08-24T18:15:33.282Z</time>
      </trkpt>
      <trkpt lat="48.073993" lon="7.810062">
        <ele>201.356727</ele>
        <time>2026-08-24T18:15:41.956Z</time>
      </trkpt>
      <trkpt lat="48.074461" lon="7.810656">
        <ele>200.626477</ele>
        <time>2026-08-24T18:15:49.416Z</time>
      </trkpt>
      <trkpt lat="48.074775" lon="7.810968">
        <ele>200.177950</ele>
        <time>2026-08-24T18:15:53.620Z</time>
      </trkpt>
      <trkpt lat="48.075488" lon="7.811590">
        <ele>199.400818</ele>
        <time>2026-08-24T18:16:02.776Z</time>
      </trkpt>
      <trkpt lat="48.075890" lon="7.811889">
        <ele>199.132581</ele>
        <time>2026-08-24T18:16:08.046Z</time>
      </trkpt>
      <trkpt lat="48.076326" lon="7.812192">
        <ele>198.845338</ele>
        <time>2026-08-24T18:16:14.606Z</time>
      </trkpt>
      <trkpt lat="48.076592" lon="7.812291">
        <ele>198.681553</ele>
        <time>2026-08-24T18:16:19.133Z</time>
      </trkpt>
      <trkpt lat="48.076565" lon="7.813490">
        <ele>198.879090</ele>
        <time>2026-08-24T18:16:33.590Z</time>
      </trkpt>
      <trkpt lat="48.076540" lon="7.813901">
        <ele>199.051894</ele>
        <time>2026-08-24T18:16:38.393Z</time>
      </trkpt>
      <trkpt lat="48.076491" lon="7.814359">
        <ele>199.246110</ele>
        <time>2026-08-24T18:16:43.912Z</time>
      </trkpt>
      <trkpt lat="48.076297" lon="7.816268">
        <ele>200.094887</ele>
        <time>2026-08-24T18:17:05.802Z</time>
      </trkpt>
      <trkpt lat="48.076212" lon="7.817321">
        <ele>200.584300</ele>
        <time>2026-08-24T18:17:18.325Z</time>
      </trkpt>
      <trkpt lat="48.076129" lon="7.817650">
        <ele>200.746570</ele>
        <time>2026-08-24T18:17:22.621Z</time>
      </trkpt>
      <trkpt lat="48.075786" lon="7.818526">
        <ele>201.238766</ele>
        <time>2026-08-24T18:17:35.138Z</time>
      </trkpt>
      <trkpt lat="48.075618" lon="7.819097">
        <ele>201.548451</ele>
        <time>2026-08-24T18:17:42.463Z</time>
      </trkpt>
      <trkpt lat="48.075499" lon="7.819639">
        <ele>201.831633</ele>
        <time>2026-08-24T18:17:49.189Z</time>
      </trkpt>
      <trkpt lat="48.075378" lon="7.820185">
        <ele>202.117166</ele>
        <time>2026-08-24T18:17:55.922Z</time>
      </trkpt>
      <trkpt lat="48.075346" lon="7.820333">
        <ele>202.194379</ele>
        <time>2026-08-24T18:17:57.728Z</time>
      </trkpt>
      <trkpt lat="48.075210" lon="7.821074">
        <ele>202.531618</ele>
        <time>2026-08-24T18:18:06.587Z</time>
      </trkpt>
      <trkpt lat="48.075190" lon="7.821192">
        <ele>202.584131</ele>
        <time>2026-08-24T18:18:08.022Z</time>
      </trkpt>
      <trkpt lat="48.075007" lon="7.822061">
        <ele>202.977166</ele>
        <time>2026-08-24T18:18:19.049Z</time>
      </trkpt>
      <trkpt lat="48.074965" lon="7.822302">
        <ele>203.084603</ele>
        <time>2026-08-24T18:18:22.144Z</time>
      </trkpt>
      <trkpt lat="48.074953" lon="7.822379">
        <ele>203.118710</ele>
        <time>2026-08-24T18:18:23.110Z</time>
      </trkpt>
      <trkpt lat="48.074913" lon="7.822684">
        <ele>203.252787</ele>
        <time>2026-08-24T18:18:26.681Z</time>
      </trkpt>
      <trkpt lat="48.074897" lon="7.822822">
        <ele>203.313206</ele>
        <time>2026-08-24T18:18:28.227Z</time>
      </trkpt>
      <trkpt lat="48.074859" lon="7.823144">
        <ele>203.421832</ele>
        <time>2026-08-24T18:18:31.635Z</time>
      </trkpt>
      <trkpt lat="48.074832" lon="7.823356">
        <ele>203.459740</ele>
        <time>2026-08-24T18:18:33.814Z</time>
      </trkpt>
      <trkpt lat="48.074816" lon="7.823493">
        <ele>203.484169</ele>
        <time>2026-08-24T18:18:35.252Z</time>
      </trkpt>
      <trkpt lat="48.074795" lon="7.823639">
        <ele>203.510401</ele>
        <time>2026-08-24T18:18:36.845Z</time>
      </trkpt>
      <trkpt lat="48.074765" lon="7.823847">
        <ele>203.547778</ele>
        <time>2026-08-24T18:18:39.149Z</time>
      </trkpt>
      <trkpt lat="48.074556" lon="7.824841">
        <ele>203.730816</ele>
        <time>2026-08-24T18:18:50.806Z</time>
      </trkpt>
      <trkpt lat="48.074452" lon="7.825393">
        <ele>203.831556</ele>
        <time>2026-08-24T18:18:56.709Z</time>
      </trkpt>
      <trkpt lat="48.074416" lon="7.825719">
        <ele>203.857039</ele>
        <time>2026-08-24T18:18:59.842Z</time>
      </trkpt>
      <trkpt lat="48.074401" lon="7.826184">
        <ele>203.784003</ele>
        <time>2026-08-24T18:19:04.342Z</time>
      </trkpt>
      <trkpt lat="48.074486" lon="7.828154">
        <ele>203.474299</ele>
        <time>2026-08-24T18:19:22.108Z</time>
      </trkpt>
      <trkpt lat="48.074497" lon="7.828472">
        <ele>203.534848</ele>
        <time>2026-08-24T18:19:24.940Z</time>
      </trkpt>
      <trkpt lat="48.074493" lon="7.828812">
        <ele>203.710553</ele>
        <time>2026-08-24T18:19:28.240Z</time>
      </trkpt>
      <trkpt lat="48.074459" lon="7.829373">
        <ele>204.001611</ele>
        <time>2026-08-24T18:19:34.789Z</time>
      </trkpt>
      <trkpt lat="48.074451" lon="7.829434">
        <ele>204.033731</ele>
        <time>2026-08-24T18:19:35.584Z</time>
      </trkpt>
      <trkpt lat="48.074399" lon="7.829848">
        <ele>204.251391</ele>
        <time>2026-08-24T18:19:41.382Z</time>
      </trkpt>
      <trkpt lat="48.074329" lon="7.830219">
        <ele>204.450583</ele>
        <time>2026-08-24T18:19:46.773Z</time>
      </trkpt>
      <trkpt lat="48.074126" lon="7.830843">
        <ele>204.809190</ele>
        <time>2026-08-24T18:19:56.235Z</time>
      </trkpt>
      <trkpt lat="48.074009" lon="7.831149">
        <ele>204.870673</ele>
        <time>2026-08-24T18:20:00.569Z</time>
      </trkpt>
      <trkpt lat="48.073640" lon="7.832027">
        <ele>204.976467</ele>
        <time>2026-08-24T18:20:12.155Z</time>
      </trkpt>
      <trkpt lat="48.073478" lon="7.832415">
        <ele>205.023132</ele>
        <time>2026-08-24T18:20:16.419Z</time>
      </trkpt>
      <trkpt lat="48.073239" lon="7.832987">
        <ele>205.091942</ele>
        <time>2026-08-24T18:20:22.230Z</time>
      </trkpt>
      <trkpt lat="48.073039" lon="7.833609">
        <ele>205.178912</ele>
        <time>2026-08-24T18:20:28.406Z</time>
      </trkpt>
      <trkpt lat="48.072962" lon="7.833900">
        <ele>205.222135</ele>
        <time>2026-08-24T18:20:31.428Z</time>
      </trkpt>
      <trkpt lat="48.072785" lon="7.834832">
        <ele>205.355944</ele>
        <time>2026-08-24T18:20:41.603Z</time>
      </trkpt>
      <trkpt lat="48.072750" lon="7.835027">
        <ele>205.383828</ele>
        <time>2026-08-24T18:20:43.859Z</time>
      </trkpt>
      <trkpt lat="48.072578" lon="7.835606">
        <ele>205.471335</ele>
        <time>2026-08-24T18:20:51.199Z</time>
      </trkpt>
      <trkpt lat="48.072371" lon="7.836215">
        <ele>205.822250</ele>
        <time>2026-08-24T18:20:59.379Z</time>
      </trkpt>
      <trkpt lat="48.072289" lon="7.836529">
        <ele>206.021167</ele>
        <time>2026-08-24T18:21:03.458Z</time>
      </trkpt>
      <trkpt lat="48.072052" lon="7.837782">
        <ele>206.789527</ele>
        <time>2026-08-24T18:21:19.801Z</time>
      </trkpt>
      <trkpt lat="48.071304" lon="7.839849">
        <ele>208.194252</ele>
        <time>2026-08-24T18:21:48.741Z</time>
      </trkpt>
      <trkpt lat="48.070990" lon="7.841325">
        <ele>209.201600</ele>
        <time>2026-08-24T18:22:07.851Z</time>
      </trkpt>
      <trkpt lat="48.070966" lon="7.841437">
        <ele>209.284909</ele>
        <time>2026-08-24T18:22:09.317Z</time>
      </trkpt>
      <trkpt lat="48.070888" lon="7.841724">
        <ele>209.504362</ele>
        <time>2026-08-24T18:22:13.182Z</time>
      </trkpt>
      <trkpt lat="48.070668" lon="7.842162">
        <ele>209.892471</ele>
        <time>2026-08-24T18:22:20.079Z</time>
      </trkpt>
      <trkpt lat="48.069566" lon="7.843694">
        <ele>211.651565</ele>
        <time>2026-08-24T18:22:49.704Z</time>
      </trkpt>
      <trkpt lat="48.069240" lon="7.844160">
        <ele>212.217797</ele>
        <time>2026-08-24T18:22:58.870Z</time>
      </trkpt>
      <trkpt lat="48.069012" lon="7.844460">
        <ele>212.599114</ele>
        <time>2026-08-24T18:23:05.175Z</time>
      </trkpt>
      <trkpt lat="48.068980" lon="7.844499">
        <ele>212.650948</ele>
        <time>2026-08-24T18:23:05.987Z</time>
      </trkpt>
      <trkpt lat="48.068910" lon="7.844540">
        <ele>212.745362</ele>
        <time>2026-08-24T18:23:07.477Z</time>
      </trkpt>
      <trkpt lat="48.068712" lon="7.844759">
        <ele>212.949968</ele>
        <time>2026-08-24T18:23:12.150Z</time>
      </trkpt>
      <trkpt lat="48.068609" lon="7.844866">
        <ele>213.024885</ele>
        <time>2026-08-24T18:23:14.634Z</time>
      </trkpt>
      <trkpt lat="48.068488" lon="7.845095">
        <ele>213.141446</ele>
        <time>2026-08-24T18:23:18.420Z</time>
      </trkpt>
      <trkpt lat="48.068379" lon="7.845239">
        <ele>213.228320</ele>
        <time>2026-08-24T18:23:21.152Z</time>
      </trkpt>
      <trkpt lat="48.068312" lon="7.845320">
        <ele>213.279783</ele>
        <time>2026-08-24T18:23:22.768Z</time>
      </trkpt>
      <trkpt lat="48.068160" lon="7.845428">
        <ele>213.380318</ele>
        <time>2026-08-24T18:23:25.713Z</time>
      </trkpt>
      <trkpt lat="48.068030" lon="7.845482">
        <ele>213.460928</ele>
        <time>2026-08-24T18:23:27.900Z</time>
      </trkpt>
      <trkpt lat="48.067954" lon="7.845504">
        <ele>213.507179</ele>
        <time>2026-08-24T18:23:29.066Z</time>
      </trkpt>
      <trkpt lat="48.067922" lon="7.845627">
        <ele>213.559880</ele>
        <time>2026-08-24T18:23:30.478Z</time>
      </trkpt>
      <trkpt lat="48.067879" lon="7.845786">
        <ele>213.628366</ele>
        <time>2026-08-24T18:23:32.193Z</time>
      </trkpt>
      <trkpt lat="48.067775" lon="7.846081">
        <ele>213.761537</ele>
        <time>2026-08-24T18:23:35.536Z</time>
      </trkpt>
      <trkpt lat="48.067493" lon="7.846543">
        <ele>213.926445</ele>
        <time>2026-08-24T18:23:41.890Z</time>
      </trkpt>
      <trkpt lat="48.067234" lon="7.846916">
        <ele>213.917892</ele>
        <time>2026-08-24T18:23:47.328Z</time>
      </trkpt>
      <trkpt lat="48.066782" lon="7.847539">
        <ele>213.903271</ele>
        <time>2026-08-24T18:23:56.527Z</time>
      </trkpt>
      <trkpt lat="48.066402" lon="7.848092">
        <ele>213.890660</ele>
        <time>2026-08-24T18:24:04.086Z</time>
      </trkpt>
      <trkpt lat="48.066158" lon="7.848368">
        <ele>213.971348</ele>
        <time>2026-08-24T18:24:08.184Z</time>
      </trkpt>
      <trkpt lat="48.065857" lon="7.848686">
        <ele>214.181641</ele>
        <time>2026-08-24T18:24:13.580Z</time>
      </trkpt>
      <trkpt lat="48.065722" lon="7.848801">
        <ele>214.270300</ele>
        <time>2026-08-24T18:24:16.204Z</time>
      </trkpt>
      <trkpt lat="48.065608" lon="7.848896">
        <ele>214.344773</ele>
        <time>2026-08-24T18:24:18.412Z</time>
      </trkpt>
      <trkpt lat="48.065469" lon="7.849006">
        <ele>214.434516</ele>
        <time>2026-08-24T18:24:21.102Z</time>
      </trkpt>
      <trkpt lat="48.065209" lon="7.849203">
        <ele>214.600847</ele>
        <time>2026-08-24T18:24:26.129Z</time>
      </trkpt>
      <trkpt lat="48.065017" lon="7.849394">
        <ele>214.732434</ele>
        <time>2026-08-24T18:24:30.286Z</time>
      </trkpt>
      <trkpt lat="48.064931" lon="7.849532">
        <ele>214.804404</ele>
        <time>2026-08-24T18:24:32.638Z</time>
      </trkpt>
      <trkpt lat="48.064857" lon="7.849662">
        <ele>214.869537</ele>
        <time>2026-08-24T18:24:34.800Z</time>
      </trkpt>
      <trkpt lat="48.064309" lon="7.850627">
        <ele>215.883406</ele>
        <time>2026-08-24T18:24:53.278Z</time>
      </trkpt>
      <trkpt lat="48.063961" lon="7.851093">
        <ele>216.472181</ele>
        <time>2026-08-24T18:25:02.586Z</time>
      </trkpt>
      <trkpt lat="48.063644" lon="7.851421">
        <ele>216.958087</ele>
        <time>2026-08-24T18:25:09.784Z</time>
      </trkpt>
      <trkpt lat="48.063156" lon="7.851729">
        <ele>217.454257</ele>
        <time>2026-08-24T18:25:19.576Z</time>
      </trkpt>
      <trkpt lat="48.063080" lon="7.851776">
        <ele>217.517937</ele>
        <time>2026-08-24T18:25:21.083Z</time>
      </trkpt>
      <trkpt lat="48.062989" lon="7.851835">
        <ele>217.594735</ele>
        <time>2026-08-24T18:25:22.892Z</time>
      </trkpt>
      <trkpt lat="48.062890" lon="7.851897">
        <ele>217.677841</ele>
        <time>2026-08-24T18:25:24.860Z</time>
      </trkpt>
      <trkpt lat="48.062465" lon="7.852170">
        <ele>218.035991</ele>
        <time>2026-08-24T18:25:33.220Z</time>
      </trkpt>
      <trkpt lat="48.062433" lon="7.852190">
        <ele>218.062845</ele>
        <time>2026-08-24T18:25:33.846Z</time>
      </trkpt>
      <trkpt lat="48.061146" lon="7.852983">
        <ele>218.645291</ele>
        <time>2026-08-24T18:25:57.599Z</time>
      </trkpt>
      <trkpt lat="48.061001" lon="7.853074">
        <ele>218.660627</ele>
        <time>2026-08-24T18:25:59.920Z</time>
      </trkpt>
      <trkpt lat="48.060914" lon="7.853075">
        <ele>218.669112</ele>
        <time>2026-08-24T18:26:01.186Z</time>
      </trkpt>
      <trkpt lat="48.060777" lon="7.853146">
        <ele>218.683253</ele>
        <time>2026-08-24T18:26:03.297Z</time>
      </trkpt>
      <trkpt lat="48.060586" lon="7.853316">
        <ele>218.704928</ele>
        <time>2026-08-24T18:26:06.465Z</time>
      </trkpt>
      <trkpt lat="48.060512" lon="7.853360">
        <ele>218.712694</ele>
        <time>2026-08-24T18:26:07.567Z</time>
      </trkpt>
      <trkpt lat="48.060187" lon="7.853564">
        <ele>218.747068</ele>
        <time>2026-08-24T18:26:12.400Z</time>
      </trkpt>
      <trkpt lat="48.059961" lon="7.853710">
        <ele>218.671306</ele>
        <time>2026-08-24T18:26:15.693Z</time>
      </trkpt>
      <trkpt lat="48.058949" lon="7.854283">
        <ele>218.292582</ele>
        <time>2026-08-24T18:26:30.475Z</time>
      </trkpt>
      <trkpt lat="48.057970" lon="7.854747">
        <ele>218.031884</ele>
        <time>2026-08-24T18:26:44.573Z</time>
      </trkpt>
      <trkpt lat="48.057839" lon="7.854808">
        <ele>218.009268</ele>
        <time>2026-08-24T18:26:46.473Z</time>
      </trkpt>
      <trkpt lat="48.056913" lon="7.855157">
        <ele>217.851852</ele>
        <time>2026-08-24T18:27:00.256Z</time>
      </trkpt>
      <trkpt lat="48.056528" lon="7.855287">
        <ele>217.877357</ele>
        <time>2026-08-24T18:27:05.981Z</time>
      </trkpt>
      <trkpt lat="48.056495" lon="7.855294">
        <ele>217.885495</ele>
        <time>2026-08-24T18:27:06.466Z</time>
      </trkpt>
      <trkpt lat="48.056356" lon="7.855307">
        <ele>217.919497</ele>
        <time>2026-08-24T18:27:08.532Z</time>
      </trkpt>
      <trkpt lat="48.055463" lon="7.855349">
        <ele>218.137627</ele>
        <time>2026-08-24T18:27:22.467Z</time>
      </trkpt>
      <trkpt lat="48.054723" lon="7.855346">
        <ele>218.477086</ele>
        <time>2026-08-24T18:27:34.889Z</time>
      </trkpt>
      <trkpt lat="48.054171" lon="7.855353">
        <ele>218.994900</ele>
        <time>2026-08-24T18:27:45.408Z</time>
      </trkpt>
      <trkpt lat="48.053890" lon="7.855409">
        <ele>219.260816</ele>
        <time>2026-08-24T18:27:50.807Z</time>
      </trkpt>
      <trkpt lat="48.053504" lon="7.855575">
        <ele>219.637561</ele>
        <time>2026-08-24T18:27:58.350Z</time>
      </trkpt>
      <trkpt lat="48.053218" lon="7.855777">
        <ele>219.934235</ele>
        <time>2026-08-24T18:28:04.333Z</time>
      </trkpt>
      <trkpt lat="48.053011" lon="7.855972">
        <ele>220.175093</ele>
        <time>2026-08-24T18:28:09.024Z</time>
      </trkpt>
      <trkpt lat="48.052549" lon="7.856514">
        <ele>220.755145</ele>
        <time>2026-08-24T18:28:20.137Z</time>
      </trkpt>
      <trkpt lat="48.052658" lon="7.856599">
        <ele>220.876586</ele>
        <time>2026-08-24T18:28:22.401Z</time>
      </trkpt>
      <trkpt lat="48.052338" lon="7.856929">
        <ele>221.260574</ele>
        <time>2026-08-24T18:28:29.722Z</time>
      </trkpt>
      <trkpt lat="48.051595" lon="7.858105">
        <ele>222.119274</ele>
        <time>2026-08-24T18:28:49.875Z</time>
      </trkpt>
      <trkpt lat="48.051544" lon="7.858242">
        <ele>222.186754</ele>
        <time>2026-08-24T18:28:51.723Z</time>
      </trkpt>
      <trkpt lat="48.051573" lon="7.858336">
        <ele>222.231304</ele>
        <time>2026-08-24T18:28:52.940Z</time>
      </trkpt>
      <trkpt lat="48.051648" lon="7.858402">
        <ele>222.287319</ele>
        <time>2026-08-24T18:28:54.456Z</time>
      </trkpt>
      <trkpt lat="48.052302" lon="7.858839">
        <ele>222.748420</ele>
        <time>2026-08-24T18:29:06.437Z</time>
      </trkpt>
      <trkpt lat="48.052343" lon="7.858968">
        <ele>222.809886</ele>
        <time>2026-08-24T18:29:07.983Z</time>
      </trkpt>
      <trkpt lat="48.052416" lon="7.859561">
        <ele>223.002468</ele>
        <time>2026-08-24T18:29:14.410Z</time>
      </trkpt>
      <trkpt lat="48.052447" lon="7.860444">
        <ele>223.245289</ele>
        <time>2026-08-24T18:29:24.011Z</time>
      </trkpt>
      <trkpt lat="48.052430" lon="7.861566">
        <ele>223.553489</ele>
        <time>2026-08-24T18:29:36.334Z</time>
      </trkpt>
      <trkpt lat="48.053358" lon="7.863457">
        <ele>224.346678</ele>
        <time>2026-08-24T18:30:03.058Z</time>
      </trkpt>
      <trkpt lat="48.053757" lon="7.864369">
        <ele>224.692374</ele>
        <time>2026-08-24T18:30:15.418Z</time>
      </trkpt>
      <trkpt lat="48.054832" lon="7.866770">
        <ele>225.575571</ele>
        <time>2026-08-24T18:30:47.002Z</time>
      </trkpt>
      <trkpt lat="48.055365" lon="7.867703">
        <ele>226.042869</ele>
        <time>2026-08-24T18:31:00.984Z</time>
      </trkpt>
      <trkpt lat="48.056030" lon="7.868711">
        <ele>226.650770</ele>
        <time>2026-08-24T18:31:17.911Z</time>
      </trkpt>
      <trkpt lat="48.056441" lon="7.869105">
        <ele>227.006910</ele>
        <time>2026-08-24T18:31:26.676Z</time>
      </trkpt>
      <trkpt lat="48.057052" lon="7.869679">
        <ele>227.533290</ele>
        <time>2026-08-24T18:31:39.534Z</time>
      </trkpt>
      <trkpt lat="48.057648" lon="7.870217">
        <ele>227.819035</ele>
        <time>2026-08-24T18:31:51.638Z</time>
      </trkpt>
      <trkpt lat="48.057823" lon="7.870374">
        <ele>227.883392</ele>
        <time>2026-08-24T18:31:54.980Z</time>
      </trkpt>
      <trkpt lat="48.057904" lon="7.870636">
        <ele>227.944246</ele>
        <time>2026-08-24T18:31:58.076Z</time>
      </trkpt>
      <trkpt lat="48.057964" lon="7.870765">
        <ele>227.977376</ele>
        <time>2026-08-24T18:31:59.749Z</time>
      </trkpt>
      <trkpt lat="48.058163" lon="7.871006">
        <ele>228.058126</ele>
        <time>2026-08-24T18:32:03.820Z</time>
      </trkpt>
      <trkpt lat="48.058537" lon="7.871102">
        <ele>228.177808</ele>
        <time>2026-08-24T18:32:09.831Z</time>
      </trkpt>
      <trkpt lat="48.058838" lon="7.871130">
        <ele>228.113584</ele>
        <time>2026-08-24T18:32:14.248Z</time>
      </trkpt>
      <trkpt lat="48.059189" lon="7.871114">
        <ele>227.907673</ele>
        <time>2026-08-24T18:32:18.809Z</time>
      </trkpt>
      <trkpt lat="48.059620" lon="7.870953">
        <ele>227.647192</ele>
        <time>2026-08-24T18:32:24.468Z</time>
      </trkpt>
      <trkpt lat="48.060119" lon="7.870766">
        <ele>227.345556</ele>
        <time>2026-08-24T18:32:30.907Z</time>
      </trkpt>
      <trkpt lat="48.060135" lon="7.870890">
        <ele>227.296064</ele>
        <time>2026-08-24T18:32:31.961Z</time>
      </trkpt>
      <trkpt lat="48.060169" lon="7.871152">
        <ele>227.191469</ele>
        <time>2026-08-24T18:32:34.176Z</time>
      </trkpt>
      <trkpt lat="48.060181" lon="7.871357">
        <ele>227.153391</ele>
        <time>2026-08-24T18:32:35.906Z</time>
      </trkpt>
      <trkpt lat="48.060327" lon="7.871305">
        <ele>227.137836</ele>
        <time>2026-08-24T18:32:37.805Z</time>
      </trkpt>
      <trkpt lat="48.060712" lon="7.871069">
        <ele>227.094716</ele>
        <time>2026-08-24T18:32:43.299Z</time>
      </trkpt>
      <trkpt lat="48.060951" lon="7.870966">
        <ele>227.068939</ele>
        <time>2026-08-24T18:32:47.031Z</time>
      </trkpt>
      <trkpt lat="48.061479" lon="7.870821">
        <ele>227.013302</ele>
        <time>2026-08-24T18:32:55.736Z</time>
      </trkpt>
      <trkpt lat="48.063107" lon="7.871263">
        <ele>227.018684</ele>
        <time>2026-08-24T18:33:21.857Z</time>
      </trkpt>
      <trkpt lat="48.063189" lon="7.871278">
        <ele>227.021398</ele>
        <time>2026-08-24T18:33:22.940Z</time>
      </trkpt>
      <trkpt lat="48.064510" lon="7.871542">
        <ele>226.902618</ele>
        <time>2026-08-24T18:33:40.706Z</time>
      </trkpt>
      <trkpt lat="48.063189" lon="7.871278">
        <ele>226.755837</ele>
        <time>2026-08-24T18:34:01.570Z</time>
      </trkpt>
      <trkpt lat="48.064510" lon="7.871542">
        <ele>226.702050</ele>
        <time>2026-08-24T18:34:20.357Z</time>
      </trkpt>
      <trkpt lat="48.063189" lon="7.871278">
        <ele>226.458821</ele>
        <time>2026-08-24T18:34:41.220Z</time>
      </trkpt>
      <trkpt lat="48.064510" lon="7.871542">
        <ele>225.607072</ele>
        <time>2026-08-24T18:34:57.572Z</time>
      </trkpt>
      <trkpt lat="48.064987" lon="7.871616">
        <ele>225.175789</ele>
        <time>2026-08-24T18:35:03.205Z</time>
      </trkpt>
      <trkpt lat="48.065569" lon="7.871680">
        <ele>224.790839</ele>
        <time>2026-08-24T18:35:10.528Z</time>
      </trkpt>
      <trkpt lat="48.065905" lon="7.871810">
        <ele>224.912280</ele>
        <time>2026-08-24T18:35:15.338Z</time>
      </trkpt>
      <trkpt lat="48.066179" lon="7.871930">
        <ele>225.012181</ele>
        <time>2026-08-24T18:35:19.898Z</time>
      </trkpt>
      <trkpt lat="48.067180" lon="7.872500">
        <ele>225.388165</ele>
        <time>2026-08-24T18:35:39.564Z</time>
      </trkpt>
      <trkpt lat="48.067515" lon="7.872706">
        <ele>225.540792</ele>
        <time>2026-08-24T18:35:46.230Z</time>
      </trkpt>
      <trkpt lat="48.067581" lon="7.872751">
        <ele>225.571356</ele>
        <time>2026-08-24T18:35:47.540Z</time>
      </trkpt>
      <trkpt lat="48.068040" lon="7.873058">
        <ele>225.783225</ele>
        <time>2026-08-24T18:35:56.150Z</time>
      </trkpt>
      <trkpt lat="48.068085" lon="7.873101">
        <ele>225.805725</ele>
        <time>2026-08-24T18:35:57.008Z</time>
      </trkpt>
      <trkpt lat="48.068273" lon="7.873217">
        <ele>225.891420</ele>
        <time>2026-08-24T18:36:00.164Z</time>
      </trkpt>
      <trkpt lat="48.068581" lon="7.873404">
        <ele>226.031490</ele>
        <time>2026-08-24T18:36:05.011Z</time>
      </trkpt>
      <trkpt lat="48.068689" lon="7.873480">
        <ele>226.081783</ele>
        <time>2026-08-24T18:36:06.725Z</time>
      </trkpt>
      <trkpt lat="48.068867" lon="7.873598">
        <ele>226.165775</ele>
        <time>2026-08-24T18:36:09.566Z</time>
      </trkpt>
      <trkpt lat="48.069354" lon="7.873937">
        <ele>226.409910</ele>
        <time>2026-08-24T18:36:17.900Z</time>
      </trkpt>
      <trkpt lat="48.069443" lon="7.873993">
        <ele>226.453794</ele>
        <time>2026-08-24T18:36:19.475Z</time>
      </trkpt>
      <trkpt lat="48.069510" lon="7.874028">
        <ele>226.486050</ele>
        <time>2026-08-24T18:36:20.600Z</time>
      </trkpt>
      <trkpt lat="48.069535" lon="7.874037">
        <ele>226.497737</ele>
        <time>2026-08-24T18:36:21.147Z</time>
      </trkpt>
      <trkpt lat="48.069377" lon="7.874559">
        <ele>226.671793</ele>
        <time>2026-08-24T18:36:29.574Z</time>
      </trkpt>
      <trkpt lat="48.069345" lon="7.874929">
        <ele>226.785112</ele>
        <time>2026-08-24T18:36:35.318Z</time>
      </trkpt>
      <trkpt lat="48.069337" lon="7.874996">
        <ele>226.805785</ele>
        <time>2026-08-24T18:36:36.381Z</time>
      </trkpt>
      <trkpt lat="48.069379" lon="7.875133">
        <ele>226.851567</ele>
        <time>2026-08-24T18:36:38.806Z</time>
      </trkpt>
      <trkpt lat="48.069714" lon="7.875284">
        <ele>227.026217</ele>
        <time>2026-08-24T18:36:45.633Z</time>
      </trkpt>
      <trkpt lat="48.071074" lon="7.876056">
        <ele>227.878534</ele>
        <time>2026-08-24T18:37:11.423Z</time>
      </trkpt>
      <trkpt lat="48.071125" lon="7.876156">
        <ele>227.927790</ele>
        <time>2026-08-24T18:37:12.704Z</time>
      </trkpt>
      <trkpt lat="48.072014" lon="7.876720">
        <ele>227.802979</ele>
        <time>2026-08-24T18:37:25.948Z</time>
      </trkpt>
      <trkpt lat="48.072165" lon="7.876816">
        <ele>227.761682</ele>
        <time>2026-08-24T18:37:28.045Z</time>
      </trkpt>
      <trkpt lat="48.072825" lon="7.877264">
        <ele>227.579257</ele>
        <time>2026-08-24T18:37:38.068Z</time>
      </trkpt>
      <trkpt lat="48.072864" lon="7.877323">
        <ele>227.565298</ele>
        <time>2026-08-24T18:37:38.808Z</time>
      </trkpt>
      <trkpt lat="48.072889" lon="7.877528">
        <ele>227.535935</ele>
        <time>2026-08-24T18:37:40.701Z</time>
      </trkpt>
      <trkpt lat="48.072930" lon="7.877570">
        <ele>227.526015</ele>
        <time>2026-08-24T18:37:41.399Z</time>
      </trkpt>
      <trkpt lat="48.072993" lon="7.877620">
        <ele>227.511776</ele>
        <time>2026-08-24T18:37:42.380Z</time>
      </trkpt>
      <trkpt lat="48.073019" lon="7.877637">
        <ele>227.506111</ele>
        <time>2026-08-24T18:37:42.760Z</time>
      </trkpt>
      <trkpt lat="48.073136" lon="7.877576">
        <ele>227.481373</ele>
        <time>2026-08-24T18:37:44.476Z</time>
      </trkpt>
      <trkpt lat="48.073207" lon="7.877575">
        <ele>227.467196</ele>
        <time>2026-08-24T18:37:45.464Z</time>
      </trkpt>
      <trkpt lat="48.073241" lon="7.877476">
        <ele>227.452346</ele>
        <time>2026-08-24T18:37:46.504Z</time>
      </trkpt>
      <trkpt lat="48.073357" lon="7.877521">
        <ele>227.428419</ele>
        <time>2026-08-24T18:37:48.186Z</time>
      </trkpt>
      <trkpt lat="48.073719" lon="7.877840">
        <ele>227.344540</ele>
        <time>2026-08-24T18:37:54.320Z</time>
      </trkpt>
      <trkpt lat="48.074131" lon="7.878305">
        <ele>227.241507</ele>
        <time>2026-08-24T18:38:02.206Z</time>
      </trkpt>
      <trkpt lat="48.074602" lon="7.878915">
        <ele>226.955176</ele>
        <time>2026-08-24T18:38:10.511Z</time>
      </trkpt>
      <trkpt lat="48.074816" lon="7.879238">
        <ele>226.773859</ele>
        <time>2026-08-24T18:38:14.494Z</time>
      </trkpt>
      <trkpt lat="48.075450" lon="7.880362">
        <ele>226.187520</ele>
        <time>2026-08-24T18:38:26.744Z</time>
      </trkpt>
      <trkpt lat="48.075847" lon="7.881017">
        <ele>226.152895</ele>
        <time>2026-08-24T18:38:34.522Z</time>
      </trkpt>
      <trkpt lat="48.076074" lon="7.881340">
        <ele>226.170457</ele>
        <time>2026-08-24T18:38:39.150Z</time>
      </trkpt>
      <trkpt lat="48.076594" lon="7.881889">
        <ele>226.206138</ele>
        <time>2026-08-24T18:38:49.347Z</time>
      </trkpt>
      <trkpt lat="48.076788" lon="7.882172">
        <ele>226.221327</ele>
        <time>2026-08-24T18:38:54.197Z</time>
      </trkpt>
      <trkpt lat="48.076943" lon="7.882552">
        <ele>226.263295</ele>
        <time>2026-08-24T18:38:59.673Z</time>
      </trkpt>
      <trkpt lat="48.077004" lon="7.882801">
        <ele>226.294945</ele>
        <time>2026-08-24T18:39:02.792Z</time>
      </trkpt>
      <trkpt lat="48.077118" lon="7.883705">
        <ele>226.404733</ele>
        <time>2026-08-24T18:39:12.493Z</time>
      </trkpt>
      <trkpt lat="48.077157" lon="7.884070">
        <ele>226.448846</ele>
        <time>2026-08-24T18:39:16.057Z</time>
      </trkpt>
      <trkpt lat="48.077306" lon="7.884660">
        <ele>226.524118</ele>
        <time>2026-08-24T18:39:22.071Z</time>
      </trkpt>
      <trkpt lat="48.077392" lon="7.884841">
        <ele>226.543141</ele>
        <time>2026-08-24T18:39:24.109Z</time>
      </trkpt>
      <trkpt lat="48.077530" lon="7.885079">
        <ele>226.484315</ele>
        <time>2026-08-24T18:39:26.989Z</time>
      </trkpt>
      <trkpt lat="48.078925" lon="7.887071">
        <ele>226.022561</ele>
        <time>2026-08-24T18:39:53.516Z</time>
      </trkpt>
      <trkpt lat="48.079599" lon="7.888038">
        <ele>225.963323</ele>
        <time>2026-08-24T18:40:07.760Z</time>
      </trkpt>
      <trkpt lat="48.079962" lon="7.888552">
        <ele>225.931618</ele>
        <time>2026-08-24T18:40:14.964Z</time>
      </trkpt>
      <trkpt lat="48.079996" lon="7.888594">
        <ele>225.926503</ele>
        <time>2026-08-24T18:40:15.608Z</time>
      </trkpt>
      <trkpt lat="48.080355" lon="7.889071">
        <ele>225.864286</ele>
        <time>2026-08-24T18:40:22.755Z</time>
      </trkpt>
      <trkpt lat="48.080659" lon="7.889388">
        <ele>225.816266</ele>
        <time>2026-08-24T18:40:28.113Z</time>
      </trkpt>
      <trkpt lat="48.081042" lon="7.889723">
        <ele>225.758772</ele>
        <time>2026-08-24T18:40:34.135Z</time>
      </trkpt>
      <trkpt lat="48.081290" lon="7.889888">
        <ele>225.723597</ele>
        <time>2026-08-24T18:40:38.051Z</time>
      </trkpt>
      <trkpt lat="48.081373" lon="7.889930">
        <ele>225.712241</ele>
        <time>2026-08-24T18:40:39.353Z</time>
      </trkpt>
      <trkpt lat="48.081413" lon="7.889944">
        <ele>225.706917</ele>
        <time>2026-08-24T18:40:39.980Z</time>
      </trkpt>
      <trkpt lat="48.081617" lon="7.890021">
        <ele>225.664679</ele>
        <time>2026-08-24T18:40:43.102Z</time>
      </trkpt>
      <trkpt lat="48.081913" lon="7.890075">
        <ele>225.594369</ele>
        <time>2026-08-24T18:40:47.525Z</time>
      </trkpt>
      <trkpt lat="48.082609" lon="7.889968">
        <ele>225.429399</ele>
        <time>2026-08-24T18:40:56.834Z</time>
      </trkpt>
      <trkpt lat="48.082848" lon="7.889931">
        <ele>225.372745</ele>
        <time>2026-08-24T18:41:00.096Z</time>
      </trkpt>
      <trkpt lat="48.082910" lon="7.889922">
        <ele>225.358058</ele>
        <time>2026-08-24T18:41:00.952Z</time>
      </trkpt>
      <trkpt lat="48.083515" lon="7.889866">
        <ele>225.261591</ele>
        <time>2026-08-24T18:41:09.712Z</time>
      </trkpt>
      <trkpt lat="48.083553" lon="7.889867">
        <ele>225.259723</ele>
        <time>2026-08-24T18:41:10.279Z</time>
      </trkpt>
      <trkpt lat="48.084276" lon="7.889890">
        <ele>225.224176</ele>
        <time>2026-08-24T18:41:21.088Z</time>
      </trkpt>
      <trkpt lat="48.084382" lon="7.889903">
        <ele>225.218948</ele>
        <time>2026-08-24T18:41:22.729Z</time>
      </trkpt>
      <trkpt lat="48.084884" lon="7.890000">
        <ele>225.194068</ele>
        <time>2026-08-24T18:41:30.574Z</time>
      </trkpt>
      <trkpt lat="48.085652" lon="7.890255">
        <ele>225.063431</ele>
        <time>2026-08-24T18:41:41.387Z</time>
      </trkpt>
      <trkpt lat="48.086178" lon="7.890502">
        <ele>224.953305</ele>
        <time>2026-08-24T18:41:48.794Z</time>
      </trkpt>
      <trkpt lat="48.086425" lon="7.890654">
        <ele>224.899956</ele>
        <time>2026-08-24T18:41:52.627Z</time>
      </trkpt>
      <trkpt lat="48.086581" lon="7.890790">
        <ele>224.863893</ele>
        <time>2026-08-24T18:41:55.153Z</time>
      </trkpt>
      <trkpt lat="48.086880" lon="7.891142">
        <ele>224.965915</ele>
        <time>2026-08-24T18:42:00.596Z</time>
      </trkpt>
      <trkpt lat="48.087194" lon="7.891656">
        <ele>225.306095</ele>
        <time>2026-08-24T18:42:08.190Z</time>
      </trkpt>
      <trkpt lat="48.087396" lon="7.892148">
        <ele>225.588141</ele>
        <time>2026-08-24T18:42:15.282Z</time>
      </trkpt>
      <trkpt lat="48.087610" lon="7.892637">
        <ele>225.873651</ele>
        <time>2026-08-24T18:42:23.168Z</time>
      </trkpt>
      <trkpt lat="48.087720" lon="7.892882">
        <ele>226.017822</ele>
        <time>2026-08-24T18:42:27.142Z</time>
      </trkpt>
      <trkpt lat="48.087839" lon="7.893141">
        <ele>226.175637</ele>
        <time>2026-08-24T18:42:31.080Z</time>
      </trkpt>
      <trkpt lat="48.087924" lon="7.893284">
        <ele>226.282397</ele>
        <time>2026-08-24T18:42:33.464Z</time>
      </trkpt>
      <trkpt lat="48.088052" lon="7.893478">
        <ele>226.434480</ele>
        <time>2026-08-24T18:42:36.886Z</time>
      </trkpt>
      <trkpt lat="48.088099" lon="7.893550">
        <ele>226.490627</ele>
        <time>2026-08-24T18:42:38.181Z</time>
      </trkpt>
      <trkpt lat="48.088286" lon="7.893782">
        <ele>226.693410</ele>
        <time>2026-08-24T18:42:42.877Z</time>
      </trkpt>
      <trkpt lat="48.088358" lon="7.893860">
        <ele>226.767615</ele>
        <time>2026-08-24T18:42:44.632Z</time>
      </trkpt>
      <trkpt lat="48.088501" lon="7.894009">
        <ele>226.913086</ele>
        <time>2026-08-24T18:42:47.941Z</time>
      </trkpt>
      <trkpt lat="48.088609" lon="7.894116">
        <ele>227.021218</ele>
        <time>2026-08-24T18:42:50.353Z</time>
      </trkpt>
      <trkpt lat="48.088691" lon="7.894193">
        <ele>227.102038</ele>
        <time>2026-08-24T18:42:52.108Z</time>
      </trkpt>
      <trkpt lat="48.088889" lon="7.894385">
        <ele>227.299008</ele>
        <time>2026-08-24T18:42:56.400Z</time>
      </trkpt>
      <trkpt lat="48.089130" lon="7.894628">
        <ele>227.541614</ele>
        <time>2026-08-24T18:43:01.335Z</time>
      </trkpt>
      <trkpt lat="48.089825" lon="7.895320">
        <ele>227.855441</ele>
        <time>2026-08-24T18:43:13.965Z</time>
      </trkpt>
      <trkpt lat="48.090205" lon="7.895687">
        <ele>227.990169</ele>
        <time>2026-08-24T18:43:21.225Z</time>
      </trkpt>
      <trkpt lat="48.090549" lon="7.895966">
        <ele>228.106730</ele>
        <time>2026-08-24T18:43:27.500Z</time>
      </trkpt>
      <trkpt lat="48.090773" lon="7.896103">
        <ele>228.178870</ele>
        <time>2026-08-24T18:43:31.380Z</time>
      </trkpt>
      <trkpt lat="48.091482" lon="7.896458">
        <ele>228.679569</ele>
        <time>2026-08-24T18:43:44.233Z</time>
      </trkpt>
      <trkpt lat="48.091781" lon="7.896616">
        <ele>228.891929</ele>
        <time>2026-08-24T18:43:50.347Z</time>
      </trkpt>
      <trkpt lat="48.092067" lon="7.896811">
        <ele>229.102403</ele>
        <time>2026-08-24T18:43:56.179Z</time>
      </trkpt>
      <trkpt lat="48.092361" lon="7.896999">
        <ele>229.316515</ele>
        <time>2026-08-24T18:44:01.818Z</time>
      </trkpt>
      <trkpt lat="48.092637" lon="7.897232">
        <ele>229.388108</ele>
        <time>2026-08-24T18:44:07.152Z</time>
      </trkpt>
      <trkpt lat="48.092768" lon="7.897348">
        <ele>229.391406</ele>
        <time>2026-08-24T18:44:09.641Z</time>
      </trkpt>
      <trkpt lat="48.092992" lon="7.897566">
        <ele>229.397195</ele>
        <time>2026-08-24T18:44:13.882Z</time>
      </trkpt>
      <trkpt lat="48.093308" lon="7.897891">
        <ele>229.405502</ele>
        <time>2026-08-24T18:44:19.604Z</time>
      </trkpt>
      <trkpt lat="48.093294" lon="7.897994">
        <ele>229.407024</ele>
        <time>2026-08-24T18:44:20.598Z</time>
      </trkpt>
      <trkpt lat="48.093329" lon="7.898056">
        <ele>229.408199</ele>
        <time>2026-08-24T18:44:21.347Z</time>
      </trkpt>
      <trkpt lat="48.093387" lon="7.898064">
        <ele>229.409461</ele>
        <time>2026-08-24T18:44:22.148Z</time>
      </trkpt>
      <trkpt lat="48.093430" lon="7.898004">
        <ele>229.410734</ele>
        <time>2026-08-24T18:44:22.951Z</time>
      </trkpt>
      <trkpt lat="48.093817" lon="7.898326">
        <ele>229.420328</ele>
        <time>2026-08-24T18:44:29.012Z</time>
      </trkpt>
      <trkpt lat="48.094861" lon="7.899072">
        <ele>228.807090</ele>
        <time>2026-08-24T18:44:44.336Z</time>
      </trkpt>
      <trkpt lat="48.095444" lon="7.899551">
        <ele>228.421830</ele>
        <time>2026-08-24T18:44:52.726Z</time>
      </trkpt>
      <trkpt lat="48.095973" lon="7.900101">
        <ele>228.294501</ele>
        <time>2026-08-24T18:45:01.016Z</time>
      </trkpt>
      <trkpt lat="48.096234" lon="7.900457">
        <ele>228.241539</ele>
        <time>2026-08-24T18:45:05.692Z</time>
      </trkpt>
      <trkpt lat="48.096272" lon="7.900509">
        <ele>228.233817</ele>
        <time>2026-08-24T18:45:06.395Z</time>
      </trkpt>
      <trkpt lat="48.096570" lon="7.900949">
        <ele>228.171036</ele>
        <time>2026-08-24T18:45:12.517Z</time>
      </trkpt>
      <trkpt lat="48.097009" lon="7.901640">
        <ele>228.325524</ele>
        <time>2026-08-24T18:45:23.564Z</time>
      </trkpt>
      <trkpt lat="48.097205" lon="7.902023">
        <ele>228.621741</ele>
        <time>2026-08-24T18:45:29.447Z</time>
      </trkpt>
      <trkpt lat="48.097265" lon="7.902128">
        <ele>228.706576</ele>
        <time>2026-08-24T18:45:31.177Z</time>
      </trkpt>
      <trkpt lat="48.097429" lon="7.902460">
        <ele>228.960086</ele>
        <time>2026-08-24T18:45:36.452Z</time>
      </trkpt>
      <trkpt lat="48.097622" lon="7.902788">
        <ele>229.228451</ele>
        <time>2026-08-24T18:45:42.224Z</time>
      </trkpt>
      <trkpt lat="48.097663" lon="7.902852">
        <ele>229.282894</ele>
        <time>2026-08-24T18:45:43.390Z</time>
      </trkpt>
      <trkpt lat="48.098585" lon="7.904201">
        <ele>230.348255</ele>
        <time>2026-08-24T18:46:07.556Z</time>
      </trkpt>
      <trkpt lat="48.098599" lon="7.904221">
        <ele>230.363020</ele>
        <time>2026-08-24T18:46:07.891Z</time>
      </trkpt>
      <trkpt lat="48.098716" lon="7.904388">
        <ele>230.486361</ele>
        <time>2026-08-24T18:46:10.732Z</time>
      </trkpt>
      <trkpt lat="48.098911" lon="7.904668">
        <ele>230.692516</ele>
        <time>2026-08-24T18:46:15.376Z</time>
      </trkpt>
      <trkpt lat="48.099014" lon="7.904814">
        <ele>230.800741</ele>
        <time>2026-08-24T18:46:17.786Z</time>
      </trkpt>
      <trkpt lat="48.100014" lon="7.905942">
        <ele>231.528815</ele>
        <time>2026-08-24T18:46:39.271Z</time>
      </trkpt>
      <trkpt lat="48.100331" lon="7.906270">
        <ele>231.715013</ele>
        <time>2026-08-24T18:46:45.623Z</time>
      </trkpt>
      <trkpt lat="48.100418" lon="7.906358">
        <ele>231.765747</ele>
        <time>2026-08-24T18:46:47.349Z</time>
      </trkpt>
      <trkpt lat="48.100825" lon="7.906754">
        <ele>232.000294</ele>
        <time>2026-08-24T18:46:55.483Z</time>
      </trkpt>
      <trkpt lat="48.100969" lon="7.906885">
        <ele>232.039887</ele>
        <time>2026-08-24T18:46:58.301Z</time>
      </trkpt>
      <trkpt lat="48.101018" lon="7.906930">
        <ele>232.052417</ele>
        <time>2026-08-24T18:46:59.232Z</time>
      </trkpt>
      <trkpt lat="48.101162" lon="7.907053">
        <ele>232.088556</ele>
        <time>2026-08-24T18:47:01.827Z</time>
      </trkpt>
      <trkpt lat="48.101174" lon="7.907063">
        <ele>232.091550</ele>
        <time>2026-08-24T18:47:02.047Z</time>
      </trkpt>
      <trkpt lat="48.101243" lon="7.907123">
        <ele>232.108943</ele>
        <time>2026-08-24T18:47:03.217Z</time>
      </trkpt>
      <trkpt lat="48.101559" lon="7.907385">
        <ele>232.187683</ele>
        <time>2026-08-24T18:47:08.233Z</time>
      </trkpt>
      <trkpt lat="48.101753" lon="7.907546">
        <ele>232.236034</ele>
        <time>2026-08-24T18:47:11.468Z</time>
      </trkpt>
      <trkpt lat="48.101890" lon="7.907571">
        <ele>232.266120</ele>
        <time>2026-08-24T18:47:13.639Z</time>
      </trkpt>
      <trkpt lat="48.102034" lon="7.907500">
        <ele>232.299169</ele>
        <time>2026-08-24T18:47:16.152Z</time>
      </trkpt>
      <trkpt lat="48.102121" lon="7.907347">
        <ele>232.328423</ele>
        <time>2026-08-24T18:47:18.448Z</time>
      </trkpt>
      <trkpt lat="48.102256" lon="7.906962">
        <ele>232.391726</ele>
        <time>2026-08-24T18:47:23.427Z</time>
      </trkpt>
      <trkpt lat="48.102361" lon="7.906839">
        <ele>232.449213</ele>
        <time>2026-08-24T18:47:25.623Z</time>
      </trkpt>
      <trkpt lat="48.102454" lon="7.906810">
        <ele>232.495308</ele>
        <time>2026-08-24T18:47:27.156Z</time>
      </trkpt>
      <trkpt lat="48.102541" lon="7.906827">
        <ele>232.537882</ele>
        <time>2026-08-24T18:47:28.554Z</time>
      </trkpt>
      <trkpt lat="48.102658" lon="7.906968">
        <ele>232.610756</ele>
        <time>2026-08-24T18:47:30.879Z</time>
      </trkpt>
      <trkpt lat="48.102764" lon="7.907138">
        <ele>232.686123</ele>
        <time>2026-08-24T18:47:33.327Z</time>
      </trkpt>
      <trkpt lat="48.102814" lon="7.907208">
        <ele>232.719336</ele>
        <time>2026-08-24T18:47:34.425Z</time>
      </trkpt>
      <trkpt lat="48.102863" lon="7.907277">
        <ele>232.751974</ele>
        <time>2026-08-24T18:47:35.542Z</time>
      </trkpt>
      <trkpt lat="48.102906" lon="7.907331">
        <ele>232.779206</ele>
        <time>2026-08-24T18:47:36.487Z</time>
      </trkpt>
      <trkpt lat="48.103192" lon="7.907665">
        <ele>232.955196</ele>
        <time>2026-08-24T18:47:42.895Z</time>
      </trkpt>
      <trkpt lat="48.103291" lon="7.907772">
        <ele>233.014440</ele>
        <time>2026-08-24T18:47:45.117Z</time>
      </trkpt>
      <trkpt lat="48.103410" lon="7.907863">
        <ele>233.079277</ele>
        <time>2026-08-24T18:47:47.520Z</time>
      </trkpt>
      <trkpt lat="48.103543" lon="7.907909">
        <ele>233.145512</ele>
        <time>2026-08-24T18:47:49.871Z</time>
      </trkpt>
      <trkpt lat="48.104004" lon="7.907901">
        <ele>233.345175</ele>
        <time>2026-08-24T18:47:57.284Z</time>
      </trkpt>
      <trkpt lat="48.104542" lon="7.907882">
        <ele>233.542785</ele>
        <time>2026-08-24T18:48:06.166Z</time>
      </trkpt>
      <trkpt lat="48.104987" lon="7.907898">
        <ele>233.706237</ele>
        <time>2026-08-24T18:48:13.694Z</time>
      </trkpt>
      <trkpt lat="48.105836" lon="7.908148">
        <ele>233.961652</ele>
        <time>2026-08-24T18:48:27.389Z</time>
      </trkpt>
      <trkpt lat="48.106348" lon="7.908332">
        <ele>234.025635</ele>
        <time>2026-08-24T18:48:35.541Z</time>
      </trkpt>
      <trkpt lat="48.106704" lon="7.908439">
        <ele>234.069757</ele>
        <time>2026-08-24T18:48:40.992Z</time>
      </trkpt>
      <trkpt lat="48.107100" lon="7.908497">
        <ele>234.118107</ele>
        <time>2026-08-24T18:48:46.831Z</time>
      </trkpt>
      <trkpt lat="48.107654" lon="7.908472">
        <ele>234.335122</ele>
        <time>2026-08-24T18:48:55.043Z</time>
      </trkpt>
      <trkpt lat="48.107721" lon="7.908410">
        <ele>234.384414</ele>
        <time>2026-08-24T18:48:56.295Z</time>
      </trkpt>
      <trkpt lat="48.107829" lon="7.908396">
        <ele>234.452260</ele>
        <time>2026-08-24T18:48:58.032Z</time>
      </trkpt>
      <trkpt lat="48.108241" lon="7.908397">
        <ele>234.710117</ele>
        <time>2026-08-24T18:49:04.947Z</time>
      </trkpt>
      <trkpt lat="48.108221" lon="7.908450">
        <ele>234.735558</ele>
        <time>2026-08-24T18:49:05.869Z</time>
      </trkpt>
      <trkpt lat="48.108716" lon="7.908436">
        <ele>235.045416</ele>
        <time>2026-08-24T18:49:14.756Z</time>
      </trkpt>
      <trkpt lat="48.109097" lon="7.908464">
        <ele>235.298654</ele>
        <time>2026-08-24T18:49:21.956Z</time>
      </trkpt>
      <trkpt lat="48.109489" lon="7.908556">
        <ele>235.944681</ele>
        <time>2026-08-24T18:49:30.052Z</time>
      </trkpt>
      <trkpt lat="48.109734" lon="7.908647">
        <ele>236.355664</ele>
        <time>2026-08-24T18:49:35.405Z</time>
      </trkpt>
      <trkpt lat="48.109988" lon="7.908810">
        <ele>236.805581</ele>
        <time>2026-08-24T18:49:41.397Z</time>
      </trkpt>
      <trkpt lat="48.110040" lon="7.908843">
        <ele>236.897532</ele>
        <time>2026-08-24T18:49:42.644Z</time>
      </trkpt>
      <trkpt lat="48.110652" lon="7.909204">
        <ele>237.968463</ele>
        <time>2026-08-24T18:49:57.321Z</time>
      </trkpt>
      <trkpt lat="48.111063" lon="7.909334">
        <ele>238.416770</ele>
        <time>2026-08-24T18:50:06.830Z</time>
      </trkpt>
      <trkpt lat="48.111374" lon="7.909353">
        <ele>238.657494</ele>
        <time>2026-08-24T18:50:13.755Z</time>
      </trkpt>
      <trkpt lat="48.111534" lon="7.909340">
        <ele>238.781418</ele>
        <time>2026-08-24T18:50:17.879Z</time>
      </trkpt>
      <trkpt lat="48.111732" lon="7.909309">
        <ele>238.935384</ele>
        <time>2026-08-24T18:50:22.723Z</time>
      </trkpt>
      <trkpt lat="48.111853" lon="7.909283">
        <ele>239.029922</ele>
        <time>2026-08-24T18:50:25.556Z</time>
      </trkpt>
      <trkpt lat="48.112207" lon="7.909190">
        <ele>239.307881</ele>
        <time>2026-08-24T18:50:33.232Z</time>
      </trkpt>
      <trkpt lat="48.113365" lon="7.908848">
        <ele>239.110228</ele>
        <time>2026-08-24T18:50:48.054Z</time>
      </trkpt>
      <trkpt lat="48.114699" lon="7.908558">
        <ele>238.848669</ele>
        <time>2026-08-24T18:51:05.537Z</time>
      </trkpt>
      <trkpt lat="48.115138" lon="7.908539">
        <ele>239.252888</ele>
        <time>2026-08-24T18:51:13.408Z</time>
      </trkpt>
      <trkpt lat="48.115525" lon="7.908556">
        <ele>239.609231</ele>
        <time>2026-08-24T18:51:21.172Z</time>
      </trkpt>
      <trkpt lat="48.115828" lon="7.908570">
        <ele>239.888241</ele>
        <time>2026-08-24T18:51:27.786Z</time>
      </trkpt>
      <trkpt lat="48.117056" lon="7.908734">
        <ele>241.678725</ele>
        <time>2026-08-24T18:51:56.108Z</time>
      </trkpt>
      <trkpt lat="48.117365" lon="7.908776">
        <ele>242.184829</ele>
        <time>2026-08-24T18:52:02.664Z</time>
      </trkpt>
      <trkpt lat="48.117899" lon="7.908850">
        <ele>243.059595</ele>
        <time>2026-08-24T18:52:16.287Z</time>
      </trkpt>
      <trkpt lat="48.117960" lon="7.908771">
        <ele>243.113835</ele>
        <time>2026-08-24T18:52:17.774Z</time>
      </trkpt>
      <trkpt lat="48.118026" lon="7.908781">
        <ele>243.121764</ele>
        <time>2026-08-24T18:52:19.076Z</time>
      </trkpt>
      <trkpt lat="48.118711" lon="7.908829">
        <ele>243.203732</ele>
        <time>2026-08-24T18:52:30.738Z</time>
      </trkpt>
      <trkpt lat="48.119170" lon="7.908747">
        <ele>243.258985</ele>
        <time>2026-08-24T18:52:37.291Z</time>
      </trkpt>
      <trkpt lat="48.119211" lon="7.908729">
        <ele>243.264092</ele>
        <time>2026-08-24T18:52:37.882Z</time>
      </trkpt>
      <trkpt lat="48.119236" lon="7.908715">
        <ele>243.267282</ele>
        <time>2026-08-24T18:52:38.265Z</time>
      </trkpt>
      <trkpt lat="48.119629" lon="7.908454">
        <ele>243.318667</ele>
        <time>2026-08-24T18:52:43.954Z</time>
      </trkpt>
      <trkpt lat="48.120507" lon="7.907740">
        <ele>242.596495</ele>
        <time>2026-08-24T18:52:56.378Z</time>
      </trkpt>
      <trkpt lat="48.120959" lon="7.907260">
        <ele>242.179610</ele>
        <time>2026-08-24T18:53:03.194Z</time>
      </trkpt>
      <trkpt lat="48.120997" lon="7.907338">
        <ele>242.131108</ele>
        <time>2026-08-24T18:53:04.059Z</time>
      </trkpt>
      <trkpt lat="48.121359" lon="7.906870">
        <ele>242.002378</ele>
        <time>2026-08-24T18:53:10.271Z</time>
      </trkpt>
      <trkpt lat="48.121424" lon="7.906785">
        <ele>242.013196</ele>
        <time>2026-08-24T18:53:11.451Z</time>
      </trkpt>
      <trkpt lat="48.121968" lon="7.905907">
        <ele>242.113461</ele>
        <time>2026-08-24T18:53:23.587Z</time>
      </trkpt>
      <trkpt lat="48.122230" lon="7.905539">
        <ele>242.158493</ele>
        <time>2026-08-24T18:53:29.597Z</time>
      </trkpt>
      <trkpt lat="48.122737" lon="7.904984">
        <ele>242.628504</ele>
        <time>2026-08-24T18:53:41.031Z</time>
      </trkpt>
      <trkpt lat="48.123331" lon="7.904409">
        <ele>243.536807</ele>
        <time>2026-08-24T18:53:54.699Z</time>
      </trkpt>
      <trkpt lat="48.124122" lon="7.903715">
        <ele>244.820841</ele>
        <time>2026-08-24T18:54:14.122Z</time>
      </trkpt>
      <trkpt lat="48.125100" lon="7.902960">
        <ele>246.954827</ele>
        <time>2026-08-24T18:54:39.667Z</time>
      </trkpt>
      <trkpt lat="48.125175" lon="7.902902">
        <ele>247.118536</ele>
        <time>2026-08-24T18:54:41.697Z</time>
      </trkpt>
      <trkpt lat="48.125692" lon="7.902586">
        <ele>248.164085</ele>
        <time>2026-08-24T18:54:54.039Z</time>
      </trkpt>
      <trkpt lat="48.126177" lon="7.902336">
        <ele>248.979639</ele>
        <time>2026-08-24T18:55:05.564Z</time>
      </trkpt>
      <trkpt lat="48.126169" lon="7.902262">
        <ele>249.059203</ele>
        <time>2026-08-24T18:55:06.728Z</time>
      </trkpt>
      <trkpt lat="48.127047" lon="7.901851">
        <ele>250.521844</ele>
        <time>2026-08-24T18:55:25.988Z</time>
      </trkpt>
      <trkpt lat="48.127069" lon="7.901924">
        <ele>250.606853</ele>
        <time>2026-08-24T18:55:27.190Z</time>
      </trkpt>
      <trkpt lat="48.127698" lon="7.901511">
        <ele>251.448027</ele>
        <time>2026-08-24T18:55:40.721Z</time>
      </trkpt>
      <trkpt lat="48.128061" lon="7.901338">
        <ele>251.873997</ele>
        <time>2026-08-24T18:55:48.215Z</time>
      </trkpt>
      <trkpt lat="48.128561" lon="7.901263">
        <ele>252.435920</ele>
        <time>2026-08-24T18:55:57.420Z</time>
      </trkpt>
      <trkpt lat="48.128866" lon="7.901304">
        <ele>252.778358</ele>
        <time>2026-08-24T18:56:03.034Z</time>
      </trkpt>
      <trkpt lat="48.129695" lon="7.901546">
        <ele>253.598829</ele>
        <time>2026-08-24T18:56:18.760Z</time>
      </trkpt>
      <trkpt lat="48.130120" lon="7.901556">
        <ele>254.005448</ele>
        <time>2026-08-24T18:56:26.652Z</time>
      </trkpt>
      <trkpt lat="48.130110" lon="7.901483">
        <ele>254.053030</ele>
        <time>2026-08-24T18:56:27.528Z</time>
      </trkpt>
      <trkpt lat="48.130717" lon="7.901461">
        <ele>254.632015</ele>
        <time>2026-08-24T18:56:39.163Z</time>
      </trkpt>
      <trkpt lat="48.130760" lon="7.901529">
        <ele>254.689521</ele>
        <time>2026-08-24T18:56:40.411Z</time>
      </trkpt>
      <trkpt lat="48.131211" lon="7.901617">
        <ele>255.107846</ele>
        <time>2026-08-24T18:56:51.729Z</time>
      </trkpt>
      <trkpt lat="48.131641" lon="7.901747">
        <ele>255.511324</ele>
        <time>2026-08-24T18:57:02.253Z</time>
      </trkpt>
      <trkpt lat="48.131679" lon="7.901758">
        <ele>255.546922</ele>
        <time>2026-08-24T18:57:03.204Z</time>
      </trkpt>
      <trkpt lat="48.131906" lon="7.901798">
        <ele>255.757152</ele>
        <time>2026-08-24T18:57:08.590Z</time>
      </trkpt>
      <trkpt lat="48.131970" lon="7.901807">
        <ele>255.816276</ele>
        <time>2026-08-24T18:57:10.106Z</time>
      </trkpt>
      <trkpt lat="48.132132" lon="7.901826">
        <ele>255.965737</ele>
        <time>2026-08-24T18:57:13.962Z</time>
      </trkpt>
      <trkpt lat="48.132228" lon="7.901838">
        <ele>256.054343</ele>
        <time>2026-08-24T18:57:15.713Z</time>
      </trkpt>
      <trkpt lat="48.132711" lon="7.901913">
        <ele>256.131271</ele>
        <time>2026-08-24T18:57:24.284Z</time>
      </trkpt>
      <trkpt lat="48.133328" lon="7.902024">
        <ele>255.893412</ele>
        <time>2026-08-24T18:57:33.882Z</time>
      </trkpt>
      <trkpt lat="48.133605" lon="7.902099">
        <ele>255.785669</ele>
        <time>2026-08-24T18:57:37.593Z</time>
      </trkpt>
      <trkpt lat="48.134211" lon="7.902349">
        <ele>255.528544</ele>
        <time>2026-08-24T18:57:45.060Z</time>
      </trkpt>
      <trkpt lat="48.134694" lon="7.902565">
        <ele>254.835078</ele>
        <time>2026-08-24T18:57:50.612Z</time>
      </trkpt>
      <trkpt lat="48.135013" lon="7.902651">
        <ele>254.389157</ele>
        <time>2026-08-24T18:57:54.214Z</time>
      </trkpt>
      <trkpt lat="48.135407" lon="7.902665">
        <ele>253.846948</ele>
        <time>2026-08-24T18:57:58.667Z</time>
      </trkpt>
      <trkpt lat="48.135615" lon="7.902678">
        <ele>253.560537</ele>
        <time>2026-08-24T18:58:01.094Z</time>
      </trkpt>
      <trkpt lat="48.136263" lon="7.902811">
        <ele>253.283346</ele>
        <time>2026-08-24T18:58:09.558Z</time>
      </trkpt>
      <trkpt lat="48.136426" lon="7.902872">
        <ele>253.397979</ele>
        <time>2026-08-24T18:58:11.956Z</time>
      </trkpt>
      <trkpt lat="48.136771" lon="7.903107">
        <ele>253.656556</ele>
        <time>2026-08-24T18:58:18.291Z</time>
      </trkpt>
      <trkpt lat="48.137388" lon="7.903733">
        <ele>254.164964</ele>
        <time>2026-08-24T18:58:32.960Z</time>
      </trkpt>
      <trkpt lat="48.137513" lon="7.903939">
        <ele>254.291741</ele>
        <time>2026-08-24T18:58:36.918Z</time>
      </trkpt>
      <trkpt lat="48.137589" lon="7.904168">
        <ele>254.640865</ele>
        <time>2026-08-24T18:58:40.734Z</time>
      </trkpt>
      <trkpt lat="48.137653" lon="7.905588">
        <ele>256.738214</ele>
        <time>2026-08-24T18:59:03.516Z</time>
      </trkpt>
      <trkpt lat="48.137764" lon="7.906677">
        <ele>258.348935</ele>
        <time>2026-08-24T18:59:21.599Z</time>
      </trkpt>
      <trkpt lat="48.137895" lon="7.907277">
        <ele>259.141392</ele>
        <time>2026-08-24T18:59:31.780Z</time>
      </trkpt>
      <trkpt lat="48.137990" lon="7.907589">
        <ele>259.571881</ele>
        <time>2026-08-24T18:59:37.411Z</time>
      </trkpt>
      <trkpt lat="48.138618" lon="7.909191">
        <ele>261.743425</ele>
        <time>2026-08-24T19:00:04.372Z</time>
      </trkpt>
      <trkpt lat="48.138706" lon="7.909391">
        <ele>261.846777</ele>
        <time>2026-08-24T19:00:07.193Z</time>
      </trkpt>
      <trkpt lat="48.138779" lon="7.909556">
        <ele>261.932184</ele>
        <time>2026-08-24T19:00:09.468Z</time>
      </trkpt>
      <trkpt lat="48.139065" lon="7.910111">
        <ele>262.234700</ele>
        <time>2026-08-24T19:00:16.969Z</time>
      </trkpt>
      <trkpt lat="48.139444" lon="7.910705">
        <ele>262.589247</ele>
        <time>2026-08-24T19:00:25.239Z</time>
      </trkpt>
      <trkpt lat="48.139967" lon="7.911419">
        <ele>263.340021</ele>
        <time>2026-08-24T19:00:38.128Z</time>
      </trkpt>
      <trkpt lat="48.140555" lon="7.912005">
        <ele>264.392991</ele>
        <time>2026-08-24T19:00:52.410Z</time>
      </trkpt>
      <trkpt lat="48.141254" lon="7.912908">
        <ele>266.012755</ele>
        <time>2026-08-24T19:01:13.310Z</time>
      </trkpt>
      <trkpt lat="48.141443" lon="7.913227">
        <ele>266.827431</ele>
        <time>2026-08-24T19:01:20.062Z</time>
      </trkpt>
      <trkpt lat="48.141850" lon="7.914082">
        <ele>268.833119</ele>
        <time>2026-08-24T19:01:37.341Z</time>
      </trkpt>
      <trkpt lat="48.143087" lon="7.916316">
        <ele>274.608344</ele>
        <time>2026-08-24T19:02:35.730Z</time>
      </trkpt>
      <trkpt lat="48.143226" lon="7.916510">
        <ele>275.185714</ele>
        <time>2026-08-24T19:02:41.560Z</time>
      </trkpt>
      <trkpt lat="48.143941" lon="7.917060">
        <ele>275.478823</ele>
        <time>2026-08-24T19:02:55.795Z</time>
      </trkpt>
      <trkpt lat="48.144018" lon="7.917139">
        <ele>275.358563</ele>
        <time>2026-08-24T19:02:56.837Z</time>
      </trkpt>
      <trkpt lat="48.144074" lon="7.917214">
        <ele>275.261774</ele>
        <time>2026-08-24T19:02:57.727Z</time>
      </trkpt>
      <trkpt lat="48.144140" lon="7.917340">
        <ele>275.124024</ele>
        <time>2026-08-24T19:02:58.914Z</time>
      </trkpt>
      <trkpt lat="48.144190" lon="7.917467">
        <ele>274.997220</ele>
        <time>2026-08-24T19:02:59.975Z</time>
      </trkpt>
      <trkpt lat="48.144211" lon="7.917534">
        <ele>274.933565</ele>
        <time>2026-08-24T19:03:00.503Z</time>
      </trkpt>
      <trkpt lat="48.144225" lon="7.917602">
        <ele>274.872369</ele>
        <time>2026-08-24T19:03:01.017Z</time>
      </trkpt>
      <trkpt lat="48.144240" lon="7.917708">
        <ele>274.779189</ele>
        <time>2026-08-24T19:03:01.768Z</time>
      </trkpt>
      <trkpt lat="48.144236" lon="7.917878">
        <ele>274.632910</ele>
        <time>2026-08-24T19:03:02.945Z</time>
      </trkpt>
      <trkpt lat="48.144219" lon="7.918051">
        <ele>274.482537</ele>
        <time>2026-08-24T19:03:04.142Z</time>
      </trkpt>
      <trkpt lat="48.144188" lon="7.918211">
        <ele>274.339265</ele>
        <time>2026-08-24T19:03:05.247Z</time>
      </trkpt>
      <trkpt lat="48.143992" lon="7.918743">
        <ele>273.816679</ele>
        <time>2026-08-24T19:03:09.261Z</time>
      </trkpt>
      <trkpt lat="48.143902" lon="7.919025">
        <ele>273.981738</ele>
        <time>2026-08-24T19:03:11.576Z</time>
      </trkpt>
      <trkpt lat="48.143869" lon="7.919134">
        <ele>274.055291</ele>
        <time>2026-08-24T19:03:12.589Z</time>
      </trkpt>
      <trkpt lat="48.143839" lon="7.919227">
        <ele>274.118768</ele>
        <time>2026-08-24T19:03:13.425Z</time>
      </trkpt>
      <trkpt lat="48.143797" lon="7.919402">
        <ele>274.233052</ele>
        <time>2026-08-24T19:03:15.001Z</time>
      </trkpt>
      <trkpt lat="48.143780" lon="7.919503">
        <ele>274.297061</ele>
        <time>2026-08-24T19:03:15.988Z</time>
      </trkpt>
      <trkpt lat="48.143773" lon="7.919793">
        <ele>274.475385</ele>
        <time>2026-08-24T19:03:19.883Z</time>
      </trkpt>
      <trkpt lat="48.143777" lon="7.919830">
        <ele>274.498418</ele>
        <time>2026-08-24T19:03:20.485Z</time>
      </trkpt>
      <trkpt lat="48.143828" lon="7.920108">
        <ele>274.675590</ele>
        <time>2026-08-24T19:03:25.063Z</time>
      </trkpt>
      <trkpt lat="48.143894" lon="7.920285">
        <ele>274.800188</ele>
        <time>2026-08-24T19:03:28.374Z</time>
      </trkpt>
      <trkpt lat="48.144037" lon="7.920508">
        <ele>274.990246</ele>
        <time>2026-08-24T19:03:33.687Z</time>
      </trkpt>
      <trkpt lat="48.144163" lon="7.920554">
        <ele>275.109677</ele>
        <time>2026-08-24T19:03:37.033Z</time>
      </trkpt>
      <trkpt lat="48.144230" lon="7.920525">
        <ele>275.173902</ele>
        <time>2026-08-24T19:03:38.713Z</time>
      </trkpt>
      <trkpt lat="48.144496" lon="7.920276">
        <ele>275.466660</ele>
        <time>2026-08-24T19:03:46.490Z</time>
      </trkpt>
      <trkpt lat="48.144578" lon="7.920230">
        <ele>275.606164</ele>
        <time>2026-08-24T19:03:48.770Z</time>
      </trkpt>
      <trkpt lat="48.145040" lon="7.920280">
        <ele>276.344188</ele>
        <time>2026-08-24T19:03:59.738Z</time>
      </trkpt>
      <trkpt lat="48.145346" lon="7.920332">
        <ele>276.834863</ele>
        <time>2026-08-24T19:04:06.134Z</time>
      </trkpt>
      <trkpt lat="48.145975" lon="7.920518">
        <ele>277.856374</ele>
        <time>2026-08-24T19:04:19.180Z</time>
      </trkpt>
      <trkpt lat="48.146660" lon="7.920757">
        <ele>278.605988</ele>
        <time>2026-08-24T19:04:31.797Z</time>
      </trkpt>
      <trkpt lat="48.146804" lon="7.920751">
        <ele>278.705281</ele>
        <time>2026-08-24T19:04:34.198Z</time>
      </trkpt>
      <trkpt lat="48.147471" lon="7.920569">
        <ele>279.172580</ele>
        <time>2026-08-24T19:04:45.206Z</time>
      </trkpt>
      <trkpt lat="48.147520" lon="7.920572">
        <ele>279.206382</ele>
        <time>2026-08-24T19:04:46.053Z</time>
      </trkpt>
      <trkpt lat="48.148040" lon="7.920713">
        <ele>279.575134</ele>
        <time>2026-08-24T19:04:55.855Z</time>
      </trkpt>
      <trkpt lat="48.149463" lon="7.921329">
        <ele>281.191794</ele>
        <time>2026-08-24T19:05:24.631Z</time>
      </trkpt>
      <trkpt lat="48.149579" lon="7.921358">
        <ele>281.320154</ele>
        <time>2026-08-24T19:05:26.659Z</time>
      </trkpt>
      <trkpt lat="48.150216" lon="7.921364">
        <ele>282.857725</ele>
        <time>2026-08-24T19:05:38.453Z</time>
      </trkpt>
      <trkpt lat="48.150473" lon="7.921320">
        <ele>283.625997</ele>
        <time>2026-08-24T19:05:44.501Z</time>
      </trkpt>
      <trkpt lat="48.150585" lon="7.921351">
        <ele>283.964270</ele>
        <time>2026-08-24T19:05:47.390Z</time>
      </trkpt>
      <trkpt lat="48.150695" lon="7.921409">
        <ele>284.310603</ele>
        <time>2026-08-24T19:05:50.467Z</time>
      </trkpt>
      <trkpt lat="48.150921" lon="7.921623">
        <ele>285.104567</ele>
        <time>2026-08-24T19:05:57.986Z</time>
      </trkpt>
      <trkpt lat="48.151211" lon="7.921935">
        <ele>286.164800</ele>
        <time>2026-08-24T19:06:08.890Z</time>
      </trkpt>
      <trkpt lat="48.151590" lon="7.922208">
        <ele>287.654933</ele>
        <time>2026-08-24T19:06:23.938Z</time>
      </trkpt>
      <trkpt lat="48.151764" lon="7.922278">
        <ele>288.426635</ele>
        <time>2026-08-24T19:06:30.776Z</time>
      </trkpt>
      <trkpt lat="48.152110" lon="7.922338">
        <ele>289.918600</ele>
        <time>2026-08-24T19:06:43.951Z</time>
      </trkpt>
      <trkpt lat="48.152303" lon="7.922367">
        <ele>290.749453</ele>
        <time>2026-08-24T19:06:50.979Z</time>
      </trkpt>
      <trkpt lat="48.152471" lon="7.922442">
        <ele>291.500315</ele>
        <time>2026-08-24T19:06:56.990Z</time>
      </trkpt>
      <trkpt lat="48.153127" lon="7.922904">
        <ele>294.593278</ele>
        <time>2026-08-24T19:07:17.054Z</time>
      </trkpt>
      <trkpt lat="48.153583" lon="7.923120">
        <ele>295.901787</ele>
        <time>2026-08-24T19:07:28.381Z</time>
      </trkpt>
      <trkpt lat="48.153711" lon="7.923150">
        <ele>296.256271</ele>
        <time>2026-08-24T19:07:31.393Z</time>
      </trkpt>
      <trkpt lat="48.154088" lon="7.923232">
        <ele>297.298608</ele>
        <time>2026-08-24T19:07:41.427Z</time>
      </trkpt>
      <trkpt lat="48.154415" lon="7.923274">
        <ele>298.196612</ele>
        <time>2026-08-24T19:07:50.470Z</time>
      </trkpt>
      <trkpt lat="48.154634" lon="7.923339">
        <ele>298.807465</ele>
        <time>2026-08-24T19:07:56.397Z</time>
      </trkpt>
      <trkpt lat="48.155137" lon="7.923552">
        <ele>299.869566</ele>
        <time>2026-08-24T19:08:09.855Z</time>
      </trkpt>
      <trkpt lat="48.155206" lon="7.923577">
        <ele>299.967667</ele>
        <time>2026-08-24T19:08:11.618Z</time>
      </trkpt>
      <trkpt lat="48.155534" lon="7.923683">
        <ele>300.431360</ele>
        <time>2026-08-24T19:08:19.030Z</time>
      </trkpt>
      <trkpt lat="48.155563" lon="7.923690">
        <ele>300.471953</ele>
        <time>2026-08-24T19:08:19.615Z</time>
      </trkpt>
      <trkpt lat="48.156143" lon="7.923627">
        <ele>301.275585</ele>
        <time>2026-08-24T19:08:31.543Z</time>
      </trkpt>
      <trkpt lat="48.156357" lon="7.923670">
        <ele>301.573968</ele>
        <time>2026-08-24T19:08:35.777Z</time>
      </trkpt>
      <trkpt lat="48.156378" lon="7.923682">
        <ele>301.605026</ele>
        <time>2026-08-24T19:08:36.197Z</time>
      </trkpt>
      <trkpt lat="48.156515" lon="7.923760">
        <ele>301.807549</ele>
        <time>2026-08-24T19:08:38.701Z</time>
      </trkpt>
      <trkpt lat="48.156627" lon="7.923860">
        <ele>301.976008</ele>
        <time>2026-08-24T19:08:40.581Z</time>
      </trkpt>
      <trkpt lat="48.156673" lon="7.923926">
        <ele>301.936847</ele>
        <time>2026-08-24T19:08:41.456Z</time>
      </trkpt>
      <trkpt lat="48.156732" lon="7.924011">
        <ele>301.886519</ele>
        <time>2026-08-24T19:08:42.464Z</time>
      </trkpt>
      <trkpt lat="48.156762" lon="7.924062">
        <ele>301.858622</ele>
        <time>2026-08-24T19:08:43.037Z</time>
      </trkpt>
      <trkpt lat="48.157024" lon="7.924639">
        <ele>301.572257</ele>
        <time>2026-08-24T19:08:48.678Z</time>
      </trkpt>
      <trkpt lat="48.157135" lon="7.924766">
        <ele>301.486377</ele>
        <time>2026-08-24T19:08:50.290Z</time>
      </trkpt>
      <trkpt lat="48.157315" lon="7.924844">
        <ele>301.371141</ele>
        <time>2026-08-24T19:08:52.537Z</time>
      </trkpt>
      <trkpt lat="48.157468" lon="7.924801">
        <ele>301.275404</ele>
        <time>2026-08-24T19:08:54.648Z</time>
      </trkpt>
      <trkpt lat="48.157592" lon="7.924675">
        <ele>301.183272</ele>
        <time>2026-08-24T19:08:56.931Z</time>
      </trkpt>
      <trkpt lat="48.157740" lon="7.924375">
        <ele>301.030190</ele>
        <time>2026-08-24T19:09:00.608Z</time>
      </trkpt>
      <trkpt lat="48.157826" lon="7.924210">
        <ele>300.944283</ele>
        <time>2026-08-24T19:09:02.356Z</time>
      </trkpt>
      <trkpt lat="48.157916" lon="7.924101">
        <ele>300.873165</ele>
        <time>2026-08-24T19:09:03.690Z</time>
      </trkpt>
      <trkpt lat="48.158050" lon="7.924069">
        <ele>300.801896</ele>
        <time>2026-08-24T19:09:05.232Z</time>
      </trkpt>
      <trkpt lat="48.158148" lon="7.924116">
        <ele>300.747853</ele>
        <time>2026-08-24T19:09:06.404Z</time>
      </trkpt>
      <trkpt lat="48.158586" lon="7.924509">
        <ele>300.479738</ele>
        <time>2026-08-24T19:09:12.921Z</time>
      </trkpt>
      <trkpt lat="48.159445" lon="7.924821">
        <ele>300.015504</ele>
        <time>2026-08-24T19:09:25.698Z</time>
      </trkpt>
      <trkpt lat="48.159646" lon="7.924857">
        <ele>299.939220</ele>
        <time>2026-08-24T19:09:28.382Z</time>
      </trkpt>
      <trkpt lat="48.159913" lon="7.924700">
        <ele>300.020506</ele>
        <time>2026-08-24T19:09:31.963Z</time>
      </trkpt>
      <trkpt lat="48.160344" lon="7.924418">
        <ele>300.153786</ele>
        <time>2026-08-24T19:09:38.058Z</time>
      </trkpt>
      <trkpt lat="48.161343" lon="7.923775">
        <ele>300.670244</ele>
        <time>2026-08-24T19:09:57.071Z</time>
      </trkpt>
      <trkpt lat="48.162033" lon="7.923428">
        <ele>302.708744</ele>
        <time>2026-08-24T19:10:14.326Z</time>
      </trkpt>
      <trkpt lat="48.162636" lon="7.923176">
        <ele>304.462116</ele>
        <time>2026-08-24T19:10:32.876Z</time>
      </trkpt>
      <trkpt lat="48.163349" lon="7.922908">
        <ele>306.371234</ele>
        <time>2026-08-24T19:10:55.207Z</time>
      </trkpt>
      <trkpt lat="48.163658" lon="7.922740">
        <ele>307.159884</ele>
        <time>2026-08-24T19:11:03.343Z</time>
      </trkpt>
      <trkpt lat="48.163895" lon="7.922525">
        <ele>307.824531</ele>
        <time>2026-08-24T19:11:10.614Z</time>
      </trkpt>
      <trkpt lat="48.164126" lon="7.922197">
        <ele>308.587906</ele>
        <time>2026-08-24T19:11:18.720Z</time>
      </trkpt>
      <trkpt lat="48.164334" lon="7.921800">
        <ele>309.395826</ele>
        <time>2026-08-24T19:11:25.822Z</time>
      </trkpt>
      <trkpt lat="48.164472" lon="7.921560">
        <ele>309.809780</ele>
        <time>2026-08-24T19:11:29.571Z</time>
      </trkpt>
      <trkpt lat="48.164623" lon="7.921374">
        <ele>309.884977</ele>
        <time>2026-08-24T19:11:32.578Z</time>
      </trkpt>
      <trkpt lat="48.164752" lon="7.921263">
        <ele>309.942208</ele>
        <time>2026-08-24T19:11:34.729Z</time>
      </trkpt>
      <trkpt lat="48.164974" lon="7.921136">
        <ele>310.033636</ele>
        <time>2026-08-24T19:11:38.002Z</time>
      </trkpt>
      <trkpt lat="48.165187" lon="7.920909">
        <ele>310.134191</ele>
        <time>2026-08-24T19:11:41.910Z</time>
      </trkpt>
      <trkpt lat="48.165512" lon="7.920469">
        <ele>310.302684</ele>
        <time>2026-08-24T19:11:49.435Z</time>
      </trkpt>
      <trkpt lat="48.166295" lon="7.920107">
        <ele>311.223862</ele>
        <time>2026-08-24T19:12:01.643Z</time>
      </trkpt>
      <trkpt lat="48.166532" lon="7.919914">
        <ele>311.797244</ele>
        <time>2026-08-24T19:12:06.781Z</time>
      </trkpt>
      <trkpt lat="48.167280" lon="7.919187">
        <ele>313.692368</ele>
        <time>2026-08-24T19:12:28.278Z</time>
      </trkpt>
      <trkpt lat="48.167572" lon="7.918815">
        <ele>314.695019</ele>
        <time>2026-08-24T19:12:40.318Z</time>
      </trkpt>
      <trkpt lat="48.167670" lon="7.918619">
        <ele>315.370500</ele>
        <time>2026-08-24T19:12:45.963Z</time>
      </trkpt>
      <trkpt lat="48.167814" lon="7.918183">
        <ele>316.712102</ele>
        <time>2026-08-24T19:12:57.826Z</time>
      </trkpt>
      <trkpt lat="48.167941" lon="7.917278">
        <ele>319.262263</ele>
        <time>2026-08-24T19:13:20.100Z</time>
      </trkpt>
      <trkpt lat="48.168023" lon="7.916541">
        <ele>321.322606</ele>
        <time>2026-08-24T19:13:35.004Z</time>
      </trkpt>
      <trkpt lat="48.168044" lon="7.916334">
        <ele>321.829857</ele>
        <time>2026-08-24T19:13:38.609Z</time>
      </trkpt>
      <trkpt lat="48.168136" lon="7.915457">
        <ele>323.174807</ele>
        <time>2026-08-24T19:13:50.282Z</time>
      </trkpt>
      <trkpt lat="48.168162" lon="7.915211">
        <ele>323.552136</ele>
        <time>2026-08-24T19:13:52.779Z</time>
      </trkpt>
      <trkpt lat="48.168193" lon="7.914902">
        <ele>324.025523</ele>
        <time>2026-08-24T19:13:55.530Z</time>
      </trkpt>
      <trkpt lat="48.168287" lon="7.914490">
        <ele>324.685193</ele>
        <time>2026-08-24T19:13:59.684Z</time>
      </trkpt>
      <trkpt lat="48.168675" lon="7.913301">
        <ele>327.972215</ele>
        <time>2026-08-24T19:14:30.486Z</time>
      </trkpt>
      <trkpt lat="48.168698" lon="7.913198">
        <ele>328.381846</ele>
        <time>2026-08-24T19:14:33.646Z</time>
      </trkpt>
      <trkpt lat="48.168716" lon="7.913094">
        <ele>328.787046</ele>
        <time>2026-08-24T19:14:36.444Z</time>
      </trkpt>
      <trkpt lat="48.168736" lon="7.912903">
        <ele>329.516174</ele>
        <time>2026-08-24T19:14:41.638Z</time>
      </trkpt>
      <trkpt lat="48.168740" lon="7.912669">
        <ele>330.398932</ele>
        <time>2026-08-24T19:14:47.192Z</time>
      </trkpt>
      <trkpt lat="48.168691" lon="7.912133">
        <ele>332.439213</ele>
        <time>2026-08-24T19:15:00.326Z</time>
      </trkpt>
      <trkpt lat="48.168771" lon="7.911921">
        <ele>333.357817</ele>
        <time>2026-08-24T19:15:06.936Z</time>
      </trkpt>
      <trkpt lat="48.168849" lon="7.911837">
        <ele>333.900845</ele>
        <time>2026-08-24T19:15:11.265Z</time>
      </trkpt>
      <trkpt lat="48.168932" lon="7.911799">
        <ele>334.391563</ele>
        <time>2026-08-24T19:15:15.435Z</time>
      </trkpt>
      <trkpt lat="48.168999" lon="7.911805">
        <ele>334.771092</ele>
        <time>2026-08-24T19:15:18.472Z</time>
      </trkpt>
      <trkpt lat="48.169051" lon="7.911838">
        <ele>335.090379</ele>
        <time>2026-08-24T19:15:21.059Z</time>
      </trkpt>
      <trkpt lat="48.169088" lon="7.911866">
        <ele>335.324734</ele>
        <time>2026-08-24T19:15:23.145Z</time>
      </trkpt>
      <trkpt lat="48.169120" lon="7.911902">
        <ele>335.550948</ele>
        <time>2026-08-24T19:15:24.908Z</time>
      </trkpt>
      <trkpt lat="48.169149" lon="7.911943">
        <ele>335.776330</ele>
        <time>2026-08-24T19:15:26.404Z</time>
      </trkpt>
      <trkpt lat="48.169195" lon="7.912040">
        <ele>336.288597</ele>
        <time>2026-08-24T19:15:29.563Z</time>
      </trkpt>
      <trkpt lat="48.169218" lon="7.912095">
        <ele>336.602488</ele>
        <time>2026-08-24T19:15:31.093Z</time>
      </trkpt>
      <trkpt lat="48.169241" lon="7.912146">
        <ele>336.900170</ele>
        <time>2026-08-24T19:15:32.510Z</time>
      </trkpt>
      <trkpt lat="48.169440" lon="7.912528">
        <ele>339.243901</ele>
        <time>2026-08-24T19:15:43.332Z</time>
      </trkpt>
      <trkpt lat="48.169548" lon="7.912638">
        <ele>340.190455</ele>
        <time>2026-08-24T19:15:47.215Z</time>
      </trkpt>
      <trkpt lat="48.169736" lon="7.912759">
        <ele>341.673703</ele>
        <time>2026-08-24T19:15:54.865Z</time>
      </trkpt>
      <trkpt lat="48.169891" lon="7.912831">
        <ele>342.850132</ele>
        <time>2026-08-24T19:16:01.241Z</time>
      </trkpt>
      <trkpt lat="48.170087" lon="7.912857">
        <ele>344.276669</ele>
        <time>2026-08-24T19:16:10.312Z</time>
      </trkpt>
      <trkpt lat="48.171468" lon="7.912882">
        <ele>353.798459</ele>
        <time>2026-08-24T19:17:23.331Z</time>
      </trkpt>
      <trkpt lat="48.171867" lon="7.912912">
        <ele>356.423838</ele>
        <time>2026-08-24T19:17:40.063Z</time>
      </trkpt>
      <trkpt lat="48.173287" lon="7.913207">
        <ele>363.727595</ele>
        <time>2026-08-24T19:18:21.014Z</time>
      </trkpt>
      <trkpt lat="48.173585" lon="7.913164">
        <ele>364.859310</ele>
        <time>2026-08-24T19:18:29.260Z</time>
      </trkpt>
      <trkpt lat="48.173816" lon="7.913191">
        <ele>365.735195</ele>
        <time>2026-08-24T19:18:36.586Z</time>
      </trkpt>
      <trkpt lat="48.174004" lon="7.913255">
        <ele>366.463964</ele>
        <time>2026-08-24T19:18:42.835Z</time>
      </trkpt>
      <trkpt lat="48.174297" lon="7.913344">
        <ele>367.594070</ele>
        <time>2026-08-24T19:18:52.531Z</time>
      </trkpt>
      <trkpt lat="48.174753" lon="7.913497">
        <ele>368.674776</ele>
        <time>2026-08-24T19:19:07.769Z</time>
      </trkpt>
      <trkpt lat="48.175069" lon="7.913599">
        <ele>369.404016</ele>
        <time>2026-08-24T19:19:17.026Z</time>
      </trkpt>
      <trkpt lat="48.175843" lon="7.913752">
        <ele>371.165305</ele>
        <time>2026-08-24T19:19:34.192Z</time>
      </trkpt>
      <trkpt lat="48.176198" lon="7.913828">
        <ele>371.748373</ele>
        <time>2026-08-24T19:19:38.726Z</time>
      </trkpt>
      <trkpt lat="48.176389" lon="7.913903">
        <ele>371.801695</ele>
        <time>2026-08-24T19:19:41.174Z</time>
      </trkpt>
      <trkpt lat="48.176950" lon="7.914263">
        <ele>371.966492</ele>
        <time>2026-08-24T19:19:49.422Z</time>
      </trkpt>
      <trkpt lat="48.177099" lon="7.914320">
        <ele>372.008021</ele>
        <time>2026-08-24T19:19:51.794Z</time>
      </trkpt>
      <trkpt lat="48.177347" lon="7.914415">
        <ele>372.077149</ele>
        <time>2026-08-24T19:19:55.991Z</time>
      </trkpt>
      <trkpt lat="48.178095" lon="7.914547">
        <ele>372.556378</ele>
        <time>2026-08-24T19:20:10.247Z</time>
      </trkpt>
      <trkpt lat="48.178282" lon="7.914703">
        <ele>372.820779</ele>
        <time>2026-08-24T19:20:14.867Z</time>
      </trkpt>
      <trkpt lat="48.178421" lon="7.914899">
        <ele>373.056525</ele>
        <time>2026-08-24T19:20:18.955Z</time>
      </trkpt>
      <trkpt lat="48.178796" lon="7.915586">
        <ele>373.788017</ele>
        <time>2026-08-24T19:20:31.140Z</time>
      </trkpt>
      <trkpt lat="48.179003" lon="7.915904">
        <ele>374.154164</ele>
        <time>2026-08-24T19:20:37.009Z</time>
      </trkpt>
      <trkpt lat="48.179200" lon="7.916133">
        <ele>374.429242</ele>
        <time>2026-08-24T19:20:41.839Z</time>
      </trkpt>
      <trkpt lat="48.179977" lon="7.916946">
        <ele>374.539797</ele>
        <time>2026-08-24T19:20:58.554Z</time>
      </trkpt>
      <trkpt lat="48.180267" lon="7.917236">
        <ele>374.580471</ele>
        <time>2026-08-24T19:21:03.510Z</time>
      </trkpt>
      <trkpt lat="48.180673" lon="7.917522">
        <ele>374.632813</ele>
        <time>2026-08-24T19:21:08.762Z</time>
      </trkpt>
      <trkpt lat="48.181074" lon="7.917919">
        <ele>374.917184</ele>
        <time>2026-08-24T19:21:14.654Z</time>
      </trkpt>
      <trkpt lat="48.181148" lon="7.917985">
        <ele>374.970357</ele>
        <time>2026-08-24T19:21:15.796Z</time>
      </trkpt>
      <trkpt lat="48.181286" lon="7.918096">
        <ele>375.067068</ele>
        <time>2026-08-24T19:21:18.448Z</time>
      </trkpt>
      <trkpt lat="48.181708" lon="7.918345">
        <ele>375.347136</ele>
        <time>2026-08-24T19:21:26.388Z</time>
      </trkpt>
      <trkpt lat="48.181920" lon="7.918458">
        <ele>375.486089</ele>
        <time>2026-08-24T19:21:30.674Z</time>
      </trkpt>
      <trkpt lat="48.182634" lon="7.919063">
        <ele>377.089969</ele>
        <time>2026-08-24T19:21:49.923Z</time>
      </trkpt>
      <trkpt lat="48.182705" lon="7.919202">
        <ele>377.483678</ele>
        <time>2026-08-24T19:21:53.101Z</time>
      </trkpt>
      <trkpt lat="48.182896" lon="7.919821">
        <ele>379.017296</ele>
        <time>2026-08-24T19:22:05.155Z</time>
      </trkpt>
      <trkpt lat="48.182977" lon="7.919966">
        <ele>379.442627</ele>
        <time>2026-08-24T19:22:08.579Z</time>
      </trkpt>
      <trkpt lat="48.183091" lon="7.920402">
        <ele>380.495640</ele>
        <time>2026-08-24T19:22:17.549Z</time>
      </trkpt>
      <trkpt lat="48.183127" lon="7.920727">
        <ele>381.236404</ele>
        <time>2026-08-24T19:22:24.298Z</time>
      </trkpt>
      <trkpt lat="48.183161" lon="7.920804">
        <ele>381.444059</ele>
        <time>2026-08-24T19:22:26.341Z</time>
      </trkpt>
      <trkpt lat="48.183211" lon="7.920820">
        <ele>381.616467</ele>
        <time>2026-08-24T19:22:28.028Z</time>
      </trkpt>
      <trkpt lat="48.183261" lon="7.920738">
        <ele>381.939001</ele>
        <time>2026-08-24T19:22:30.509Z</time>
      </trkpt>
      <trkpt lat="48.183262" lon="7.920095">
        <ele>385.319654</ele>
        <time>2026-08-24T19:22:47.016Z</time>
      </trkpt>
      <trkpt lat="48.183115" lon="7.919095">
        <ele>390.703538</ele>
        <time>2026-08-24T19:23:18.931Z</time>
      </trkpt>
      <trkpt lat="48.182922" lon="7.918611">
        <ele>393.668604</ele>
        <time>2026-08-24T19:23:38.970Z</time>
      </trkpt>
      <trkpt lat="48.182943" lon="7.917842">
        <ele>397.809420</ele>
        <time>2026-08-24T19:24:08.449Z</time>
      </trkpt>
      <trkpt lat="48.182674" lon="7.916832">
        <ele>403.841120</ele>
        <time>2026-08-24T19:24:46.778Z</time>
      </trkpt>
      <trkpt lat="48.182637" lon="7.916289">
        <ele>406.868234</ele>
        <time>2026-08-24T19:25:03.516Z</time>
      </trkpt>
      <trkpt lat="48.182651" lon="7.915756">
        <ele>409.826497</ele>
        <time>2026-08-24T19:25:18.256Z</time>
      </trkpt>
      <trkpt lat="48.182775" lon="7.914808">
        <ele>414.279717</ele>
        <time>2026-08-24T19:25:42.542Z</time>
      </trkpt>
      <trkpt lat="48.182780" lon="7.914576">
        <ele>415.291672</ele>
        <time>2026-08-24T19:25:48.108Z</time>
      </trkpt>
      <trkpt lat="48.182757" lon="7.914419">
        <ele>415.992455</ele>
        <time>2026-08-24T19:25:52.024Z</time>
      </trkpt>
      <trkpt lat="48.182675" lon="7.914136">
        <ele>417.337686</ele>
        <time>2026-08-24T19:25:59.986Z</time>
      </trkpt>
      <trkpt lat="48.182095" lon="7.913003">
        <ele>423.365073</ele>
        <time>2026-08-24T19:26:42.329Z</time>
      </trkpt>
      <trkpt lat="48.181987" lon="7.912729">
        <ele>424.425839</ele>
        <time>2026-08-24T19:26:52.046Z</time>
      </trkpt>
      <trkpt lat="48.181870" lon="7.912152">
        <ele>426.435735</ele>
        <time>2026-08-24T19:27:08.506Z</time>
      </trkpt>
      <trkpt lat="48.181796" lon="7.911602">
        <ele>428.305643</ele>
        <time>2026-08-24T19:27:22.024Z</time>
      </trkpt>
      <trkpt lat="48.181821" lon="7.911448">
        <ele>428.833865</ele>
        <time>2026-08-24T19:27:25.479Z</time>
      </trkpt>
      <trkpt lat="48.181880" lon="7.911287">
        <ele>429.446121</ele>
        <time>2026-08-24T19:27:29.265Z</time>
      </trkpt>
      <trkpt lat="48.181970" lon="7.911165">
        <ele>430.052476</ele>
        <time>2026-08-24T19:27:32.755Z</time>
      </trkpt>
      <trkpt lat="48.181868" lon="7.910970">
        <ele>430.878456</ele>
        <time>2026-08-24T19:27:37.256Z</time>
      </trkpt>
      <trkpt lat="48.181624" lon="7.910455">
        <ele>431.685437</ele>
        <time>2026-08-24T19:27:46.688Z</time>
      </trkpt>
      <trkpt lat="48.181465" lon="7.910072">
        <ele>431.661050</ele>
        <time>2026-08-24T19:27:51.388Z</time>
      </trkpt>
      <trkpt lat="48.181353" lon="7.909697">
        <ele>431.638839</ele>
        <time>2026-08-24T19:27:55.126Z</time>
      </trkpt>
      <trkpt lat="48.181126" lon="7.908283">
        <ele>431.557723</ele>
        <time>2026-08-24T19:28:07.146Z</time>
      </trkpt>
      <trkpt lat="48.181028" lon="7.907863">
        <ele>431.062848</ele>
        <time>2026-08-24T19:28:10.567Z</time>
      </trkpt>
      <trkpt lat="48.180546" lon="7.906378">
        <ele>429.226023</ele>
        <time>2026-08-24T19:28:22.823Z</time>
      </trkpt>
      <trkpt lat="48.180328" lon="7.905616">
        <ele>428.402896</ele>
        <time>2026-08-24T19:28:28.857Z</time>
      </trkpt>
      <trkpt lat="48.180276" lon="7.905361">
        <ele>428.220860</ele>
        <time>2026-08-24T19:28:30.846Z</time>
      </trkpt>
      <trkpt lat="48.180257" lon="7.905171">
        <ele>428.089704</ele>
        <time>2026-08-24T19:28:32.362Z</time>
      </trkpt>
      <trkpt lat="48.180263" lon="7.904857">
        <ele>427.875261</ele>
        <time>2026-08-24T19:28:35.017Z</time>
      </trkpt>
      <trkpt lat="48.180324" lon="7.904304">
        <ele>427.492621</ele>
        <time>2026-08-24T19:28:40.427Z</time>
      </trkpt>
      <trkpt lat="48.180424" lon="7.903915">
        <ele>427.208015</ele>
        <time>2026-08-24T19:28:44.476Z</time>
      </trkpt>
      <trkpt lat="48.180540" lon="7.903590">
        <ele>426.956366</ele>
        <time>2026-08-24T19:28:47.727Z</time>
      </trkpt>
      <trkpt lat="48.180566" lon="7.903534">
        <ele>426.909783</ele>
        <time>2026-08-24T19:28:48.263Z</time>
      </trkpt>
      <trkpt lat="48.180693" lon="7.903283">
        <ele>426.647736</ele>
        <time>2026-08-24T19:28:50.817Z</time>
      </trkpt>
      <trkpt lat="48.180972" lon="7.902841">
        <ele>425.425704</ele>
        <time>2026-08-24T19:28:55.307Z</time>
      </trkpt>
      <trkpt lat="48.181100" lon="7.902683">
        <ele>424.926513</ele>
        <time>2026-08-24T19:28:57.027Z</time>
      </trkpt>
      <trkpt lat="48.181424" lon="7.902307">
        <ele>423.692920</ele>
        <time>2026-08-24T19:29:01.100Z</time>
      </trkpt>
      <trkpt lat="48.182065" lon="7.901654">
        <ele>421.359587</ele>
        <time>2026-08-24T19:29:08.472Z</time>
      </trkpt>
      <trkpt lat="48.183496" lon="7.900225">
        <ele>418.635559</ele>
        <time>2026-08-24T19:29:27.966Z</time>
      </trkpt>
      <trkpt lat="48.183567" lon="7.900160">
        <ele>418.505073</ele>
        <time>2026-08-24T19:29:29.361Z</time>
      </trkpt>
      <trkpt lat="48.184519" lon="7.899443">
        <ele>420.068785</ele>
        <time>2026-08-24T19:29:51.136Z</time>
      </trkpt>
      <trkpt lat="48.184812" lon="7.899259">
        <ele>420.548944</ele>
        <time>2026-08-24T19:29:58.719Z</time>
      </trkpt>
      <trkpt lat="48.185267" lon="7.899060">
        <ele>421.282985</ele>
        <time>2026-08-24T19:30:10.362Z</time>
      </trkpt>
      <trkpt lat="48.185651" lon="7.898980">
        <ele>422.027373</ele>
        <time>2026-08-24T19:30:20.492Z</time>
      </trkpt>
      <trkpt lat="48.186392" lon="7.898892">
        <ele>423.454603</ele>
        <time>2026-08-24T19:30:38.818Z</time>
      </trkpt>
      <trkpt lat="48.186554" lon="7.898843">
        <ele>423.771917</ele>
        <time>2026-08-24T19:30:42.190Z</time>
      </trkpt>
      <trkpt lat="48.186638" lon="7.898772">
        <ele>423.957050</ele>
        <time>2026-08-24T19:30:44.024Z</time>
      </trkpt>
      <trkpt lat="48.186701" lon="7.898661">
        <ele>424.143660</ele>
        <time>2026-08-24T19:30:45.903Z</time>
      </trkpt>
      <trkpt lat="48.186744" lon="7.898504">
        <ele>424.360938</ele>
        <time>2026-08-24T19:30:47.989Z</time>
      </trkpt>
      <trkpt lat="48.186732" lon="7.898249">
        <ele>424.660184</ele>
        <time>2026-08-24T19:30:51.051Z</time>
      </trkpt>
      <trkpt lat="48.186556" lon="7.897687">
        <ele>424.808976</ele>
        <time>2026-08-24T19:30:57.932Z</time>
      </trkpt>
      <trkpt lat="48.186377" lon="7.897309">
        <ele>424.920082</ele>
        <time>2026-08-24T19:31:02.773Z</time>
      </trkpt>
      <trkpt lat="48.185901" lon="7.896454">
        <ele>425.187012</ele>
        <time>2026-08-24T19:31:13.332Z</time>
      </trkpt>
      <trkpt lat="48.185378" lon="7.895445">
        <ele>425.728324</ele>
        <time>2026-08-24T19:31:28.426Z</time>
      </trkpt>
      <trkpt lat="48.185077" lon="7.894950">
        <ele>426.084334</ele>
        <time>2026-08-24T19:31:36.518Z</time>
      </trkpt>
      <trkpt lat="48.184678" lon="7.894452">
        <ele>426.498052</ele>
        <time>2026-08-24T19:31:46.105Z</time>
      </trkpt>
      <trkpt lat="48.184289" lon="7.893997">
        <ele>426.835838</ele>
        <time>2026-08-24T19:31:55.609Z</time>
      </trkpt>
      <trkpt lat="48.183743" lon="7.893297">
        <ele>427.206940</ele>
        <time>2026-08-24T19:32:08.881Z</time>
      </trkpt>
      <trkpt lat="48.183602" lon="7.893090">
        <ele>427.308877</ele>
        <time>2026-08-24T19:32:12.168Z</time>
      </trkpt>
      <trkpt lat="48.183496" lon="7.892930">
        <ele>427.386574</ele>
        <time>2026-08-24T19:32:14.546Z</time>
      </trkpt>
      <trkpt lat="48.183219" lon="7.892478">
        <ele>427.598054</ele>
        <time>2026-08-24T19:32:20.358Z</time>
      </trkpt>
      <trkpt lat="48.182964" lon="7.892108">
        <ele>427.812641</ele>
        <time>2026-08-24T19:32:25.360Z</time>
      </trkpt>
      <trkpt lat="48.182851" lon="7.891978">
        <ele>427.905670</ele>
        <time>2026-08-24T19:32:27.427Z</time>
      </trkpt>
      <trkpt lat="48.182473" lon="7.891556">
        <ele>428.213485</ele>
        <time>2026-08-24T19:32:34.503Z</time>
      </trkpt>
      <trkpt lat="48.181632" lon="7.890531">
        <ele>428.957030</ele>
        <time>2026-08-24T19:32:55.620Z</time>
      </trkpt>
      <trkpt lat="48.181453" lon="7.890307">
        <ele>429.174413</ele>
        <time>2026-08-24T19:33:00.903Z</time>
      </trkpt>
      <trkpt lat="48.181431" lon="7.890278">
        <ele>429.201725</ele>
        <time>2026-08-24T19:33:01.567Z</time>
      </trkpt>
      <trkpt lat="48.180988" lon="7.889753">
        <ele>429.728206</ele>
        <time>2026-08-24T19:33:13.516Z</time>
      </trkpt>
      <trkpt lat="48.180443" lon="7.889039">
        <ele>430.402989</ele>
        <time>2026-08-24T19:33:25.873Z</time>
      </trkpt>
      <trkpt lat="48.180167" lon="7.888573">
        <ele>430.492305</ele>
        <time>2026-08-24T19:33:31.672Z</time>
      </trkpt>
      <trkpt lat="48.179911" lon="7.888034">
        <ele>430.458224</ele>
        <time>2026-08-24T19:33:37.654Z</time>
      </trkpt>
      <trkpt lat="48.179797" lon="7.887705">
        <ele>430.439129</ele>
        <time>2026-08-24T19:33:40.845Z</time>
      </trkpt>
      <trkpt lat="48.179662" lon="7.887101">
        <ele>430.406322</ele>
        <time>2026-08-24T19:33:46.274Z</time>
      </trkpt>
      <trkpt lat="48.179556" lon="7.886549">
        <ele>430.376738</ele>
        <time>2026-08-24T19:33:52.369Z</time>
      </trkpt>
      <trkpt lat="48.179459" lon="7.886043">
        <ele>430.548282</ele>
        <time>2026-08-24T19:33:58.829Z</time>
      </trkpt>
      <trkpt lat="48.179372" lon="7.885583">
        <ele>430.707749</ele>
        <time>2026-08-24T19:34:05.675Z</time>
      </trkpt>
      <trkpt lat="48.179575" lon="7.885402">
        <ele>430.825872</ele>
        <time>2026-08-24T19:34:11.283Z</time>
      </trkpt>
      <trkpt lat="48.180354" lon="7.884364">
        <ele>430.935964</ele>
        <time>2026-08-24T19:34:28.144Z</time>
      </trkpt>
      <trkpt lat="48.180699" lon="7.883950">
        <ele>429.881975</ele>
        <time>2026-08-24T19:34:32.843Z</time>
      </trkpt>
      <trkpt lat="48.180882" lon="7.883799">
        <ele>429.383734</ele>
        <time>2026-08-24T19:34:34.985Z</time>
      </trkpt>
      <trkpt lat="48.181287" lon="7.883618">
        <ele>428.375656</ele>
        <time>2026-08-24T19:34:39.234Z</time>
      </trkpt>
      <trkpt lat="48.181437" lon="7.883546">
        <ele>427.999964</ele>
        <time>2026-08-24T19:34:40.792Z</time>
      </trkpt>
      <trkpt lat="48.181692" lon="7.883354">
        <ele>427.319328</ele>
        <time>2026-08-24T19:34:43.685Z</time>
      </trkpt>
      <trkpt lat="48.182645" lon="7.882457">
        <ele>423.348330</ele>
        <time>2026-08-24T19:34:55.589Z</time>
      </trkpt>
      <trkpt lat="48.182755" lon="7.882344">
        <ele>422.856082</ele>
        <time>2026-08-24T19:34:56.922Z</time>
      </trkpt>
      <trkpt lat="48.182798" lon="7.882253">
        <ele>422.581521</ele>
        <time>2026-08-24T19:34:57.662Z</time>
      </trkpt>
      <trkpt lat="48.182840" lon="7.882090">
        <ele>422.151352</ele>
        <time>2026-08-24T19:34:58.794Z</time>
      </trkpt>
      <trkpt lat="48.182876" lon="7.881713">
        <ele>421.213842</ele>
        <time>2026-08-24T19:35:01.214Z</time>
      </trkpt>
      <trkpt lat="48.182974" lon="7.880527">
        <ele>417.152909</ele>
        <time>2026-08-24T19:35:08.521Z</time>
      </trkpt>
      <trkpt lat="48.183039" lon="7.880206">
        <ele>415.881218</ele>
        <time>2026-08-24T19:35:10.526Z</time>
      </trkpt>
      <trkpt lat="48.183709" lon="7.878871">
        <ele>409.802069</ele>
        <time>2026-08-24T19:35:20.798Z</time>
      </trkpt>
      <trkpt lat="48.183743" lon="7.878612">
        <ele>409.247448</ele>
        <time>2026-08-24T19:35:22.504Z</time>
      </trkpt>
      <trkpt lat="48.183578" lon="7.877498">
        <ele>406.849813</ele>
        <time>2026-08-24T19:35:30.299Z</time>
      </trkpt>
      <trkpt lat="48.183420" lon="7.876763">
        <ele>405.227251</ele>
        <time>2026-08-24T19:35:35.995Z</time>
      </trkpt>
      <trkpt lat="48.183249" lon="7.876073">
        <ele>403.584619</ele>
        <time>2026-08-24T19:35:41.283Z</time>
      </trkpt>
      <trkpt lat="48.183224" lon="7.876021">
        <ele>403.433139</ele>
        <time>2026-08-24T19:35:41.749Z</time>
      </trkpt>
      <trkpt lat="48.183202" lon="7.875982">
        <ele>403.312431</ele>
        <time>2026-08-24T19:35:42.108Z</time>
      </trkpt>
      <trkpt lat="48.182484" lon="7.875092">
        <ele>400.011395</ele>
        <time>2026-08-24T19:35:51.568Z</time>
      </trkpt>
      <trkpt lat="48.182214" lon="7.874611">
        <ele>398.525696</ele>
        <time>2026-08-24T19:35:55.573Z</time>
      </trkpt>
      <trkpt lat="48.182100" lon="7.874354">
        <ele>397.621575</ele>
        <time>2026-08-24T19:35:57.522Z</time>
      </trkpt>
      <trkpt lat="48.180566" lon="7.870550">
        <ele>381.429812</ele>
        <time>2026-08-24T19:36:24.741Z</time>
      </trkpt>
      <trkpt lat="48.180487" lon="7.870151">
        <ele>380.024527</ele>
        <time>2026-08-24T19:36:27.372Z</time>
      </trkpt>
      <trkpt lat="48.180485" lon="7.869835">
        <ele>378.957563</ele>
        <time>2026-08-24T19:36:29.436Z</time>
      </trkpt>
      <trkpt lat="48.180518" lon="7.869650">
        <ele>378.598189</ele>
        <time>2026-08-24T19:36:30.745Z</time>
      </trkpt>
      <trkpt lat="48.180722" lon="7.869013">
        <ele>378.394045</ele>
        <time>2026-08-24T19:36:36.161Z</time>
      </trkpt>
      <trkpt lat="48.180987" lon="7.868779">
        <ele>378.260812</ele>
        <time>2026-08-24T19:36:42.811Z</time>
      </trkpt>
      <trkpt lat="48.181504" lon="7.868534">
        <ele>378.025906</ele>
        <time>2026-08-24T19:36:54.610Z</time>
      </trkpt>
      <trkpt lat="48.181756" lon="7.868339">
        <ele>377.903052</ele>
        <time>2026-08-24T19:36:59.478Z</time>
      </trkpt>
      <trkpt lat="48.181900" lon="7.868156">
        <ele>377.568111</ele>
        <time>2026-08-24T19:37:01.923Z</time>
      </trkpt>
      <trkpt lat="48.181927" lon="7.868065">
        <ele>377.242299</ele>
        <time>2026-08-24T19:37:02.787Z</time>
      </trkpt>
      <trkpt lat="48.181918" lon="7.867970">
        <ele>376.928421</ele>
        <time>2026-08-24T19:37:03.466Z</time>
      </trkpt>
      <trkpt lat="48.181847" lon="7.867927">
        <ele>376.552772</ele>
        <time>2026-08-24T19:37:04.368Z</time>
      </trkpt>
      <trkpt lat="48.181750" lon="7.867937">
        <ele>376.075774</ele>
        <time>2026-08-24T19:37:05.359Z</time>
      </trkpt>
      <trkpt lat="48.181460" lon="7.867917">
        <ele>374.651551</ele>
        <time>2026-08-24T19:37:08.217Z</time>
      </trkpt>
      <trkpt lat="48.181216" lon="7.867828">
        <ele>373.419609</ele>
        <time>2026-08-24T19:37:10.570Z</time>
      </trkpt>
      <trkpt lat="48.181030" lon="7.867714">
        <ele>372.433848</ele>
        <time>2026-08-24T19:37:12.369Z</time>
      </trkpt>
      <trkpt lat="48.180752" lon="7.867407">
        <ele>370.740151</ele>
        <time>2026-08-24T19:37:15.391Z</time>
      </trkpt>
      <trkpt lat="48.180697" lon="7.867281">
        <ele>370.247515</ele>
        <time>2026-08-24T19:37:16.276Z</time>
      </trkpt>
      <trkpt lat="48.180617" lon="7.866959">
        <ele>369.123446</ele>
        <time>2026-08-24T19:37:18.310Z</time>
      </trkpt>
      <trkpt lat="48.180568" lon="7.866637">
        <ele>368.163470</ele>
        <time>2026-08-24T19:37:20.292Z</time>
      </trkpt>
      <trkpt lat="48.180391" lon="7.865078">
        <ele>363.626813</ele>
        <time>2026-08-24T19:37:30.572Z</time>
      </trkpt>
      <trkpt lat="48.180323" lon="7.864793">
        <ele>362.758468</ele>
        <time>2026-08-24T19:37:32.772Z</time>
      </trkpt>
      <trkpt lat="48.179949" lon="7.863761">
        <ele>359.170613</ele>
        <time>2026-08-24T19:37:40.907Z</time>
      </trkpt>
      <trkpt lat="48.179384" lon="7.862502">
        <ele>354.315355</ele>
        <time>2026-08-24T19:37:50.464Z</time>
      </trkpt>
      <trkpt lat="48.178674" lon="7.861066">
        <ele>348.070038</ele>
        <time>2026-08-24T19:38:01.201Z</time>
      </trkpt>
      <trkpt lat="48.178606" lon="7.860861">
        <ele>347.242564</ele>
        <time>2026-08-24T19:38:02.597Z</time>
      </trkpt>
      <trkpt lat="48.178583" lon="7.860653">
        <ele>346.480587</ele>
        <time>2026-08-24T19:38:03.893Z</time>
      </trkpt>
      <trkpt lat="48.178622" lon="7.860345">
        <ele>345.347586</ele>
        <time>2026-08-24T19:38:05.853Z</time>
      </trkpt>
      <trkpt lat="48.178667" lon="7.860180">
        <ele>344.703328</ele>
        <time>2026-08-24T19:38:06.990Z</time>
      </trkpt>
      <trkpt lat="48.178972" lon="7.859196">
        <ele>342.413530</ele>
        <time>2026-08-24T19:38:14.310Z</time>
      </trkpt>
      <trkpt lat="48.179640" lon="7.856682">
        <ele>340.956297</ele>
        <time>2026-08-24T19:38:38.234Z</time>
      </trkpt>
      <trkpt lat="48.179806" lon="7.856030">
        <ele>341.317036</ele>
        <time>2026-08-24T19:38:45.483Z</time>
      </trkpt>
      <trkpt lat="48.179862" lon="7.855712">
        <ele>341.487040</ele>
        <time>2026-08-24T19:38:48.645Z</time>
      </trkpt>
      <trkpt lat="48.179894" lon="7.855395">
        <ele>341.652759</ele>
        <time>2026-08-24T19:38:52.150Z</time>
      </trkpt>
      <trkpt lat="48.179885" lon="7.855116">
        <ele>341.797137</ele>
        <time>2026-08-24T19:38:56.025Z</time>
      </trkpt>
      <trkpt lat="48.179861" lon="7.854875">
        <ele>341.923088</ele>
        <time>2026-08-24T19:38:59.927Z</time>
      </trkpt>
      <trkpt lat="48.179847" lon="7.854763">
        <ele>341.981987</ele>
        <time>2026-08-24T19:39:01.659Z</time>
      </trkpt>
      <trkpt lat="48.179754" lon="7.854164">
        <ele>344.002856</ele>
        <time>2026-08-24T19:39:12.898Z</time>
      </trkpt>
      <trkpt lat="48.179729" lon="7.853999">
        <ele>344.668511</ele>
        <time>2026-08-24T19:39:16.707Z</time>
      </trkpt>
      <trkpt lat="48.179773" lon="7.853345">
        <ele>347.254402</ele>
        <time>2026-08-24T19:39:33.273Z</time>
      </trkpt>
      <trkpt lat="48.179892" lon="7.853327">
        <ele>347.960044</ele>
        <time>2026-08-24T19:39:39.068Z</time>
      </trkpt>
      <trkpt lat="48.179982" lon="7.852983">
        <ele>349.413774</ele>
        <time>2026-08-24T19:39:51.825Z</time>
      </trkpt>
      <trkpt lat="48.179933" lon="7.852838">
        <ele>350.053273</ele>
        <time>2026-08-24T19:39:57.804Z</time>
      </trkpt>
      <trkpt lat="48.179898" lon="7.852824">
        <ele>350.266986</ele>
        <time>2026-08-24T19:39:59.755Z</time>
      </trkpt>
      <trkpt lat="48.180260" lon="7.851933">
        <ele>353.869285</ele>
        <time>2026-08-24T19:40:33.045Z</time>
      </trkpt>
      <trkpt lat="48.180556" lon="7.850961">
        <ele>356.843685</ele>
        <time>2026-08-24T19:40:57.219Z</time>
      </trkpt>
      <trkpt lat="48.180674" lon="7.850446">
        <ele>358.359468</ele>
        <time>2026-08-24T19:41:06.421Z</time>
      </trkpt>
      <trkpt lat="48.180849" lon="7.849748">
        <ele>360.147493</ele>
        <time>2026-08-24T19:41:17.245Z</time>
      </trkpt>
      <trkpt lat="48.181089" lon="7.849029">
        <ele>360.024517</ele>
        <time>2026-08-24T19:41:26.232Z</time>
      </trkpt>
      <trkpt lat="48.181352" lon="7.848467">
        <ele>359.919506</ele>
        <time>2026-08-24T19:41:32.145Z</time>
      </trkpt>
      <trkpt lat="48.181538" lon="7.848001">
        <ele>359.836441</ele>
        <time>2026-08-24T19:41:36.617Z</time>
      </trkpt>
      <trkpt lat="48.181636" lon="7.847678">
        <ele>359.782167</ele>
        <time>2026-08-24T19:41:39.384Z</time>
      </trkpt>
      <trkpt lat="48.181680" lon="7.847460">
        <ele>359.770824</ele>
        <time>2026-08-24T19:41:41.117Z</time>
      </trkpt>
      <trkpt lat="48.181684" lon="7.846975">
        <ele>360.372541</ele>
        <time>2026-08-24T19:41:44.903Z</time>
      </trkpt>
      <trkpt lat="48.181613" lon="7.846602">
        <ele>360.853756</ele>
        <time>2026-08-24T19:41:48.157Z</time>
      </trkpt>
      <trkpt lat="48.181539" lon="7.846350">
        <ele>361.195353</ele>
        <time>2026-08-24T19:41:50.977Z</time>
      </trkpt>
      <trkpt lat="48.181325" lon="7.845925">
        <ele>361.856043</ele>
        <time>2026-08-24T19:41:59.280Z</time>
      </trkpt>
      <trkpt lat="48.180867" lon="7.845239">
        <ele>363.060363</ele>
        <time>2026-08-24T19:42:22.000Z</time>
      </trkpt>
      <trkpt lat="48.180433" lon="7.844483">
        <ele>363.871817</ele>
        <time>2026-08-24T19:42:44.339Z</time>
      </trkpt>
      <trkpt lat="48.180129" lon="7.843732">
        <ele>364.575204</ele>
        <time>2026-08-24T19:42:57.650Z</time>
      </trkpt>
      <trkpt lat="48.180058" lon="7.843525">
        <ele>364.761573</ele>
        <time>2026-08-24T19:42:59.657Z</time>
      </trkpt>
      <trkpt lat="48.180021" lon="7.843422">
        <ele>364.855243</ele>
        <time>2026-08-24T19:43:00.507Z</time>
      </trkpt>
      <trkpt lat="48.179778" lon="7.842721">
        <ele>364.286975</ele>
        <time>2026-08-24T19:43:05.621Z</time>
      </trkpt>
      <trkpt lat="48.179587" lon="7.842248">
        <ele>362.435981</ele>
        <time>2026-08-24T19:43:09.097Z</time>
      </trkpt>
      <trkpt lat="48.179311" lon="7.841672">
        <ele>360.061701</ele>
        <time>2026-08-24T19:43:13.599Z</time>
      </trkpt>
      <trkpt lat="48.178978" lon="7.840981">
        <ele>357.207815</ele>
        <time>2026-08-24T19:43:18.880Z</time>
      </trkpt>
      <trkpt lat="48.178630" lon="7.840475">
        <ele>353.906759</ele>
        <time>2026-08-24T19:43:23.276Z</time>
      </trkpt>
      <trkpt lat="48.178533" lon="7.840397">
        <ele>353.024063</ele>
        <time>2026-08-24T19:43:24.277Z</time>
      </trkpt>
      <trkpt lat="48.178364" lon="7.840260">
        <ele>351.483372</ele>
        <time>2026-08-24T19:43:26.008Z</time>
      </trkpt>
      <trkpt lat="48.178183" lon="7.840115">
        <ele>349.837656</ele>
        <time>2026-08-24T19:43:27.828Z</time>
      </trkpt>
      <trkpt lat="48.177806" lon="7.839977">
        <ele>346.725421</ele>
        <time>2026-08-24T19:43:31.230Z</time>
      </trkpt>
      <trkpt lat="48.177442" lon="7.839734">
        <ele>343.530027</ele>
        <time>2026-08-24T19:43:34.668Z</time>
      </trkpt>
      <trkpt lat="48.176850" lon="7.839025">
        <ele>337.030213</ele>
        <time>2026-08-24T19:43:41.240Z</time>
      </trkpt>
      <trkpt lat="48.176600" lon="7.838737">
        <ele>334.255504</ele>
        <time>2026-08-24T19:43:43.989Z</time>
      </trkpt>
      <trkpt lat="48.176148" lon="7.838352">
        <ele>329.680223</ele>
        <time>2026-08-24T19:43:48.507Z</time>
      </trkpt>
      <trkpt lat="48.175930" lon="7.838206">
        <ele>327.578815</ele>
        <time>2026-08-24T19:43:50.607Z</time>
      </trkpt>
      <trkpt lat="48.175800" lon="7.838119">
        <ele>326.325835</ele>
        <time>2026-08-24T19:43:51.858Z</time>
      </trkpt>
      <trkpt lat="48.175640" lon="7.838016">
        <ele>325.212532</ele>
        <time>2026-08-24T19:43:53.398Z</time>
      </trkpt>
      <trkpt lat="48.175256" lon="7.837862">
        <ele>322.959351</ele>
        <time>2026-08-24T19:43:56.952Z</time>
      </trkpt>
      <trkpt lat="48.174992" lon="7.837742">
        <ele>321.395642</ele>
        <time>2026-08-24T19:43:59.461Z</time>
      </trkpt>
      <trkpt lat="48.174683" lon="7.837519">
        <ele>319.451804</ele>
        <time>2026-08-24T19:44:02.630Z</time>
      </trkpt>
      <trkpt lat="48.174173" lon="7.837049">
        <ele>316.058601</ele>
        <time>2026-08-24T19:44:08.445Z</time>
      </trkpt>
      <trkpt lat="48.173752" lon="7.836469">
        <ele>314.671952</ele>
        <time>2026-08-24T19:44:14.398Z</time>
      </trkpt>
      <trkpt lat="48.173241" lon="7.835678">
        <ele>313.118632</ele>
        <time>2026-08-24T19:44:23.399Z</time>
      </trkpt>
      <trkpt lat="48.173068" lon="7.835217">
        <ele>312.372525</ele>
        <time>2026-08-24T19:44:27.726Z</time>
      </trkpt>
      <trkpt lat="48.173002" lon="7.834955">
        <ele>311.977495</ele>
        <time>2026-08-24T19:44:29.812Z</time>
      </trkpt>
      <trkpt lat="48.172970" lon="7.834596">
        <ele>310.282697</ele>
        <time>2026-08-24T19:44:32.292Z</time>
      </trkpt>
      <trkpt lat="48.172955" lon="7.834359">
        <ele>309.159182</ele>
        <time>2026-08-24T19:44:33.842Z</time>
      </trkpt>
      <trkpt lat="48.172968" lon="7.834072">
        <ele>307.801605</ele>
        <time>2026-08-24T19:44:35.646Z</time>
      </trkpt>
      <trkpt lat="48.173081" lon="7.833454">
        <ele>304.777401</ele>
        <time>2026-08-24T19:44:39.499Z</time>
      </trkpt>
      <trkpt lat="48.173288" lon="7.832532">
        <ele>300.186201</ele>
        <time>2026-08-24T19:44:45.101Z</time>
      </trkpt>
      <trkpt lat="48.173436" lon="7.831842">
        <ele>295.553938</ele>
        <time>2026-08-24T19:44:49.204Z</time>
      </trkpt>
      <trkpt lat="48.173479" lon="7.831578">
        <ele>293.644116</ele>
        <time>2026-08-24T19:44:50.734Z</time>
      </trkpt>
      <trkpt lat="48.173532" lon="7.830804">
        <ele>288.176158</ele>
        <time>2026-08-24T19:44:55.166Z</time>
      </trkpt>
      <trkpt lat="48.173480" lon="7.830083">
        <ele>283.079716</ele>
        <time>2026-08-24T19:44:59.321Z</time>
      </trkpt>
      <trkpt lat="48.173460" lon="7.829717">
        <ele>280.498994</ele>
        <time>2026-08-24T19:45:01.431Z</time>
      </trkpt>
      <trkpt lat="48.173430" lon="7.829063">
        <ele>276.706489</ele>
        <time>2026-08-24T19:45:05.210Z</time>
      </trkpt>
      <trkpt lat="48.173458" lon="7.828661">
        <ele>274.392195</ele>
        <time>2026-08-24T19:45:07.542Z</time>
      </trkpt>
      <trkpt lat="48.173727" lon="7.827211">
        <ele>265.774532</ele>
        <time>2026-08-24T19:45:16.401Z</time>
      </trkpt>
      <trkpt lat="48.173835" lon="7.826387">
        <ele>261.199078</ele>
        <time>2026-08-24T19:45:21.401Z</time>
      </trkpt>
      <trkpt lat="48.173858" lon="7.826100">
        <ele>259.643306</ele>
        <time>2026-08-24T19:45:23.121Z</time>
      </trkpt>
      <trkpt lat="48.173884" lon="7.825681">
        <ele>257.378472</ele>
        <time>2026-08-24T19:45:25.589Z</time>
      </trkpt>
      <trkpt lat="48.173942" lon="7.824550">
        <ele>251.273370</ele>
        <time>2026-08-24T19:45:32.232Z</time>
      </trkpt>
      <trkpt lat="48.173961" lon="7.824344">
        <ele>250.215923</ele>
        <time>2026-08-24T19:45:33.436Z</time>
      </trkpt>
      <trkpt lat="48.174109" lon="7.823458">
        <ele>247.035090</ele>
        <time>2026-08-24T19:45:38.761Z</time>
      </trkpt>
      <trkpt lat="48.174302" lon="7.822755">
        <ele>244.387545</ele>
        <time>2026-08-24T19:45:43.433Z</time>
      </trkpt>
      <trkpt lat="48.174454" lon="7.822270">
        <ele>242.521314</ele>
        <time>2026-08-24T19:45:47.115Z</time>
      </trkpt>
      <trkpt lat="48.174502" lon="7.822078">
        <ele>241.807236</ele>
        <time>2026-08-24T19:45:48.599Z</time>
      </trkpt>
      <trkpt lat="48.174535" lon="7.821891">
        <ele>241.133596</ele>
        <time>2026-08-24T19:45:50.056Z</time>
      </trkpt>
      <trkpt lat="48.174681" lon="7.821623">
        <ele>241.370555</ele>
        <time>2026-08-24T19:45:52.916Z</time>
      </trkpt>
      <trkpt lat="48.174804" lon="7.821451">
        <ele>241.748833</ele>
        <time>2026-08-24T19:45:55.336Z</time>
      </trkpt>
      <trkpt lat="48.174828" lon="7.821399">
        <ele>241.843687</ele>
        <time>2026-08-24T19:45:56.074Z</time>
      </trkpt>
      <trkpt lat="48.174853" lon="7.821299">
        <ele>242.003873</ele>
        <time>2026-08-24T19:45:57.444Z</time>
      </trkpt>
      <trkpt lat="48.174855" lon="7.821140">
        <ele>242.242401</ele>
        <time>2026-08-24T19:45:59.769Z</time>
      </trkpt>
      <trkpt lat="48.174837" lon="7.820410">
        <ele>243.338087</ele>
        <time>2026-08-24T19:46:15.138Z</time>
      </trkpt>
      <trkpt lat="48.174907" lon="7.819885">
        <ele>244.141128</ele>
        <time>2026-08-24T19:46:28.097Z</time>
      </trkpt>
      <trkpt lat="48.174982" lon="7.819599">
        <ele>244.602079</ele>
        <time>2026-08-24T19:46:34.736Z</time>
      </trkpt>
      <trkpt lat="48.175159" lon="7.819169">
        <ele>244.390790</ele>
        <time>2026-08-24T19:46:42.940Z</time>
      </trkpt>
      <trkpt lat="48.175326" lon="7.818884">
        <ele>243.500934</ele>
        <time>2026-08-24T19:46:48.037Z</time>
      </trkpt>
      <trkpt lat="48.175444" lon="7.818732">
        <ele>242.953805</ele>
        <time>2026-08-24T19:46:50.670Z</time>
      </trkpt>
      <trkpt lat="48.175704" lon="7.818479">
        <ele>241.863675</ele>
        <time>2026-08-24T19:46:54.419Z</time>
      </trkpt>
      <trkpt lat="48.176076" lon="7.818278">
        <ele>240.472933</ele>
        <time>2026-08-24T19:46:58.105Z</time>
      </trkpt>
      <trkpt lat="48.176332" lon="7.818209">
        <ele>239.558099</ele>
        <time>2026-08-24T19:47:00.376Z</time>
      </trkpt>
      <trkpt lat="48.176786" lon="7.818160">
        <ele>237.046327</ele>
        <time>2026-08-24T19:47:04.274Z</time>
      </trkpt>
      <trkpt lat="48.177119" lon="7.818143">
        <ele>234.346504</ele>
        <time>2026-08-24T19:47:07.120Z</time>
      </trkpt>
      <trkpt lat="48.177446" lon="7.818068">
        <ele>231.666052</ele>
        <time>2026-08-24T19:47:09.990Z</time>
      </trkpt>
      <trkpt lat="48.177735" lon="7.817891">
        <ele>229.136556</ele>
        <time>2026-08-24T19:47:12.714Z</time>
      </trkpt>
      <trkpt lat="48.178056" lon="7.817537">
        <ele>225.907961</ele>
        <time>2026-08-24T19:47:16.277Z</time>
      </trkpt>
      <trkpt lat="48.178160" lon="7.817378">
        <ele>224.704552</ele>
        <time>2026-08-24T19:47:17.669Z</time>
      </trkpt>
      <trkpt lat="48.178187" lon="7.817333">
        <ele>224.377472</ele>
        <time>2026-08-24T19:47:18.053Z</time>
      </trkpt>
      <trkpt lat="48.178255" lon="7.817231">
        <ele>223.912877</ele>
        <time>2026-08-24T19:47:18.964Z</time>
      </trkpt>
      <trkpt lat="48.178393" lon="7.817076">
        <ele>223.425357</ele>
        <time>2026-08-24T19:47:20.630Z</time>
      </trkpt>
      <trkpt lat="48.178667" lon="7.816863">
        <ele>222.552687</ele>
        <time>2026-08-24T19:47:23.722Z</time>
      </trkpt>
      <trkpt lat="48.178786" lon="7.816791">
        <ele>222.189848</ele>
        <time>2026-08-24T19:47:25.060Z</time>
      </trkpt>
      <trkpt lat="48.179212" lon="7.816613">
        <ele>220.939403</ele>
        <time>2026-08-24T19:47:29.906Z</time>
      </trkpt>
      <trkpt lat="48.179464" lon="7.816429">
        <ele>220.146878</ele>
        <time>2026-08-24T19:47:33.003Z</time>
      </trkpt>
      <trkpt lat="48.179585" lon="7.816218">
        <ele>219.622159</ele>
        <time>2026-08-24T19:47:35.111Z</time>
      </trkpt>
      <trkpt lat="48.179851" lon="7.815756">
        <ele>218.516659</ele>
        <time>2026-08-24T19:47:39.964Z</time>
      </trkpt>
      <trkpt lat="48.180074" lon="7.815409">
        <ele>217.686619</ele>
        <time>2026-08-24T19:47:43.547Z</time>
      </trkpt>
      <trkpt lat="48.180134" lon="7.815344">
        <ele>217.495435</ele>
        <time>2026-08-24T19:47:44.335Z</time>
      </trkpt>
      <trkpt lat="48.180241" lon="7.815143">
        <ele>217.052455</ele>
        <time>2026-08-24T19:47:46.136Z</time>
      </trkpt>
      <trkpt lat="48.180258" lon="7.815044">
        <ele>216.876383</ele>
        <time>2026-08-24T19:47:46.843Z</time>
      </trkpt>
      <trkpt lat="48.180507" lon="7.814534">
        <ele>215.787710</ele>
        <time>2026-08-24T19:47:51.117Z</time>
      </trkpt>
      <trkpt lat="48.180587" lon="7.814379">
        <ele>215.450121</ele>
        <time>2026-08-24T19:47:52.402Z</time>
      </trkpt>
      <trkpt lat="48.180981" lon="7.813655">
        <ele>214.500046</ele>
        <time>2026-08-24T19:47:58.695Z</time>
      </trkpt>
      <trkpt lat="48.181152" lon="7.813353">
        <ele>214.701362</ele>
        <time>2026-08-24T19:48:01.440Z</time>
      </trkpt>
      <trkpt lat="48.181357" lon="7.813011">
        <ele>214.935035</ele>
        <time>2026-08-24T19:48:05.082Z</time>
      </trkpt>
      <trkpt lat="48.181705" lon="7.812405">
        <ele>215.341411</ele>
        <time>2026-08-24T19:48:14.886Z</time>
      </trkpt>
      <trkpt lat="48.181830" lon="7.812346">
        <ele>215.441273</ele>
        <time>2026-08-24T19:48:18.433Z</time>
      </trkpt>
      <trkpt lat="48.182007" lon="7.812316">
        <ele>215.577015</ele>
        <time>2026-08-24T19:48:23.886Z</time>
      </trkpt>
      <trkpt lat="48.182124" lon="7.812382">
        <ele>215.672273</ele>
        <time>2026-08-24T19:48:28.106Z</time>
      </trkpt>
      <trkpt lat="48.182226" lon="7.812365">
        <ele>216.068198</ele>
        <time>2026-08-24T19:48:31.876Z</time>
      </trkpt>
      <trkpt lat="48.182470" lon="7.812271">
        <ele>218.292661</ele>
        <time>2026-08-24T19:48:41.852Z</time>
      </trkpt>
      <trkpt lat="48.182569" lon="7.812249">
        <ele>219.176374</ele>
        <time>2026-08-24T19:48:46.241Z</time>
      </trkpt>
      <trkpt lat="48.182990" lon="7.812252">
        <ele>222.893845</ele>
        <time>2026-08-24T19:49:07.301Z</time>
      </trkpt>
      <trkpt lat="48.183613" lon="7.812075">
        <ele>228.492763</ele>
        <time>2026-08-24T19:49:42.646Z</time>
      </trkpt>
      <trkpt lat="48.184086" lon="7.811925">
        <ele>232.903481</ele>
        <time>2026-08-24T19:50:11.784Z</time>
      </trkpt>
      <trkpt lat="48.184268" lon="7.811904">
        <ele>234.712437</ele>
        <time>2026-08-24T19:50:22.386Z</time>
      </trkpt>
      <trkpt lat="48.184741" lon="7.812037">
        <ele>239.481549</ele>
        <time>2026-08-24T19:50:51.336Z</time>
      </trkpt>
      <trkpt lat="48.185099" lon="7.812172">
        <ele>243.139756</ele>
        <time>2026-08-24T19:51:14.330Z</time>
      </trkpt>
      <trkpt lat="48.185296" lon="7.812247">
        <ele>245.153944</ele>
        <time>2026-08-24T19:51:26.103Z</time>
      </trkpt>
      <trkpt lat="48.186137" lon="7.812565">
        <ele>250.176167</ele>
        <time>2026-08-24T19:52:03.040Z</time>
      </trkpt>
      <trkpt lat="48.186417" lon="7.812672">
        <ele>250.672447</ele>
        <time>2026-08-24T19:52:11.200Z</time>
      </trkpt>
      <trkpt lat="48.186779" lon="7.812744">
        <ele>251.299646</ele>
        <time>2026-08-24T19:52:19.922Z</time>
      </trkpt>
      <trkpt lat="48.187177" lon="7.812743">
        <ele>251.983236</ele>
        <time>2026-08-24T19:52:24.797Z</time>
      </trkpt>
      <trkpt lat="48.187363" lon="7.812726">
        <ele>252.303295</ele>
        <time>2026-08-24T19:52:26.653Z</time>
      </trkpt>
      <trkpt lat="48.187683" lon="7.812720">
        <ele>251.135837</ele>
        <time>2026-08-24T19:52:29.700Z</time>
      </trkpt>
      <trkpt lat="48.187979" lon="7.812825">
        <ele>248.992960</ele>
        <time>2026-08-24T19:52:32.539Z</time>
      </trkpt>
      <trkpt lat="48.188306" lon="7.813080">
        <ele>246.396468</ele>
        <time>2026-08-24T19:52:35.927Z</time>
      </trkpt>
      <trkpt lat="48.189270" lon="7.814016">
        <ele>237.588720</ele>
        <time>2026-08-24T19:52:45.926Z</time>
      </trkpt>
      <trkpt lat="48.189427" lon="7.814123">
        <ele>235.807176</ele>
        <time>2026-08-24T19:52:47.409Z</time>
      </trkpt>
      <trkpt lat="48.189867" lon="7.814249">
        <ele>231.179420</ele>
        <time>2026-08-24T19:52:51.248Z</time>
      </trkpt>
      <trkpt lat="48.190155" lon="7.814207">
        <ele>228.190050</ele>
        <time>2026-08-24T19:52:53.732Z</time>
      </trkpt>
      <trkpt lat="48.190513" lon="7.814081">
        <ele>224.391091</ele>
        <time>2026-08-24T19:52:56.872Z</time>
      </trkpt>
      <trkpt lat="48.190615" lon="7.814051">
        <ele>223.317259</ele>
        <time>2026-08-24T19:52:58.113Z</time>
      </trkpt>
      <trkpt lat="48.190793" lon="7.814058">
        <ele>221.477701</ele>
        <time>2026-08-24T19:53:00.241Z</time>
      </trkpt>
      <trkpt lat="48.191022" lon="7.814242">
        <ele>219.340582</ele>
        <time>2026-08-24T19:53:03.362Z</time>
      </trkpt>
      <trkpt lat="48.191142" lon="7.814375">
        <ele>218.140483</ele>
        <time>2026-08-24T19:53:05.153Z</time>
      </trkpt>
      <trkpt lat="48.191496" lon="7.814512">
        <ele>215.199871</ele>
        <time>2026-08-24T19:53:09.624Z</time>
      </trkpt>
      <trkpt lat="48.191804" lon="7.814814">
        <ele>212.240194</ele>
        <time>2026-08-24T19:53:14.225Z</time>
      </trkpt>
      <trkpt lat="48.191848" lon="7.814802">
        <ele>211.880482</ele>
        <time>2026-08-24T19:53:14.622Z</time>
      </trkpt>
      <trkpt lat="48.192110" lon="7.814541">
        <ele>209.350732</ele>
        <time>2026-08-24T19:53:17.469Z</time>
      </trkpt>
      <trkpt lat="48.192452" lon="7.814332">
        <ele>206.697445</ele>
        <time>2026-08-24T19:53:20.949Z</time>
      </trkpt>
      <trkpt lat="48.192507" lon="7.814300">
        <ele>206.585273</ele>
        <time>2026-08-24T19:53:21.536Z</time>
      </trkpt>
      <trkpt lat="48.192654" lon="7.814237">
        <ele>206.294573</ele>
        <time>2026-08-24T19:53:23.083Z</time>
      </trkpt>
      <trkpt lat="48.192907" lon="7.814229">
        <ele>205.813394</ele>
        <time>2026-08-24T19:53:25.881Z</time>
      </trkpt>
      <trkpt lat="48.193114" lon="7.814234">
        <ele>205.419739</ele>
        <time>2026-08-24T19:53:28.371Z</time>
      </trkpt>
      <trkpt lat="48.193154" lon="7.814227">
        <ele>205.343164</ele>
        <time>2026-08-24T19:53:28.870Z</time>
      </trkpt>
      <trkpt lat="48.193378" lon="7.814160">
        <ele>204.908850</ele>
        <time>2026-08-24T19:53:31.788Z</time>
      </trkpt>
      <trkpt lat="48.193571" lon="7.814058">
        <ele>204.519757</ele>
        <time>2026-08-24T19:53:34.299Z</time>
      </trkpt>
      <trkpt lat="48.193895" lon="7.813864">
        <ele>203.856418</ele>
        <time>2026-08-24T19:53:38.483Z</time>
      </trkpt>
      <trkpt lat="48.193959" lon="7.813836">
        <ele>203.729654</ele>
        <time>2026-08-24T19:53:39.291Z</time>
      </trkpt>
      <trkpt lat="48.194112" lon="7.813816">
        <ele>203.437626</ele>
        <time>2026-08-24T19:53:41.204Z</time>
      </trkpt>
      <trkpt lat="48.194332" lon="7.813837">
        <ele>203.172042</ele>
        <time>2026-08-24T19:53:43.879Z</time>
      </trkpt>
      <trkpt lat="48.194921" lon="7.814026">
        <ele>202.519349</ele>
        <time>2026-08-24T19:53:51.285Z</time>
      </trkpt>
      <trkpt lat="48.194950" lon="7.814039">
        <ele>202.486551</ele>
        <time>2026-08-24T19:53:51.645Z</time>
      </trkpt>
      <trkpt lat="48.195299" lon="7.814152">
        <ele>202.099657</ele>
        <time>2026-08-24T19:53:56.075Z</time>
      </trkpt>
      <trkpt lat="48.195507" lon="7.814211">
        <ele>201.870269</ele>
        <time>2026-08-24T19:53:58.661Z</time>
      </trkpt>
      <trkpt lat="48.195523" lon="7.814169">
        <ele>201.835326</ele>
        <time>2026-08-24T19:53:59.194Z</time>
      </trkpt>
      <trkpt lat="48.196067" lon="7.814289">
        <ele>201.107255</ele>
        <time>2026-08-24T19:54:08.452Z</time>
      </trkpt>
      <trkpt lat="48.196433" lon="7.814305">
        <ele>200.429875</ele>
        <time>2026-08-24T19:54:14.477Z</time>
      </trkpt>
      <trkpt lat="48.196606" lon="7.814260">
        <ele>200.105054</ele>
        <time>2026-08-24T19:54:17.314Z</time>
      </trkpt>
      <trkpt lat="48.196861" lon="7.814123">
        <ele>199.603971</ele>
        <time>2026-08-24T19:54:21.654Z</time>
      </trkpt>
      <trkpt lat="48.197619" lon="7.813541">
        <ele>198.018933</ele>
        <time>2026-08-24T19:54:34.838Z</time>
      </trkpt>
      <trkpt lat="48.198318" lon="7.812998">
        <ele>196.360467</ele>
        <time>2026-08-24T19:54:47.091Z</time>
      </trkpt>
      <trkpt lat="48.198647" lon="7.812834">
        <ele>195.630026</ele>
        <time>2026-08-24T19:54:52.530Z</time>
      </trkpt>
      <trkpt lat="48.199265" lon="7.812639">
        <ele>194.301315</ele>
        <time>2026-08-24T19:55:02.436Z</time>
      </trkpt>
      <trkpt lat="48.199693" lon="7.812429">
        <ele>193.529380</ele>
        <time>2026-08-24T19:55:09.464Z</time>
      </trkpt>
      <trkpt lat="48.200002" lon="7.812170">
        <ele>192.922619</ele>
        <time>2026-08-24T19:55:15.015Z</time>
      </trkpt>
      <trkpt lat="48.200683" lon="7.811488">
        <ele>191.519037</ele>
        <time>2026-08-24T19:55:28.333Z</time>
      </trkpt>
      <trkpt lat="48.200874" lon="7.811339">
        <ele>191.195535</ele>
        <time>2026-08-24T19:55:32.000Z</time>
      </trkpt>
      <trkpt lat="48.201073" lon="7.811224">
        <ele>191.048666</ele>
        <time>2026-08-24T19:55:35.683Z</time>
      </trkpt>
      <trkpt lat="48.201334" lon="7.811113">
        <ele>190.861829</ele>
        <time>2026-08-24T19:55:40.454Z</time>
      </trkpt>
      <trkpt lat="48.202078" lon="7.810857">
        <ele>190.336124</ele>
        <time>2026-08-24T19:55:54.629Z</time>
      </trkpt>
      <trkpt lat="48.202469" lon="7.810750">
        <ele>190.062395</ele>
        <time>2026-08-24T19:56:02.191Z</time>
      </trkpt>
      <trkpt lat="48.203186" lon="7.810594">
        <ele>189.871511</ele>
        <time>2026-08-24T19:56:15.464Z</time>
      </trkpt>
      <trkpt lat="48.203325" lon="7.810453">
        <ele>189.839933</ele>
        <time>2026-08-24T19:56:18.441Z</time>
      </trkpt>
      <trkpt lat="48.203427" lon="7.810239">
        <ele>189.806931</ele>
        <time>2026-08-24T19:56:21.634Z</time>
      </trkpt>
      <trkpt lat="48.203598" lon="7.808993">
        <ele>189.665972</ele>
        <time>2026-08-24T19:56:38.379Z</time>
      </trkpt>
      <trkpt lat="48.203747" lon="7.808383">
        <ele>190.603278</ele>
        <time>2026-08-24T19:56:49.242Z</time>
      </trkpt>
      <trkpt lat="48.203886" lon="7.807971">
        <ele>191.269498</ele>
        <time>2026-08-24T19:56:57.972Z</time>
      </trkpt>
      <trkpt lat="48.204006" lon="7.807719">
        <ele>191.716326</ele>
        <time>2026-08-24T19:57:04.320Z</time>
      </trkpt>
      <trkpt lat="48.204116" lon="7.807481">
        <ele>192.134177</ele>
        <time>2026-08-24T19:57:10.605Z</time>
      </trkpt>
      <trkpt lat="48.204267" lon="7.807234">
        <ele>192.617734</ele>
        <time>2026-08-24T19:57:18.172Z</time>
      </trkpt>
      <trkpt lat="48.204422" lon="7.807049">
        <ele>193.046468</ele>
        <time>2026-08-24T19:57:24.927Z</time>
      </trkpt>
      <trkpt lat="48.205123" lon="7.806452">
        <ele>193.544602</ele>
        <time>2026-08-24T19:57:50.385Z</time>
      </trkpt>
      <trkpt lat="48.205343" lon="7.806123">
        <ele>193.545823</ele>
        <time>2026-08-24T19:57:57.402Z</time>
      </trkpt>
      <trkpt lat="48.205520" lon="7.805752">
        <ele>193.547019</ele>
        <time>2026-08-24T19:58:03.079Z</time>
      </trkpt>
      <trkpt lat="48.206533" lon="7.803339">
        <ele>190.059201</ele>
        <time>2026-08-24T19:58:31.199Z</time>
      </trkpt>
      <trkpt lat="48.206852" lon="7.802611">
        <ele>188.489297</ele>
        <time>2026-08-24T19:58:40.115Z</time>
      </trkpt>
      <trkpt lat="48.207041" lon="7.801959">
        <ele>187.190047</ele>
        <time>2026-08-24T19:58:47.517Z</time>
      </trkpt>
      <trkpt lat="48.207116" lon="7.801615">
        <ele>186.528662</ele>
        <time>2026-08-24T19:58:51.126Z</time>
      </trkpt>
      <trkpt lat="48.207180" lon="7.801617">
        <ele>186.353140</ele>
        <time>2026-08-24T19:58:52.061Z</time>
      </trkpt>
      <trkpt lat="48.207213" lon="7.801595">
        <ele>186.254128</ele>
        <time>2026-08-24T19:58:52.602Z</time>
      </trkpt>
      <trkpt lat="48.207350" lon="7.801587">
        <ele>185.878199</ele>
        <time>2026-08-24T19:58:54.606Z</time>
      </trkpt>
      <trkpt lat="48.207702" lon="7.801506">
        <ele>184.901756</ele>
        <time>2026-08-24T19:58:59.837Z</time>
      </trkpt>
      <trkpt lat="48.208179" lon="7.801424">
        <ele>183.636319</ele>
        <time>2026-08-24T19:59:06.942Z</time>
      </trkpt>
      <trkpt lat="48.208312" lon="7.801374">
        <ele>183.367142</ele>
        <time>2026-08-24T19:59:08.965Z</time>
      </trkpt>
      <trkpt lat="48.208372" lon="7.801282">
        <ele>183.198727</ele>
        <time>2026-08-24T19:59:09.838Z</time>
      </trkpt>
      <trkpt lat="48.208407" lon="7.801226">
        <ele>183.098281</ele>
        <time>2026-08-24T19:59:11.351Z</time>
      </trkpt>
      <trkpt lat="48.208557" lon="7.801456">
        <ele>182.677247</ele>
        <time>2026-08-24T19:59:14.507Z</time>
      </trkpt>
      <trkpt lat="48.208637" lon="7.801522">
        <ele>182.498017</ele>
        <time>2026-08-24T19:59:15.864Z</time>
      </trkpt>
      <trkpt lat="48.208849" lon="7.801602">
        <ele>182.068857</ele>
        <time>2026-08-24T19:59:19.149Z</time>
      </trkpt>
      <trkpt lat="48.208906" lon="7.801524">
        <ele>181.917409</ele>
        <time>2026-08-24T19:59:21.518Z</time>
      </trkpt>
      <trkpt lat="48.208849" lon="7.801602">
        <ele>181.765962</ele>
        <time>2026-08-24T19:59:23.937Z</time>
      </trkpt>
      <trkpt lat="48.208871" lon="7.801606">
        <ele>181.722455</ele>
        <time>2026-08-24T19:59:24.292Z</time>
      </trkpt>
      <trkpt lat="48.208984" lon="7.801638">
        <ele>181.496696</ele>
        <time>2026-08-24T19:59:27.977Z</time>
      </trkpt>
      <trkpt lat="48.209553" lon="7.801870">
        <ele>180.339124</ele>
        <time>2026-08-24T19:59:38.303Z</time>
      </trkpt>
      <trkpt lat="48.209755" lon="7.802005">
        <ele>180.187126</ele>
        <time>2026-08-24T19:59:42.383Z</time>
      </trkpt>
      <trkpt lat="48.210163" lon="7.802364">
        <ele>180.055267</ele>
        <time>2026-08-24T19:59:51.407Z</time>
      </trkpt>
      <trkpt lat="48.210374" lon="7.802588">
        <ele>179.983210</ele>
        <time>2026-08-24T19:59:56.388Z</time>
      </trkpt>
      <trkpt lat="48.210701" lon="7.803001">
        <ele>179.864053</ele>
        <time>2026-08-24T20:00:04.699Z</time>
      </trkpt>
      <trkpt lat="48.210892" lon="7.803324">
        <ele>179.783826</ele>
        <time>2026-08-24T20:00:10.490Z</time>
      </trkpt>
      <trkpt lat="48.211805" lon="7.805281">
        <ele>180.040359</ele>
        <time>2026-08-24T20:00:43.208Z</time>
      </trkpt>
      <trkpt lat="48.212042" lon="7.805732">
        <ele>180.124114</ele>
        <time>2026-08-24T20:00:51.875Z</time>
      </trkpt>
      <trkpt lat="48.212320" lon="7.806130">
        <ele>180.518650</ele>
        <time>2026-08-24T20:01:00.602Z</time>
      </trkpt>
      <trkpt lat="48.212556" lon="7.806356">
        <ele>180.811245</ele>
        <time>2026-08-24T20:01:07.227Z</time>
      </trkpt>
      <trkpt lat="48.212665" lon="7.806404">
        <ele>180.929969</ele>
        <time>2026-08-24T20:01:10.063Z</time>
      </trkpt>
      <trkpt lat="48.212780" lon="7.806399">
        <ele>181.050211</ele>
        <time>2026-08-24T20:01:12.945Z</time>
      </trkpt>
      <trkpt lat="48.213252" lon="7.806282">
        <ele>181.550202</ele>
        <time>2026-08-24T20:01:25.314Z</time>
      </trkpt>
      <trkpt lat="48.213356" lon="7.806245">
        <ele>181.661909</ele>
        <time>2026-08-24T20:01:28.054Z</time>
      </trkpt>
      <trkpt lat="48.213660" lon="7.806232">
        <ele>181.979761</ele>
        <time>2026-08-24T20:01:35.877Z</time>
      </trkpt>
      <trkpt lat="48.213712" lon="7.806234">
        <ele>182.020759</ele>
        <time>2026-08-24T20:01:36.965Z</time>
      </trkpt>
      <trkpt lat="48.213870" lon="7.806240">
        <ele>182.107965</ele>
        <time>2026-08-24T20:01:40.014Z</time>
      </trkpt>
      <trkpt lat="48.214194" lon="7.806276">
        <ele>182.287224</ele>
        <time>2026-08-24T20:01:46.158Z</time>
      </trkpt>
      <trkpt lat="48.214246" lon="7.806281">
        <ele>182.315975</ele>
        <time>2026-08-24T20:01:47.114Z</time>
      </trkpt>
      <trkpt lat="48.214349" lon="7.806290">
        <ele>182.372902</ele>
        <time>2026-08-24T20:01:49.006Z</time>
      </trkpt>
      <trkpt lat="48.214332" lon="7.806376">
        <ele>182.405883</ele>
        <time>2026-08-24T20:01:50.388Z</time>
      </trkpt>
      <trkpt lat="48.214595" lon="7.806415">
        <ele>182.551702</ele>
        <time>2026-08-24T20:01:55.012Z</time>
      </trkpt>
      <trkpt lat="48.214960" lon="7.806492">
        <ele>182.755074</ele>
        <time>2026-08-24T20:02:00.921Z</time>
      </trkpt>
      <trkpt lat="48.215083" lon="7.806462">
        <ele>182.823831</ele>
        <time>2026-08-24T20:02:02.770Z</time>
      </trkpt>
      <trkpt lat="48.215086" lon="7.806405">
        <ele>182.844853</ele>
        <time>2026-08-24T20:02:03.325Z</time>
      </trkpt>
      <trkpt lat="48.215124" lon="7.805610">
        <ele>182.930567</ele>
        <time>2026-08-24T20:02:10.886Z</time>
      </trkpt>
      <trkpt lat="48.215138" lon="7.805423">
        <ele>182.897050</ele>
        <time>2026-08-24T20:02:12.650Z</time>
      </trkpt>
      <trkpt lat="48.215203" lon="7.804433">
        <ele>182.719863</ele>
        <time>2026-08-24T20:02:21.429Z</time>
      </trkpt>
      <trkpt lat="48.215200" lon="7.804118">
        <ele>182.663751</ele>
        <time>2026-08-24T20:02:24.264Z</time>
      </trkpt>
      <trkpt lat="48.215141" lon="7.803588">
        <ele>182.568042</ele>
        <time>2026-08-24T20:02:29.278Z</time>
      </trkpt>
      <trkpt lat="48.215036" lon="7.803211">
        <ele>182.496650</ele>
        <time>2026-08-24T20:02:33.230Z</time>
      </trkpt>
      <trkpt lat="48.214945" lon="7.802986">
        <ele>182.452701</ele>
        <time>2026-08-24T20:02:35.755Z</time>
      </trkpt>
      <trkpt lat="48.214784" lon="7.802676">
        <ele>182.387073</ele>
        <time>2026-08-24T20:02:39.558Z</time>
      </trkpt>
      <trkpt lat="48.214410" lon="7.802119">
        <ele>182.255036</ele>
        <time>2026-08-24T20:02:47.039Z</time>
      </trkpt>
      <trkpt lat="48.214073" lon="7.801603">
        <ele>182.134391</ele>
        <time>2026-08-24T20:02:53.780Z</time>
      </trkpt>
      <trkpt lat="48.213740" lon="7.801028">
        <ele>181.927237</ele>
        <time>2026-08-24T20:03:00.624Z</time>
      </trkpt>
      <trkpt lat="48.213360" lon="7.800233">
        <ele>181.544500</ele>
        <time>2026-08-24T20:03:09.073Z</time>
      </trkpt>
      <trkpt lat="48.212784" lon="7.798747">
        <ele>180.769873</ele>
        <time>2026-08-24T20:03:23.860Z</time>
      </trkpt>
      <trkpt lat="48.212759" lon="7.798685">
        <ele>180.720671</ele>
        <time>2026-08-24T20:03:24.472Z</time>
      </trkpt>
      <trkpt lat="48.212564" lon="7.798247">
        <ele>180.363023</ele>
        <time>2026-08-24T20:03:28.866Z</time>
      </trkpt>
      <trkpt lat="48.211586" lon="7.796329">
        <ele>178.938281</ele>
        <time>2026-08-24T20:03:48.041Z</time>
      </trkpt>
      <trkpt lat="48.211412" lon="7.795881">
        <ele>178.752619</ele>
        <time>2026-08-24T20:03:52.374Z</time>
      </trkpt>
      <trkpt lat="48.211245" lon="7.795347">
        <ele>178.541413</ele>
        <time>2026-08-24T20:03:57.627Z</time>
      </trkpt>
      <trkpt lat="48.211160" lon="7.794990">
        <ele>178.405675</ele>
        <time>2026-08-24T20:04:01.279Z</time>
      </trkpt>
      <trkpt lat="48.211025" lon="7.794258">
        <ele>178.203835</ele>
        <time>2026-08-24T20:04:09.143Z</time>
      </trkpt>
      <trkpt lat="48.210948" lon="7.793465">
        <ele>178.174670</ele>
        <time>2026-08-24T20:04:17.340Z</time>
      </trkpt>
      <trkpt lat="48.211081" lon="7.793417">
        <ele>178.167199</ele>
        <time>2026-08-24T20:04:19.444Z</time>
      </trkpt>
      <trkpt lat="48.210988" lon="7.793107">
        <ele>178.154827</ele>
        <time>2026-08-24T20:04:24.060Z</time>
      </trkpt>
      <trkpt lat="48.210925" lon="7.792153">
        <ele>178.119937</ele>
        <time>2026-08-24T20:04:36.818Z</time>
      </trkpt>
      <trkpt lat="48.210947" lon="7.791728">
        <ele>178.026228</ele>
        <time>2026-08-24T20:04:42.069Z</time>
      </trkpt>
      <trkpt lat="48.211000" lon="7.791284">
        <ele>177.868968</ele>
        <time>2026-08-24T20:04:47.467Z</time>
      </trkpt>
      <trkpt lat="48.211076" lon="7.791167">
        <ele>177.812004</ele>
        <time>2026-08-24T20:04:49.451Z</time>
      </trkpt>
      <trkpt lat="48.211245" lon="7.790992">
        <ele>177.704579</ele>
        <time>2026-08-24T20:04:53.227Z</time>
      </trkpt>
      <trkpt lat="48.211225" lon="7.790879">
        <ele>177.663817</ele>
        <time>2026-08-24T20:04:54.677Z</time>
      </trkpt>
      <trkpt lat="48.211199" lon="7.790811">
        <ele>177.636484</ele>
        <time>2026-08-24T20:04:55.650Z</time>
      </trkpt>
      <trkpt lat="48.211566" lon="7.790275">
        <ele>177.368554</ele>
        <time>2026-08-24T20:05:02.435Z</time>
      </trkpt>
      <trkpt lat="48.212375" lon="7.789051">
        <ele>177.057485</ele>
        <time>2026-08-24T20:05:17.271Z</time>
      </trkpt>
      <trkpt lat="48.212854" lon="7.788407">
        <ele>176.961913</ele>
        <time>2026-08-24T20:05:27.053Z</time>
      </trkpt>
      <trkpt lat="48.212949" lon="7.788227">
        <ele>176.939174</ele>
        <time>2026-08-24T20:05:29.458Z</time>
      </trkpt>
      <trkpt lat="48.213161" lon="7.787962">
        <ele>176.922726</ele>
        <time>2026-08-24T20:05:33.911Z</time>
      </trkpt>
      <trkpt lat="48.213330" lon="7.787806">
        <ele>176.995764</ele>
        <time>2026-08-24T20:05:37.129Z</time>
      </trkpt>
      <trkpt lat="48.213517" lon="7.787529">
        <ele>177.092488</ele>
        <time>2026-08-24T20:05:41.530Z</time>
      </trkpt>
      <trkpt lat="48.213765" lon="7.786869">
        <ele>177.278349</ele>
        <time>2026-08-24T20:05:50.381Z</time>
      </trkpt>
      <trkpt lat="48.213785" lon="7.786887">
        <ele>177.286934</ele>
        <time>2026-08-24T20:05:50.916Z</time>
      </trkpt>
      <trkpt lat="48.213826" lon="7.786929">
        <ele>177.305208</ele>
        <time>2026-08-24T20:05:52.057Z</time>
      </trkpt>
      <trkpt lat="48.213895" lon="7.786600">
        <ele>177.389813</ele>
        <time>2026-08-24T20:05:57.107Z</time>
      </trkpt>
      <trkpt lat="48.213919" lon="7.786528">
        <ele>177.409561</ele>
        <time>2026-08-24T20:05:57.960Z</time>
      </trkpt>
      <trkpt lat="48.214213" lon="7.785575">
        <ele>177.530763</ele>
        <time>2026-08-24T20:06:08.614Z</time>
      </trkpt>
      <trkpt lat="48.214338" lon="7.785098">
        <ele>177.484689</ele>
        <time>2026-08-24T20:06:13.565Z</time>
      </trkpt>
      <trkpt lat="48.214770" lon="7.782997">
        <ele>177.194684</ele>
        <time>2026-08-24T20:06:34.109Z</time>
      </trkpt>
      <trkpt lat="48.214879" lon="7.782533">
        <ele>177.042007</ele>
        <time>2026-08-24T20:06:38.532Z</time>
      </trkpt>
      <trkpt lat="48.214925" lon="7.782330">
        <ele>176.975469</ele>
        <time>2026-08-24T20:06:40.440Z</time>
      </trkpt>
      <trkpt lat="48.215042" lon="7.781847">
        <ele>176.815986</ele>
        <time>2026-08-24T20:06:44.997Z</time>
      </trkpt>
      <trkpt lat="48.215118" lon="7.781572">
        <ele>176.723598</ele>
        <time>2026-08-24T20:06:47.649Z</time>
      </trkpt>
      <trkpt lat="48.215214" lon="7.781256">
        <ele>176.615826</ele>
        <time>2026-08-24T20:06:50.698Z</time>
      </trkpt>
      <trkpt lat="48.215302" lon="7.780981">
        <ele>176.521157</ele>
        <time>2026-08-24T20:06:53.327Z</time>
      </trkpt>
      <trkpt lat="48.215471" lon="7.780468">
        <ele>176.306342</ele>
        <time>2026-08-24T20:06:58.173Z</time>
      </trkpt>
      <trkpt lat="48.215434" lon="7.780433">
        <ele>176.280689</ele>
        <time>2026-08-24T20:06:58.702Z</time>
      </trkpt>
      <trkpt lat="48.215631" lon="7.779853">
        <ele>176.026255</ele>
        <time>2026-08-24T20:07:04.293Z</time>
      </trkpt>
      <trkpt lat="48.215609" lon="7.779783">
        <ele>175.996007</ele>
        <time>2026-08-24T20:07:04.958Z</time>
      </trkpt>
      <trkpt lat="48.215503" lon="7.779691">
        <ele>175.924185</ele>
        <time>2026-08-24T20:07:06.566Z</time>
      </trkpt>
      <trkpt lat="48.215503" lon="7.779628">
        <ele>175.899562</ele>
        <time>2026-08-24T20:07:09.484Z</time>
      </trkpt>
      <trkpt lat="48.215505" lon="7.779524">
        <ele>175.858899</ele>
        <time>2026-08-24T20:07:14.269Z</time>
      </trkpt>
      <trkpt lat="48.215505" lon="7.779461">
        <ele>175.834277</ele>
        <time>2026-08-24T20:07:17.187Z</time>
      </trkpt>
      <trkpt lat="48.215308" lon="7.779453">
        <ele>175.718685</ele>
        <time>2026-08-24T20:07:20.832Z</time>
      </trkpt>
      <trkpt lat="48.214978" lon="7.779383">
        <ele>175.523202</ele>
        <time>2026-08-24T20:07:26.976Z</time>
      </trkpt>
      <trkpt lat="48.214016" lon="7.778954">
        <ele>175.079315</ele>
        <time>2026-08-24T20:07:45.758Z</time>
      </trkpt>
      <trkpt lat="48.213313" lon="7.778680">
        <ele>174.777247</ele>
        <time>2026-08-24T20:07:59.372Z</time>
      </trkpt>
      <trkpt lat="48.213145" lon="7.778645">
        <ele>174.706708</ele>
        <time>2026-08-24T20:08:02.626Z</time>
      </trkpt>
      <trkpt lat="48.212923" lon="7.778651">
        <ele>174.659183</ele>
        <time>2026-08-24T20:08:06.923Z</time>
      </trkpt>
      <trkpt lat="48.212897" lon="7.778651">
        <ele>174.655325</ele>
        <time>2026-08-24T20:08:07.411Z</time>
      </trkpt>
      <trkpt lat="48.212879" lon="7.778647">
        <ele>174.652625</ele>
        <time>2026-08-24T20:08:07.776Z</time>
      </trkpt>
      <trkpt lat="48.212771" lon="7.778627">
        <ele>174.636479</ele>
        <time>2026-08-24T20:08:09.895Z</time>
      </trkpt>
      <trkpt lat="48.212741" lon="7.778623">
        <ele>174.632010</ele>
        <time>2026-08-24T20:08:10.475Z</time>
      </trkpt>
      <trkpt lat="48.212417" lon="7.778574">
        <ele>174.583693</ele>
        <time>2026-08-24T20:08:16.823Z</time>
      </trkpt>
      <trkpt lat="48.212270" lon="7.778505">
        <ele>174.560840</ele>
        <time>2026-08-24T20:08:19.838Z</time>
      </trkpt>
      <trkpt lat="48.211855" lon="7.778458">
        <ele>174.499090</ele>
        <time>2026-08-24T20:08:28.135Z</time>
      </trkpt>
      <trkpt lat="48.211141" lon="7.778417">
        <ele>174.375830</ele>
        <time>2026-08-24T20:08:42.338Z</time>
      </trkpt>
      <trkpt lat="48.211094" lon="7.778447">
        <ele>174.362828</ele>
        <time>2026-08-24T20:08:43.356Z</time>
      </trkpt>
      <trkpt lat="48.210996" lon="7.778464">
        <ele>174.337715</ele>
        <time>2026-08-24T20:08:45.285Z</time>
      </trkpt>
      <trkpt lat="48.210904" lon="7.778466">
        <ele>174.314293</ele>
        <time>2026-08-24T20:08:47.093Z</time>
      </trkpt>
      <trkpt lat="48.209047" lon="7.778337">
        <ele>173.879374</ele>
        <time>2026-08-24T20:09:22.682Z</time>
      </trkpt>
      <trkpt lat="48.208353" lon="7.778343">
        <ele>173.759941</ele>
        <time>2026-08-24T20:09:36.141Z</time>
      </trkpt>
      <trkpt lat="48.207425" lon="7.778543">
        <ele>173.658510</ele>
        <time>2026-08-24T20:09:54.837Z</time>
      </trkpt>
      <trkpt lat="48.205920" lon="7.778901">
        <ele>173.703863</ele>
        <time>2026-08-24T20:10:17.835Z</time>
      </trkpt>
      <trkpt lat="48.204753" lon="7.779164">
        <ele>173.769518</ele>
        <time>2026-08-24T20:10:35.805Z</time>
      </trkpt>
      <trkpt lat="48.204687" lon="7.779183">
        <ele>173.773257</ele>
        <time>2026-08-24T20:10:37.165Z</time>
      </trkpt>
      <trkpt lat="48.203431" lon="7.779473">
        <ele>174.200340</ele>
        <time>2026-08-24T20:10:55.778Z</time>
      </trkpt>
      <trkpt lat="48.202581" lon="7.779580">
        <ele>174.657515</ele>
        <time>2026-08-24T20:11:10.985Z</time>
      </trkpt>
      <trkpt lat="48.202010" lon="7.779551">
        <ele>175.102793</ele>
        <time>2026-08-24T20:11:22.819Z</time>
      </trkpt>
      <trkpt lat="48.201774" lon="7.779508">
        <ele>175.320142</ele>
        <time>2026-08-24T20:11:27.544Z</time>
      </trkpt>
      <trkpt lat="48.201206" lon="7.779319">
        <ele>175.852057</ele>
        <time>2026-08-24T20:11:38.729Z</time>
      </trkpt>
      <trkpt lat="48.200503" lon="7.778963">
        <ele>176.498099</ele>
        <time>2026-08-24T20:11:51.133Z</time>
      </trkpt>
      <trkpt lat="48.200512" lon="7.779045">
        <ele>176.535027</ele>
        <time>2026-08-24T20:11:52.021Z</time>
      </trkpt>
      <trkpt lat="48.200499" lon="7.779116">
        <ele>176.567745</ele>
        <time>2026-08-24T20:11:52.810Z</time>
      </trkpt>
      <trkpt lat="48.200078" lon="7.778878">
        <ele>176.867677</ele>
        <time>2026-08-24T20:11:59.680Z</time>
      </trkpt>
      <trkpt lat="48.199524" lon="7.778479">
        <ele>177.277365</ele>
        <time>2026-08-24T20:12:10.753Z</time>
      </trkpt>
      <trkpt lat="48.198977" lon="7.777914">
        <ele>177.861735</ele>
        <time>2026-08-24T20:12:22.976Z</time>
      </trkpt>
      <trkpt lat="48.198723" lon="7.777609">
        <ele>178.358187</ele>
        <time>2026-08-24T20:12:29.310Z</time>
      </trkpt>
      <trkpt lat="48.198754" lon="7.777562">
        <ele>178.425440</ele>
        <time>2026-08-24T20:12:30.118Z</time>
      </trkpt>
      <trkpt lat="48.198362" lon="7.777037">
        <ele>179.227286</ele>
        <time>2026-08-24T20:12:41.616Z</time>
      </trkpt>
      <trkpt lat="48.197918" lon="7.776376">
        <ele>180.181780</ele>
        <time>2026-08-24T20:12:55.389Z</time>
      </trkpt>
      <trkpt lat="48.197737" lon="7.776106">
        <ele>180.446251</ele>
        <time>2026-08-24T20:13:00.920Z</time>
      </trkpt>
      <trkpt lat="48.197467" lon="7.775730">
        <ele>180.683639</ele>
        <time>2026-08-24T20:13:10.062Z</time>
      </trkpt>
      <trkpt lat="48.196813" lon="7.774979">
        <ele>181.214353</ele>
        <time>2026-08-24T20:13:25.757Z</time>
      </trkpt>
      <trkpt lat="48.196578" lon="7.774741">
        <ele>181.397061</ele>
        <time>2026-08-24T20:13:29.194Z</time>
      </trkpt>
      <trkpt lat="48.196346" lon="7.774484">
        <ele>181.315016</ele>
        <time>2026-08-24T20:13:32.546Z</time>
      </trkpt>
      <trkpt lat="48.196285" lon="7.774365">
        <ele>181.129204</ele>
        <time>2026-08-24T20:13:33.674Z</time>
      </trkpt>
      <trkpt lat="48.196225" lon="7.774257">
        <ele>180.955182</ele>
        <time>2026-08-24T20:13:34.737Z</time>
      </trkpt>
      <trkpt lat="48.196219" lon="7.774128">
        <ele>180.795121</ele>
        <time>2026-08-24T20:13:35.694Z</time>
      </trkpt>
      <trkpt lat="48.196185" lon="7.774058">
        <ele>180.687914</ele>
        <time>2026-08-24T20:13:36.356Z</time>
      </trkpt>
      <trkpt lat="48.196101" lon="7.774009">
        <ele>180.520557</ele>
        <time>2026-08-24T20:13:37.336Z</time>
      </trkpt>
      <trkpt lat="48.196034" lon="7.774033">
        <ele>180.392647</ele>
        <time>2026-08-24T20:13:38.096Z</time>
      </trkpt>
      <trkpt lat="48.195942" lon="7.773989">
        <ele>180.213341</ele>
        <time>2026-08-24T20:13:39.164Z</time>
      </trkpt>
      <trkpt lat="48.195828" lon="7.773936">
        <ele>179.991722</ele>
        <time>2026-08-24T20:13:40.422Z</time>
      </trkpt>
      <trkpt lat="48.195714" lon="7.773786">
        <ele>179.710147</ele>
        <time>2026-08-24T20:13:41.923Z</time>
      </trkpt>
      <trkpt lat="48.195629" lon="7.773665">
        <ele>179.492560</ele>
        <time>2026-08-24T20:13:43.081Z</time>
      </trkpt>
      <trkpt lat="48.195478" lon="7.773469">
        <ele>179.121779</ele>
        <time>2026-08-24T20:13:45.087Z</time>
      </trkpt>
      <trkpt lat="48.195399" lon="7.773354">
        <ele>178.917372</ele>
        <time>2026-08-24T20:13:46.274Z</time>
      </trkpt>
      <trkpt lat="48.195346" lon="7.773279">
        <ele>178.782080</ele>
        <time>2026-08-24T20:13:47.073Z</time>
      </trkpt>
      <trkpt lat="48.195199" lon="7.773058">
        <ele>178.395633</ele>
        <time>2026-08-24T20:13:49.732Z</time>
      </trkpt>
      <trkpt lat="48.194812" lon="7.772492">
        <ele>178.077682</ele>
        <time>2026-08-24T20:13:56.691Z</time>
      </trkpt>
      <trkpt lat="48.194234" lon="7.771848">
        <ele>177.913042</ele>
        <time>2026-08-24T20:14:06.717Z</time>
      </trkpt>
      <trkpt lat="48.193985" lon="7.771533">
        <ele>177.838558</ele>
        <time>2026-08-24T20:14:11.831Z</time>
      </trkpt>
      <trkpt lat="48.193412" lon="7.770694">
        <ele>177.973660</ele>
        <time>2026-08-24T20:14:25.225Z</time>
      </trkpt>
      <trkpt lat="48.193276" lon="7.770497">
        <ele>178.058729</ele>
        <time>2026-08-24T20:14:28.491Z</time>
      </trkpt>
      <trkpt lat="48.193042" lon="7.770123">
        <ele>178.212585</ele>
        <time>2026-08-24T20:14:34.303Z</time>
      </trkpt>
      <trkpt lat="48.192896" lon="7.769907">
        <ele>178.304855</ele>
        <time>2026-08-24T20:14:37.763Z</time>
      </trkpt>
      <trkpt lat="48.192850" lon="7.769842">
        <ele>178.333291</ele>
        <time>2026-08-24T20:14:38.832Z</time>
      </trkpt>
      <trkpt lat="48.192816" lon="7.769793">
        <ele>178.354506</ele>
        <time>2026-08-24T20:14:39.637Z</time>
      </trkpt>
      <trkpt lat="48.192716" lon="7.769677">
        <ele>178.411387</ele>
        <time>2026-08-24T20:14:41.786Z</time>
      </trkpt>
      <trkpt lat="48.192495" lon="7.769408">
        <ele>178.539448</ele>
        <time>2026-08-24T20:14:46.636Z</time>
      </trkpt>
      <trkpt lat="48.192241" lon="7.769121">
        <ele>178.480798</ele>
        <time>2026-08-24T20:14:51.913Z</time>
      </trkpt>
      <trkpt lat="48.192050" lon="7.768919">
        <ele>178.394018</ele>
        <time>2026-08-24T20:14:55.474Z</time>
      </trkpt>
      <trkpt lat="48.191698" lon="7.768548">
        <ele>178.234271</ele>
        <time>2026-08-24T20:15:01.326Z</time>
      </trkpt>
      <trkpt lat="48.191158" lon="7.767966">
        <ele>177.987360</ele>
        <time>2026-08-24T20:15:09.869Z</time>
      </trkpt>
      <trkpt lat="48.191059" lon="7.767867">
        <ele>177.943178</ele>
        <time>2026-08-24T20:15:11.380Z</time>
      </trkpt>
      <trkpt lat="48.190859" lon="7.767660">
        <ele>177.758911</ele>
        <time>2026-08-24T20:15:14.395Z</time>
      </trkpt>
      <trkpt lat="48.190671" lon="7.767405">
        <ele>177.491809</ele>
        <time>2026-08-24T20:15:17.406Z</time>
      </trkpt>
      <trkpt lat="48.190518" lon="7.767104">
        <ele>177.225891</ele>
        <time>2026-08-24T20:15:20.364Z</time>
      </trkpt>
      <trkpt lat="48.190477" lon="7.767015">
        <ele>177.149890</ele>
        <time>2026-08-24T20:15:21.214Z</time>
      </trkpt>
      <trkpt lat="48.190387" lon="7.766817">
        <ele>176.981531</ele>
        <time>2026-08-24T20:15:23.097Z</time>
      </trkpt>
      <trkpt lat="48.190291" lon="7.766637">
        <ele>176.819587</ele>
        <time>2026-08-24T20:15:24.906Z</time>
      </trkpt>
      <trkpt lat="48.190208" lon="7.766503">
        <ele>176.691086</ele>
        <time>2026-08-24T20:15:26.349Z</time>
      </trkpt>
      <trkpt lat="48.190000" lon="7.766236">
        <ele>176.402587</ele>
        <time>2026-08-24T20:15:29.600Z</time>
      </trkpt>
      <trkpt lat="48.189832" lon="7.766093">
        <ele>176.199028</ele>
        <time>2026-08-24T20:15:31.925Z</time>
      </trkpt>
      <trkpt lat="48.189628" lon="7.765984">
        <ele>176.002241</ele>
        <time>2026-08-24T20:15:34.632Z</time>
      </trkpt>
      <trkpt lat="48.189126" lon="7.765842">
        <ele>175.910739</ele>
        <time>2026-08-24T20:15:41.347Z</time>
      </trkpt>
      <trkpt lat="48.189070" lon="7.765831">
        <ele>175.900623</ele>
        <time>2026-08-24T20:15:42.131Z</time>
      </trkpt>
      <trkpt lat="48.188774" lon="7.765798">
        <ele>175.847457</ele>
        <time>2026-08-24T20:15:46.434Z</time>
      </trkpt>
      <trkpt lat="48.188721" lon="7.765793">
        <ele>175.837945</ele>
        <time>2026-08-24T20:15:47.230Z</time>
      </trkpt>
      <trkpt lat="48.188601" lon="7.765783">
        <ele>175.816418</ele>
        <time>2026-08-24T20:15:49.061Z</time>
      </trkpt>
      <trkpt lat="48.188501" lon="7.765774">
        <ele>175.798474</ele>
        <time>2026-08-24T20:15:50.598Z</time>
      </trkpt>
      <trkpt lat="48.188257" lon="7.765741">
        <ele>175.754592</ele>
        <time>2026-08-24T20:15:54.445Z</time>
      </trkpt>
      <trkpt lat="48.188177" lon="7.765733">
        <ele>175.740231</ele>
        <time>2026-08-24T20:15:55.730Z</time>
      </trkpt>
      <trkpt lat="48.187799" lon="7.765709">
        <ele>175.688636</ele>
        <time>2026-08-24T20:16:01.795Z</time>
      </trkpt>
      <trkpt lat="48.187697" lon="7.765706">
        <ele>175.691408</ele>
        <time>2026-08-24T20:16:03.434Z</time>
      </trkpt>
      <trkpt lat="48.187583" lon="7.765701">
        <ele>175.694507</ele>
        <time>2026-08-24T20:16:05.260Z</time>
      </trkpt>
      <trkpt lat="48.187555" lon="7.765700">
        <ele>175.695268</ele>
        <time>2026-08-24T20:16:05.702Z</time>
      </trkpt>
      <trkpt lat="48.187386" lon="7.765687">
        <ele>175.699867</ele>
        <time>2026-08-24T20:16:08.300Z</time>
      </trkpt>
      <trkpt lat="48.187267" lon="7.765673">
        <ele>175.703110</ele>
        <time>2026-08-24T20:16:10.086Z</time>
      </trkpt>
      <trkpt lat="48.187112" lon="7.765647">
        <ele>175.707348</ele>
        <time>2026-08-24T20:16:12.366Z</time>
      </trkpt>
      <trkpt lat="48.187090" lon="7.765641">
        <ele>175.707956</ele>
        <time>2026-08-24T20:16:12.678Z</time>
      </trkpt>
      <trkpt lat="48.186802" lon="7.765570">
        <ele>175.715886</ele>
        <time>2026-08-24T20:16:16.850Z</time>
      </trkpt>
      <trkpt lat="48.186704" lon="7.765547">
        <ele>175.718581</ele>
        <time>2026-08-24T20:16:18.273Z</time>
      </trkpt>
      <trkpt lat="48.186695" lon="7.765628">
        <ele>175.720069</ele>
        <time>2026-08-24T20:16:19.071Z</time>
      </trkpt>
      <trkpt lat="48.186103" lon="7.765474">
        <ele>175.734644</ele>
        <time>2026-08-24T20:16:27.748Z</time>
      </trkpt>
      <trkpt lat="48.185854" lon="7.765466">
        <ele>175.729745</ele>
        <time>2026-08-24T20:16:31.352Z</time>
      </trkpt>
      <trkpt lat="48.185678" lon="7.765674">
        <ele>175.725338</ele>
        <time>2026-08-24T20:16:34.686Z</time>
      </trkpt>
      <trkpt lat="48.185636" lon="7.765671">
        <ele>175.724511</ele>
        <time>2026-08-24T20:16:35.299Z</time>
      </trkpt>
      <trkpt lat="48.185590" lon="7.765680">
        <ele>175.723599</ele>
        <time>2026-08-24T20:16:35.989Z</time>
      </trkpt>
      <trkpt lat="48.185431" lon="7.765492">
        <ele>175.719617</ele>
        <time>2026-08-24T20:16:38.983Z</time>
      </trkpt>
      <trkpt lat="48.185007" lon="7.765470">
        <ele>175.711272</ele>
        <time>2026-08-24T20:16:45.272Z</time>
      </trkpt>
      <trkpt lat="48.184434" lon="7.765637">
        <ele>175.700167</ele>
        <time>2026-08-24T20:16:53.858Z</time>
      </trkpt>
      <trkpt lat="48.183715" lon="7.765727">
        <ele>175.711177</ele>
        <time>2026-08-24T20:17:04.491Z</time>
      </trkpt>
      <trkpt lat="48.183282" lon="7.765744">
        <ele>175.717786</ele>
        <time>2026-08-24T20:17:10.998Z</time>
      </trkpt>
      <trkpt lat="48.180904" lon="7.765642">
        <ele>175.778970</ele>
        <time>2026-08-24T20:17:46.823Z</time>
      </trkpt>
      <trkpt lat="48.180410" lon="7.765525">
        <ele>175.750605</ele>
        <time>2026-08-24T20:17:54.067Z</time>
      </trkpt>
      <trkpt lat="48.179918" lon="7.765313">
        <ele>175.716349</ele>
        <time>2026-08-24T20:18:01.396Z</time>
      </trkpt>
      <trkpt lat="48.178888" lon="7.764755">
        <ele>175.764752</ele>
        <time>2026-08-24T20:18:17.380Z</time>
      </trkpt>
      <trkpt lat="48.178027" lon="7.764488">
        <ele>176.124494</ele>
        <time>2026-08-24T20:18:30.982Z</time>
      </trkpt>
      <trkpt lat="48.177648" lon="7.764455">
        <ele>176.279828</ele>
        <time>2026-08-24T20:18:36.986Z</time>
      </trkpt>
      <trkpt lat="48.176594" lon="7.764558">
        <ele>177.809560</ele>
        <time>2026-08-24T20:18:58.388Z</time>
      </trkpt>
      <trkpt lat="48.176287" lon="7.764607">
        <ele>178.374782</ele>
        <time>2026-08-24T20:19:06.418Z</time>
      </trkpt>
      <trkpt lat="48.175374" lon="7.764741">
        <ele>179.781645</ele>
        <time>2026-08-24T20:19:28.904Z</time>
      </trkpt>
      <trkpt lat="48.175345" lon="7.764778">
        <ele>179.799324</ele>
        <time>2026-08-24T20:19:29.776Z</time>
      </trkpt>
      <trkpt lat="48.175303" lon="7.764842">
        <ele>179.827126</ele>
        <time>2026-08-24T20:19:31.128Z</time>
      </trkpt>
      <trkpt lat="48.174132" lon="7.764985">
        <ele>180.372620</ele>
        <time>2026-08-24T20:19:49.937Z</time>
      </trkpt>
      <trkpt lat="48.173524" lon="7.765151">
        <ele>180.301894</ele>
        <time>2026-08-24T20:19:57.537Z</time>
      </trkpt>
      <trkpt lat="48.172913" lon="7.765517">
        <ele>179.800626</ele>
        <time>2026-08-24T20:20:06.245Z</time>
      </trkpt>
      <trkpt lat="48.172242" lon="7.766036">
        <ele>179.225410</ele>
        <time>2026-08-24T20:20:15.789Z</time>
      </trkpt>
      <trkpt lat="48.172109" lon="7.766134">
        <ele>179.080756</ele>
        <time>2026-08-24T20:20:17.506Z</time>
      </trkpt>
      <trkpt lat="48.171986" lon="7.766249">
        <ele>178.885392</ele>
        <time>2026-08-24T20:20:19.187Z</time>
      </trkpt>
      <trkpt lat="48.171781" lon="7.766570">
        <ele>178.485907</ele>
        <time>2026-08-24T20:20:22.621Z</time>
      </trkpt>
      <trkpt lat="48.171741" lon="7.766546">
        <ele>178.427840</ele>
        <time>2026-08-24T20:20:23.101Z</time>
      </trkpt>
      <trkpt lat="48.171699" lon="7.766511">
        <ele>178.363078</ele>
        <time>2026-08-24T20:20:23.643Z</time>
      </trkpt>
      <trkpt lat="48.171479" lon="7.766781">
        <ele>177.979910</ele>
        <time>2026-08-24T20:20:26.926Z</time>
      </trkpt>
      <trkpt lat="48.171442" lon="7.766825">
        <ele>177.916263</ele>
        <time>2026-08-24T20:20:27.497Z</time>
      </trkpt>
      <trkpt lat="48.171333" lon="7.766370">
        <ele>177.481701</ele>
        <time>2026-08-24T20:20:31.187Z</time>
      </trkpt>
      <trkpt lat="48.171289" lon="7.766200">
        <ele>177.317793</ele>
        <time>2026-08-24T20:20:32.530Z</time>
      </trkpt>
      <trkpt lat="48.171250" lon="7.766027">
        <ele>177.153648</ele>
        <time>2026-08-24T20:20:33.871Z</time>
      </trkpt>
      <trkpt lat="48.170983" lon="7.766307">
        <ele>176.727627</ele>
        <time>2026-08-24T20:20:37.569Z</time>
      </trkpt>
      <trkpt lat="48.170793" lon="7.766427">
        <ele>176.691259</ele>
        <time>2026-08-24T20:20:40.220Z</time>
      </trkpt>
      <trkpt lat="48.170488" lon="7.766483">
        <ele>176.637055</ele>
        <time>2026-08-24T20:20:44.509Z</time>
      </trkpt>
      <trkpt lat="48.170311" lon="7.765946">
        <ele>176.566585</ele>
        <time>2026-08-24T20:20:52.561Z</time>
      </trkpt>
      <trkpt lat="48.170213" lon="7.765729">
        <ele>176.535754</ele>
        <time>2026-08-24T20:20:56.135Z</time>
      </trkpt>
      <trkpt lat="48.169548" lon="7.764510">
        <ele>176.585774</ele>
        <time>2026-08-24T20:21:18.446Z</time>
      </trkpt>
      <trkpt lat="48.169080" lon="7.763619">
        <ele>176.960010</ele>
        <time>2026-08-24T20:21:35.118Z</time>
      </trkpt>
      <trkpt lat="48.168939" lon="7.763277">
        <ele>177.092682</ele>
        <time>2026-08-24T20:21:41.046Z</time>
      </trkpt>
      <trkpt lat="48.168735" lon="7.762608">
        <ele>177.335066</ele>
        <time>2026-08-24T20:21:52.293Z</time>
      </trkpt>
      <trkpt lat="48.168582" lon="7.761773">
        <ele>177.617805</ele>
        <time>2026-08-24T20:22:06.146Z</time>
      </trkpt>
      <trkpt lat="48.168531" lon="7.760822">
        <ele>177.929320</ele>
        <time>2026-08-24T20:22:20.841Z</time>
      </trkpt>
      <trkpt lat="48.168559" lon="7.760277">
        <ele>178.107796</ele>
        <time>2026-08-24T20:22:28.555Z</time>
      </trkpt>
      <trkpt lat="48.168581" lon="7.760024">
        <ele>178.172334</ele>
        <time>2026-08-24T20:22:31.927Z</time>
      </trkpt>
      <trkpt lat="48.168691" lon="7.758770">
        <ele>177.654936</ele>
        <time>2026-08-24T20:22:42.752Z</time>
      </trkpt>
      <trkpt lat="48.168689" lon="7.758346">
        <ele>177.481483</ele>
        <time>2026-08-24T20:22:46.187Z</time>
      </trkpt>
      <trkpt lat="48.168656" lon="7.758023">
        <ele>177.347811</ele>
        <time>2026-08-24T20:22:48.855Z</time>
      </trkpt>
      <trkpt lat="48.168614" lon="7.757783">
        <ele>177.246309</ele>
        <time>2026-08-24T20:22:50.930Z</time>
      </trkpt>
      <trkpt lat="48.168486" lon="7.757357">
        <ele>177.085788</ele>
        <time>2026-08-24T20:22:54.962Z</time>
      </trkpt>
      <trkpt lat="48.168358" lon="7.757075">
        <ele>177.121468</ele>
        <time>2026-08-24T20:22:59.268Z</time>
      </trkpt>
      <trkpt lat="48.167927" lon="7.756303">
        <ele>177.226775</ele>
        <time>2026-08-24T20:23:13.230Z</time>
      </trkpt>
      <trkpt lat="48.167713" lon="7.755810">
        <ele>177.288303</ele>
        <time>2026-08-24T20:23:21.973Z</time>
      </trkpt>
      <trkpt lat="48.167525" lon="7.755147">
        <ele>177.362841</ele>
        <time>2026-08-24T20:23:32.885Z</time>
      </trkpt>
      <trkpt lat="48.167355" lon="7.754249">
        <ele>177.420882</ele>
        <time>2026-08-24T20:23:46.668Z</time>
      </trkpt>
      <trkpt lat="48.167186" lon="7.753577">
        <ele>177.465536</ele>
        <time>2026-08-24T20:23:56.445Z</time>
      </trkpt>
      <trkpt lat="48.167115" lon="7.753397">
        <ele>177.478539</ele>
        <time>2026-08-24T20:23:59.201Z</time>
      </trkpt>
      <trkpt lat="48.166864" lon="7.752968">
        <ele>177.514022</ele>
        <time>2026-08-24T20:24:06.514Z</time>
      </trkpt>
      <trkpt lat="48.166741" lon="7.752828">
        <ele>177.528419</ele>
        <time>2026-08-24T20:24:08.603Z</time>
      </trkpt>
      <trkpt lat="48.166453" lon="7.752612">
        <ele>177.446636</ele>
        <time>2026-08-24T20:24:12.897Z</time>
      </trkpt>
      <trkpt lat="48.166060" lon="7.752488">
        <ele>177.340331</ele>
        <time>2026-08-24T20:24:18.203Z</time>
      </trkpt>
      <trkpt lat="48.165676" lon="7.752517">
        <ele>177.238558</ele>
        <time>2026-08-24T20:24:23.383Z</time>
      </trkpt>
      <trkpt lat="48.164742" lon="7.752788">
        <ele>177.063691</ele>
        <time>2026-08-24T20:24:37.307Z</time>
      </trkpt>
      <trkpt lat="48.163838" lon="7.752945">
        <ele>177.101630</ele>
        <time>2026-08-24T20:24:51.241Z</time>
      </trkpt>
      <trkpt lat="48.163055" lon="7.752982">
        <ele>177.107754</ele>
        <time>2026-08-24T20:25:02.965Z</time>
      </trkpt>
      <trkpt lat="48.161164" lon="7.753047">
        <ele>176.890904</ele>
        <time>2026-08-24T20:25:29.655Z</time>
      </trkpt>
      <trkpt lat="48.160374" lon="7.753199">
        <ele>176.940114</ele>
        <time>2026-08-24T20:25:41.454Z</time>
      </trkpt>
      <trkpt lat="48.159774" lon="7.753407">
        <ele>176.978163</ele>
        <time>2026-08-24T20:25:51.144Z</time>
      </trkpt>
      <trkpt lat="48.159341" lon="7.753634">
        <ele>177.062915</ele>
        <time>2026-08-24T20:25:58.553Z</time>
      </trkpt>
      <trkpt lat="48.158510" lon="7.754203">
        <ele>177.284975</ele>
        <time>2026-08-24T20:26:13.073Z</time>
      </trkpt>
      <trkpt lat="48.158270" lon="7.754469">
        <ele>177.357523</ele>
        <time>2026-08-24T20:26:17.833Z</time>
      </trkpt>
      <trkpt lat="48.158101" lon="7.754819">
        <ele>177.426131</ele>
        <time>2026-08-24T20:26:22.370Z</time>
      </trkpt>
      <trkpt lat="48.157884" lon="7.755116">
        <ele>177.464300</ele>
        <time>2026-08-24T20:26:26.907Z</time>
      </trkpt>
      <trkpt lat="48.157678" lon="7.755321">
        <ele>177.496419</ele>
        <time>2026-08-24T20:26:30.640Z</time>
      </trkpt>
      <trkpt lat="48.157373" lon="7.755625">
        <ele>177.543996</ele>
        <time>2026-08-24T20:26:36.058Z</time>
      </trkpt>
      <trkpt lat="48.157171" lon="7.755902">
        <ele>177.579558</ele>
        <time>2026-08-24T20:26:40.223Z</time>
      </trkpt>
      <trkpt lat="48.156759" lon="7.756564">
        <ele>177.658012</ele>
        <time>2026-08-24T20:26:49.651Z</time>
      </trkpt>
      <trkpt lat="48.156531" lon="7.756723">
        <ele>177.692449</ele>
        <time>2026-08-24T20:26:53.443Z</time>
      </trkpt>
      <trkpt lat="48.156226" lon="7.756844">
        <ele>177.735663</ele>
        <time>2026-08-24T20:26:58.071Z</time>
      </trkpt>
      <trkpt lat="48.156078" lon="7.756869">
        <ele>177.756062</ele>
        <time>2026-08-24T20:27:00.318Z</time>
      </trkpt>
      <trkpt lat="48.155917" lon="7.756841">
        <ele>177.778262</ele>
        <time>2026-08-24T20:27:02.817Z</time>
      </trkpt>
      <trkpt lat="48.155625" lon="7.756698">
        <ele>177.820337</ele>
        <time>2026-08-24T20:27:07.693Z</time>
      </trkpt>
      <trkpt lat="48.155421" lon="7.756527">
        <ele>177.852351</ele>
        <time>2026-08-24T20:27:11.381Z</time>
      </trkpt>
      <trkpt lat="48.155277" lon="7.756360">
        <ele>177.877288</ele>
        <time>2026-08-24T20:27:14.257Z</time>
      </trkpt>
      <trkpt lat="48.154860" lon="7.755821">
        <ele>177.965776</ele>
        <time>2026-08-24T20:27:22.776Z</time>
      </trkpt>
      <trkpt lat="48.154812" lon="7.755754">
        <ele>177.977193</ele>
        <time>2026-08-24T20:27:23.742Z</time>
      </trkpt>
      <trkpt lat="48.154678" lon="7.755563">
        <ele>178.009382</ele>
        <time>2026-08-24T20:27:27.483Z</time>
      </trkpt>
      <trkpt lat="48.154558" lon="7.755395">
        <ele>178.037966</ele>
        <time>2026-08-24T20:27:29.881Z</time>
      </trkpt>
      <trkpt lat="48.154378" lon="7.755109">
        <ele>178.083627</ele>
        <time>2026-08-24T20:27:33.945Z</time>
      </trkpt>
      <trkpt lat="48.154291" lon="7.754957">
        <ele>178.106886</ele>
        <time>2026-08-24T20:27:36.068Z</time>
      </trkpt>
      <trkpt lat="48.154153" lon="7.754661">
        <ele>178.148824</ele>
        <time>2026-08-24T20:27:39.954Z</time>
      </trkpt>
      <trkpt lat="48.154035" lon="7.754109">
        <ele>178.216140</ele>
        <time>2026-08-24T20:27:46.166Z</time>
      </trkpt>
      <trkpt lat="48.154023" lon="7.754042">
        <ele>178.242742</ele>
        <time>2026-08-24T20:27:46.887Z</time>
      </trkpt>
      <trkpt lat="48.153865" lon="7.753026">
        <ele>178.703041</ele>
        <time>2026-08-24T20:27:57.738Z</time>
      </trkpt>
      <trkpt lat="48.153859" lon="7.752992">
        <ele>178.718559</ele>
        <time>2026-08-24T20:27:58.092Z</time>
      </trkpt>
      <trkpt lat="48.153767" lon="7.752726">
        <ele>178.850759</ele>
        <time>2026-08-24T20:28:01.299Z</time>
      </trkpt>
      <trkpt lat="48.153689" lon="7.752592">
        <ele>178.929225</ele>
        <time>2026-08-24T20:28:03.359Z</time>
      </trkpt>
      <trkpt lat="48.153523" lon="7.752467">
        <ele>179.052087</ele>
        <time>2026-08-24T20:28:06.784Z</time>
      </trkpt>
      <trkpt lat="48.153272" lon="7.752363">
        <ele>179.224317</ele>
        <time>2026-08-24T20:28:11.868Z</time>
      </trkpt>
      <trkpt lat="48.153176" lon="7.752332">
        <ele>179.289265</ele>
        <time>2026-08-24T20:28:13.800Z</time>
      </trkpt>
      <trkpt lat="48.152736" lon="7.752222">
        <ele>179.897299</ele>
        <time>2026-08-24T20:28:22.692Z</time>
      </trkpt>
      <trkpt lat="48.152525" lon="7.752163">
        <ele>180.290089</ele>
        <time>2026-08-24T20:28:27.225Z</time>
      </trkpt>
      <trkpt lat="48.152368" lon="7.752119">
        <ele>180.582377</ele>
        <time>2026-08-24T20:28:30.705Z</time>
      </trkpt>
      <trkpt lat="48.152296" lon="7.752097">
        <ele>180.716846</ele>
        <time>2026-08-24T20:28:32.348Z</time>
      </trkpt>
      <trkpt lat="48.151467" lon="7.751869">
        <ele>182.259237</ele>
        <time>2026-08-24T20:28:52.529Z</time>
      </trkpt>
      <trkpt lat="48.150888" lon="7.751693">
        <ele>183.020678</ele>
        <time>2026-08-24T20:29:05.517Z</time>
      </trkpt>
      <trkpt lat="48.150548" lon="7.751609">
        <ele>183.337123</ele>
        <time>2026-08-24T20:29:12.716Z</time>
      </trkpt>
      <trkpt lat="48.150410" lon="7.752341">
        <ele>183.803172</ele>
        <time>2026-08-24T20:29:21.921Z</time>
      </trkpt>
      <trkpt lat="48.150399" lon="7.752388">
        <ele>183.833689</ele>
        <time>2026-08-24T20:29:23.219Z</time>
      </trkpt>
      <trkpt lat="48.150356" lon="7.752541">
        <ele>183.935408</ele>
        <time>2026-08-24T20:29:27.520Z</time>
      </trkpt>
      <trkpt lat="48.150096" lon="7.752924">
        <ele>184.270183</ele>
        <time>2026-08-24T20:29:35.777Z</time>
      </trkpt>
      <trkpt lat="48.149741" lon="7.753515">
        <ele>184.118391</ele>
        <time>2026-08-24T20:29:45.364Z</time>
      </trkpt>
      <trkpt lat="48.149577" lon="7.753891">
        <ele>183.961508</ele>
        <time>2026-08-24T20:29:50.908Z</time>
      </trkpt>
      <trkpt lat="48.149363" lon="7.753874">
        <ele>183.849334</ele>
        <time>2026-08-24T20:29:53.819Z</time>
      </trkpt>
      <trkpt lat="48.149336" lon="7.753953">
        <ele>183.818335</ele>
        <time>2026-08-24T20:29:54.803Z</time>
      </trkpt>
      <trkpt lat="48.149277" lon="7.753962">
        <ele>183.787293</ele>
        <time>2026-08-24T20:29:55.931Z</time>
      </trkpt>
      <trkpt lat="48.149176" lon="7.754024">
        <ele>183.730163</ele>
        <time>2026-08-24T20:29:57.264Z</time>
      </trkpt>
      <trkpt lat="48.147812" lon="7.754324">
        <ele>182.590570</ele>
        <time>2026-08-24T20:30:15.036Z</time>
      </trkpt>
      <trkpt lat="48.147602" lon="7.754340">
        <ele>182.365600</ele>
        <time>2026-08-24T20:30:17.494Z</time>
      </trkpt>
      <trkpt lat="48.147216" lon="7.754268">
        <ele>181.949432</ele>
        <time>2026-08-24T20:30:21.987Z</time>
      </trkpt>
      <trkpt lat="48.147065" lon="7.754231">
        <ele>181.785732</ele>
        <time>2026-08-24T20:30:23.735Z</time>
      </trkpt>
      <trkpt lat="48.146978" lon="7.754369">
        <ele>181.650200</ele>
        <time>2026-08-24T20:30:25.161Z</time>
      </trkpt>
      <trkpt lat="48.146916" lon="7.754575">
        <ele>181.488876</ele>
        <time>2026-08-24T20:30:26.864Z</time>
      </trkpt>
      <trkpt lat="48.146895" lon="7.754648">
        <ele>181.439771</ele>
        <time>2026-08-24T20:30:27.472Z</time>
      </trkpt>
      <trkpt lat="48.146834" lon="7.754717">
        <ele>181.369932</ele>
        <time>2026-08-24T20:30:28.320Z</time>
      </trkpt>
      <trkpt lat="48.143531" lon="7.755251">
        <ele>178.811052</ele>
        <time>2026-08-24T20:31:10.419Z</time>
      </trkpt>
      <trkpt lat="48.143407" lon="7.755106">
        <ele>178.716824</ele>
        <time>2026-08-24T20:31:12.655Z</time>
      </trkpt>
      <trkpt lat="48.141976" lon="7.755364">
        <ele>178.578531</ele>
        <time>2026-08-24T20:31:33.853Z</time>
      </trkpt>
      <trkpt lat="48.140411" lon="7.755646">
        <ele>178.499502</ele>
        <time>2026-08-24T20:31:56.773Z</time>
      </trkpt>
      <trkpt lat="48.138807" lon="7.755935">
        <ele>178.704270</ele>
        <time>2026-08-24T20:32:21.488Z</time>
      </trkpt>
      <trkpt lat="48.138001" lon="7.756080">
        <ele>178.882881</ele>
        <time>2026-08-24T20:32:34.790Z</time>
      </trkpt>
      <trkpt lat="48.136375" lon="7.756373">
        <ele>179.318602</ele>
        <time>2026-08-24T20:33:00.898Z</time>
      </trkpt>
      <trkpt lat="48.135536" lon="7.756524">
        <ele>179.387812</ele>
        <time>2026-08-24T20:33:13.317Z</time>
      </trkpt>
      <trkpt lat="48.134718" lon="7.756675">
        <ele>179.433929</ele>
        <time>2026-08-24T20:33:25.653Z</time>
      </trkpt>
      <trkpt lat="48.134011" lon="7.756796">
        <ele>179.497784</ele>
        <time>2026-08-24T20:33:36.450Z</time>
      </trkpt>
      <trkpt lat="48.133907" lon="7.756817">
        <ele>179.508936</ele>
        <time>2026-08-24T20:33:38.055Z</time>
      </trkpt>
      <trkpt lat="48.133176" lon="7.756931">
        <ele>179.587035</ele>
        <time>2026-08-24T20:33:49.431Z</time>
      </trkpt>
      <trkpt lat="48.132820" lon="7.757000">
        <ele>179.625180</ele>
        <time>2026-08-24T20:33:54.883Z</time>
      </trkpt>
      <trkpt lat="48.131534" lon="7.757236">
        <ele>179.839111</ele>
        <time>2026-08-24T20:34:14.723Z</time>
      </trkpt>
      <trkpt lat="48.131488" lon="7.757086">
        <ele>179.857978</ele>
        <time>2026-08-24T20:34:16.433Z</time>
      </trkpt>
      <trkpt lat="48.131384" lon="7.755609">
        <ele>179.946256</ele>
        <time>2026-08-24T20:34:32.234Z</time>
      </trkpt>
      <trkpt lat="48.131297" lon="7.755549">
        <ele>179.946280</ele>
        <time>2026-08-24T20:34:33.720Z</time>
      </trkpt>
      <trkpt lat="48.130533" lon="7.755359">
        <ele>179.946474</ele>
        <time>2026-08-24T20:34:44.893Z</time>
      </trkpt>
      <trkpt lat="48.129707" lon="7.755154">
        <ele>179.946599</ele>
        <time>2026-08-24T20:34:56.808Z</time>
      </trkpt>
      <trkpt lat="48.128878" lon="7.754949">
        <ele>179.946625</ele>
        <time>2026-08-24T20:35:09.087Z</time>
      </trkpt>
      <trkpt lat="48.128045" lon="7.754742">
        <ele>180.012041</ele>
        <time>2026-08-24T20:35:22.443Z</time>
      </trkpt>
      <trkpt lat="48.127631" lon="7.754639">
        <ele>180.113238</ele>
        <time>2026-08-24T20:35:29.046Z</time>
      </trkpt>
      <trkpt lat="48.127240" lon="7.754586">
        <ele>180.207908</ele>
        <time>2026-08-24T20:35:35.157Z</time>
      </trkpt>
      <trkpt lat="48.125656" lon="7.754468">
        <ele>180.609851</ele>
        <time>2026-08-24T20:36:00.051Z</time>
      </trkpt>
      <trkpt lat="48.124225" lon="7.754362">
        <ele>180.874611</ele>
        <time>2026-08-24T20:36:23.170Z</time>
      </trkpt>
      <trkpt lat="48.123642" lon="7.754319">
        <ele>180.898000</ele>
        <time>2026-08-24T20:36:31.983Z</time>
      </trkpt>
      <trkpt lat="48.123605" lon="7.754316">
        <ele>180.899485</ele>
        <time>2026-08-24T20:36:32.513Z</time>
      </trkpt>
      <trkpt lat="48.123580" lon="7.754314">
        <ele>180.900488</ele>
        <time>2026-08-24T20:36:35.254Z</time>
      </trkpt>
      <trkpt lat="48.123547" lon="7.754312">
        <ele>180.901811</ele>
        <time>2026-08-24T20:36:38.958Z</time>
      </trkpt>
      <trkpt lat="48.123501" lon="7.754308">
        <ele>180.903658</ele>
        <time>2026-08-24T20:36:39.629Z</time>
      </trkpt>
      <trkpt lat="48.123435" lon="7.754303">
        <ele>180.906306</ele>
        <time>2026-08-24T20:36:46.983Z</time>
      </trkpt>
      <trkpt lat="48.123385" lon="7.754300">
        <ele>180.908311</ele>
        <time>2026-08-24T20:36:52.479Z</time>
      </trkpt>
      <trkpt lat="48.123349" lon="7.754297">
        <ele>180.909756</ele>
        <time>2026-08-24T20:36:53.006Z</time>
      </trkpt>
      <trkpt lat="48.123276" lon="7.754292">
        <ele>180.912684</ele>
        <time>2026-08-24T20:37:01.147Z</time>
      </trkpt>
      <trkpt lat="48.123241" lon="7.754289">
        <ele>180.914088</ele>
        <time>2026-08-24T20:37:04.937Z</time>
      </trkpt>
      <trkpt lat="48.122297" lon="7.754223">
        <ele>180.896105</ele>
        <time>2026-08-24T20:37:18.074Z</time>
      </trkpt>
      <trkpt lat="48.122165" lon="7.754212">
        <ele>180.889802</ele>
        <time>2026-08-24T20:37:19.958Z</time>
      </trkpt>
      <trkpt lat="48.119972" lon="7.754036">
        <ele>181.061077</ele>
        <time>2026-08-24T20:37:53.612Z</time>
      </trkpt>
      <trkpt lat="48.120247" lon="7.756129">
        <ele>181.380782</ele>
        <time>2026-08-24T20:38:16.332Z</time>
      </trkpt>
      <trkpt lat="48.120368" lon="7.757582">
        <ele>181.627987</ele>
        <time>2026-08-24T20:38:31.995Z</time>
      </trkpt>
      <trkpt lat="48.120363" lon="7.758895">
        <ele>181.646466</ele>
        <time>2026-08-24T20:38:45.102Z</time>
      </trkpt>
      <trkpt lat="48.120379" lon="7.759218">
        <ele>181.649275</ele>
        <time>2026-08-24T20:38:48.228Z</time>
      </trkpt>
      <trkpt lat="48.120295" lon="7.759390">
        <ele>181.651123</ele>
        <time>2026-08-24T20:38:50.277Z</time>
      </trkpt>
      <trkpt lat="48.120273" lon="7.759523">
        <ele>181.652311</ele>
        <time>2026-08-24T20:38:51.600Z</time>
      </trkpt>
      <trkpt lat="48.120255" lon="7.760057">
        <ele>181.656949</ele>
        <time>2026-08-24T20:38:56.766Z</time>
      </trkpt>
      <trkpt lat="48.120273" lon="7.760261">
        <ele>181.658733</ele>
        <time>2026-08-24T20:38:58.758Z</time>
      </trkpt>
      <trkpt lat="48.120181" lon="7.760262">
        <ele>181.662498</ele>
        <time>2026-08-24T20:39:00.609Z</time>
      </trkpt>
      <trkpt lat="48.120116" lon="7.760250">
        <ele>181.665338</ele>
        <time>2026-08-24T20:39:01.547Z</time>
      </trkpt>
      <trkpt lat="48.120053" lon="7.760592">
        <ele>181.675608</ele>
        <time>2026-08-24T20:39:04.986Z</time>
      </trkpt>
      <trkpt lat="48.119993" lon="7.762226">
        <ele>181.722983</ele>
        <time>2026-08-24T20:39:21.541Z</time>
      </trkpt>
      <trkpt lat="48.119842" lon="7.766307">
        <ele>182.066577</ele>
        <time>2026-08-24T20:40:03.300Z</time>
      </trkpt>
      <trkpt lat="48.119717" lon="7.768398">
        <ele>182.348757</ele>
        <time>2026-08-24T20:40:25.618Z</time>
      </trkpt>
      <trkpt lat="48.112816" lon="7.768439">
        <ele>183.305584</ele>
        <time>2026-08-24T20:42:11.451Z</time>
      </trkpt>
      <trkpt lat="48.111503" lon="7.768447">
        <ele>183.509030</ele>
        <time>2026-08-24T20:42:31.742Z</time>
      </trkpt>
      <trkpt lat="48.110411" lon="7.768409">
        <ele>183.593954</ele>
        <time>2026-08-24T20:42:48.631Z</time>
      </trkpt>
      <trkpt lat="48.110095" lon="7.768438">
        <ele>183.591847</ele>
        <time>2026-08-24T20:42:53.378Z</time>
      </trkpt>
      <trkpt lat="48.110411" lon="7.768409">
        <ele>183.589741</ele>
        <time>2026-08-24T20:42:58.020Z</time>
      </trkpt>
      <trkpt lat="48.111503" lon="7.768447">
        <ele>183.547370</ele>
        <time>2026-08-24T20:43:13.585Z</time>
      </trkpt>
      <trkpt lat="48.112816" lon="7.768439">
        <ele>183.436997</ele>
        <time>2026-08-24T20:43:32.520Z</time>
      </trkpt>
      <trkpt lat="48.111503" lon="7.768447">
        <ele>183.547859</ele>
        <time>2026-08-24T20:43:52.546Z</time>
      </trkpt>
      <trkpt lat="48.110411" lon="7.768409">
        <ele>183.632167</ele>
        <time>2026-08-24T20:44:09.436Z</time>
      </trkpt>
      <trkpt lat="48.110095" lon="7.768438">
        <ele>183.653328</ele>
        <time>2026-08-24T20:44:14.234Z</time>
      </trkpt>
      <trkpt lat="48.109700" lon="7.768415">
        <ele>183.679749</ele>
        <time>2026-08-24T20:44:20.113Z</time>
      </trkpt>
      <trkpt lat="48.109217" lon="7.768207">
        <ele>183.713340</ele>
        <time>2026-08-24T20:44:27.557Z</time>
      </trkpt>
      <trkpt lat="48.108566" lon="7.768068">
        <ele>183.933495</ele>
        <time>2026-08-24T20:44:37.436Z</time>
      </trkpt>
      <trkpt lat="48.108492" lon="7.768167">
        <ele>183.967113</ele>
        <time>2026-08-24T20:44:39.014Z</time>
      </trkpt>
      <trkpt lat="48.108230" lon="7.768744">
        <ele>184.124965</ele>
        <time>2026-08-24T20:44:46.698Z</time>
      </trkpt>
      <trkpt lat="48.108165" lon="7.768838">
        <ele>184.155578</ele>
        <time>2026-08-24T20:44:48.222Z</time>
      </trkpt>
      <trkpt lat="48.108035" lon="7.768932">
        <ele>184.204487</ele>
        <time>2026-08-24T20:44:50.682Z</time>
      </trkpt>
      <trkpt lat="48.107628" lon="7.769293">
        <ele>184.379038</ele>
        <time>2026-08-24T20:44:58.828Z</time>
      </trkpt>
      <trkpt lat="48.107492" lon="7.769495">
        <ele>184.466343</ele>
        <time>2026-08-24T20:45:02.160Z</time>
      </trkpt>
      <trkpt lat="48.107505" lon="7.769688">
        <ele>184.525380</ele>
        <time>2026-08-24T20:45:04.372Z</time>
      </trkpt>
      <trkpt lat="48.107696" lon="7.770659">
        <ele>184.833457</ele>
        <time>2026-08-24T20:45:15.860Z</time>
      </trkpt>
      <trkpt lat="48.107728" lon="7.770881">
        <ele>184.902579</ele>
        <time>2026-08-24T20:45:18.361Z</time>
      </trkpt>
      <trkpt lat="48.107796" lon="7.771395">
        <ele>185.062054</ele>
        <time>2026-08-24T20:45:23.973Z</time>
      </trkpt>
      <trkpt lat="48.107883" lon="7.772401">
        <ele>185.280195</ele>
        <time>2026-08-24T20:45:34.695Z</time>
      </trkpt>
      <trkpt lat="48.107914" lon="7.773364">
        <ele>185.456840</ele>
        <time>2026-08-24T20:45:45.051Z</time>
      </trkpt>
      <trkpt lat="48.107918" lon="7.775474">
        <ele>185.744271</ele>
        <time>2026-08-24T20:46:07.360Z</time>
      </trkpt>
      <trkpt lat="48.107920" lon="7.776192">
        <ele>185.812723</ele>
        <time>2026-08-24T20:46:14.433Z</time>
      </trkpt>
      <trkpt lat="48.107903" lon="7.777352">
        <ele>186.032971</ele>
        <time>2026-08-24T20:46:26.120Z</time>
      </trkpt>
      <trkpt lat="48.107986" lon="7.777664">
        <ele>186.182642</ele>
        <time>2026-08-24T20:46:29.729Z</time>
      </trkpt>
      <trkpt lat="48.108013" lon="7.777911">
        <ele>186.294183</ele>
        <time>2026-08-24T20:46:32.505Z</time>
      </trkpt>
      <trkpt lat="48.107799" lon="7.777959">
        <ele>186.438602</ele>
        <time>2026-08-24T20:46:36.236Z</time>
      </trkpt>
      <trkpt lat="48.107577" lon="7.777976">
        <ele>186.586960</ele>
        <time>2026-08-24T20:46:40.203Z</time>
      </trkpt>
      <trkpt lat="48.106688" lon="7.778060">
        <ele>187.268247</ele>
        <time>2026-08-24T20:46:56.900Z</time>
      </trkpt>
      <trkpt lat="48.106624" lon="7.778076">
        <ele>187.354485</ele>
        <time>2026-08-24T20:46:58.127Z</time>
      </trkpt>
      <trkpt lat="48.105457" lon="7.778395">
        <ele>188.931143</ele>
        <time>2026-08-24T20:47:20.986Z</time>
      </trkpt>
      <trkpt lat="48.105184" lon="7.778464">
        <ele>189.299113</ele>
        <time>2026-08-24T20:47:26.202Z</time>
      </trkpt>
      <trkpt lat="48.104518" lon="7.778551">
        <ele>191.270236</ele>
        <time>2026-08-24T20:47:43.016Z</time>
      </trkpt>
      <trkpt lat="48.104346" lon="7.778606">
        <ele>191.863878</ele>
        <time>2026-08-24T20:47:47.918Z</time>
      </trkpt>
      <trkpt lat="48.104150" lon="7.778693">
        <ele>192.553890</ele>
        <time>2026-08-24T20:47:53.922Z</time>
      </trkpt>
      <trkpt lat="48.103847" lon="7.778874">
        <ele>193.654979</ele>
        <time>2026-08-24T20:48:04.115Z</time>
      </trkpt>
      <trkpt lat="48.103751" lon="7.778906">
        <ele>193.986940</ele>
        <time>2026-08-24T20:48:07.316Z</time>
      </trkpt>
      <trkpt lat="48.103623" lon="7.778902">
        <ele>194.419074</ele>
        <time>2026-08-24T20:48:11.525Z</time>
      </trkpt>
      <trkpt lat="48.103253" lon="7.778782">
        <ele>195.620891</ele>
        <time>2026-08-24T20:48:26.248Z</time>
      </trkpt>
      <trkpt lat="48.102925" lon="7.778619">
        <ele>196.160544</ele>
        <time>2026-08-24T20:48:38.887Z</time>
      </trkpt>
      <trkpt lat="48.102737" lon="7.778507">
        <ele>196.476493</ele>
        <time>2026-08-24T20:48:44.833Z</time>
      </trkpt>
      <trkpt lat="48.102410" lon="7.778409">
        <ele>196.997243</ele>
        <time>2026-08-24T20:48:53.422Z</time>
      </trkpt>
      <trkpt lat="48.102144" lon="7.778407">
        <ele>197.412619</ele>
        <time>2026-08-24T20:48:59.509Z</time>
      </trkpt>
      <trkpt lat="48.102098" lon="7.778422">
        <ele>197.486133</ele>
        <time>2026-08-24T20:49:00.533Z</time>
      </trkpt>
      <trkpt lat="48.101986" lon="7.778545">
        <ele>197.703019</ele>
        <time>2026-08-24T20:49:03.388Z</time>
      </trkpt>
      <trkpt lat="48.101925" lon="7.778605">
        <ele>197.816985</ele>
        <time>2026-08-24T20:49:04.756Z</time>
      </trkpt>
      <trkpt lat="48.101809" lon="7.778645">
        <ele>198.002865</ele>
        <time>2026-08-24T20:49:07.056Z</time>
      </trkpt>
      <trkpt lat="48.101659" lon="7.778679">
        <ele>198.239764</ele>
        <time>2026-08-24T20:49:09.094Z</time>
      </trkpt>
      <trkpt lat="48.101037" lon="7.778659">
        <ele>198.819977</ele>
        <time>2026-08-24T20:49:17.559Z</time>
      </trkpt>
      <trkpt lat="48.100755" lon="7.778609">
        <ele>199.058593</ele>
        <time>2026-08-24T20:49:22.312Z</time>
      </trkpt>
      <trkpt lat="48.100540" lon="7.778571">
        <ele>199.240508</ele>
        <time>2026-08-24T20:49:26.817Z</time>
      </trkpt>
      <trkpt lat="48.100353" lon="7.778575">
        <ele>199.397657</ele>
        <time>2026-08-24T20:49:30.937Z</time>
      </trkpt>
      <trkpt lat="48.100015" lon="7.778684">
        <ele>199.688185</ele>
        <time>2026-08-24T20:49:38.561Z</time>
      </trkpt>
      <trkpt lat="48.099345" lon="7.779073">
        <ele>200.168354</ele>
        <time>2026-08-24T20:49:53.602Z</time>
      </trkpt>
      <trkpt lat="48.098494" lon="7.779874">
        <ele>200.762225</ele>
        <time>2026-08-24T20:50:10.719Z</time>
      </trkpt>
      <trkpt lat="48.098322" lon="7.779984">
        <ele>200.872726</ele>
        <time>2026-08-24T20:50:13.788Z</time>
      </trkpt>
      <trkpt lat="48.098090" lon="7.780072">
        <ele>200.727326</ele>
        <time>2026-08-24T20:50:17.102Z</time>
      </trkpt>
      <trkpt lat="48.097840" lon="7.780118">
        <ele>200.314358</ele>
        <time>2026-08-24T20:50:19.955Z</time>
      </trkpt>
      <trkpt lat="48.097274" lon="7.780070">
        <ele>199.384891</ele>
        <time>2026-08-24T20:50:26.190Z</time>
      </trkpt>
      <trkpt lat="48.097133" lon="7.780095">
        <ele>199.152101</ele>
        <time>2026-08-24T20:50:27.819Z</time>
      </trkpt>
      <trkpt lat="48.096969" lon="7.780174">
        <ele>198.869644</ele>
        <time>2026-08-24T20:50:29.776Z</time>
      </trkpt>
      <trkpt lat="48.096683" lon="7.780450">
        <ele>198.311779</ele>
        <time>2026-08-24T20:50:33.639Z</time>
      </trkpt>
      <trkpt lat="48.096534" lon="7.780756">
        <ele>197.938091</ele>
        <time>2026-08-24T20:50:36.422Z</time>
      </trkpt>
      <trkpt lat="48.096347" lon="7.781324">
        <ele>197.553229</ele>
        <time>2026-08-24T20:50:40.634Z</time>
      </trkpt>
      <trkpt lat="48.096153" lon="7.781757">
        <ele>197.236346</ele>
        <time>2026-08-24T20:50:44.297Z</time>
      </trkpt>
      <trkpt lat="48.095970" lon="7.781974">
        <ele>197.023924</ele>
        <time>2026-08-24T20:50:47.683Z</time>
      </trkpt>
      <trkpt lat="48.095374" lon="7.782351">
        <ele>196.435171</ele>
        <time>2026-08-24T20:50:59.316Z</time>
      </trkpt>
      <trkpt lat="48.095026" lon="7.782573">
        <ele>196.683043</ele>
        <time>2026-08-24T20:51:05.373Z</time>
      </trkpt>
      <trkpt lat="48.094798" lon="7.782764">
        <ele>196.983498</ele>
        <time>2026-08-24T20:51:10.242Z</time>
      </trkpt>
      <trkpt lat="48.094456" lon="7.783132">
        <ele>197.467837</ele>
        <time>2026-08-24T20:51:20.783Z</time>
      </trkpt>
      <trkpt lat="48.094216" lon="7.783409">
        <ele>197.816329</ele>
        <time>2026-08-24T20:51:28.986Z</time>
      </trkpt>
      <trkpt lat="48.094155" lon="7.783400">
        <ele>197.886819</ele>
        <time>2026-08-24T20:51:30.467Z</time>
      </trkpt>
      <trkpt lat="48.093473" lon="7.783391">
        <ele>198.194315</ele>
        <time>2026-08-24T20:51:40.030Z</time>
      </trkpt>
      <trkpt lat="48.092741" lon="7.783314">
        <ele>197.429835</ele>
        <time>2026-08-24T20:51:49.303Z</time>
      </trkpt>
      <trkpt lat="48.092436" lon="7.783316">
        <ele>197.112082</ele>
        <time>2026-08-24T20:51:52.629Z</time>
      </trkpt>
      <trkpt lat="48.092246" lon="7.783316">
        <ele>196.914140</ele>
        <time>2026-08-24T20:51:54.619Z</time>
      </trkpt>
      <trkpt lat="48.091977" lon="7.783287">
        <ele>196.633169</ele>
        <time>2026-08-24T20:51:57.471Z</time>
      </trkpt>
      <trkpt lat="48.091566" lon="7.783341">
        <ele>197.253398</ele>
        <time>2026-08-24T20:52:02.270Z</time>
      </trkpt>
      <trkpt lat="48.091518" lon="7.783381">
        <ele>197.370970</ele>
        <time>2026-08-24T20:52:03.093Z</time>
      </trkpt>
      <trkpt lat="48.091412" lon="7.783570">
        <ele>197.723767</ele>
        <time>2026-08-24T20:52:06.135Z</time>
      </trkpt>
      <trkpt lat="48.091110" lon="7.783599">
        <ele>198.371440</ele>
        <time>2026-08-24T20:52:13.386Z</time>
      </trkpt>
      <trkpt lat="48.091049" lon="7.783658">
        <ele>198.526869</ele>
        <time>2026-08-24T20:52:15.261Z</time>
      </trkpt>
      <trkpt lat="48.090828" lon="7.783684">
        <ele>199.001314</ele>
        <time>2026-08-24T20:52:20.949Z</time>
      </trkpt>
      <trkpt lat="48.090700" lon="7.783371">
        <ele>199.525968</ele>
        <time>2026-08-24T20:52:27.657Z</time>
      </trkpt>
      <trkpt lat="48.090503" lon="7.783069">
        <ele>200.129421</ele>
        <time>2026-08-24T20:52:36.545Z</time>
      </trkpt>
      <trkpt lat="48.090378" lon="7.782961">
        <ele>200.472238</ele>
        <time>2026-08-24T20:52:41.565Z</time>
      </trkpt>
      <trkpt lat="48.090139" lon="7.782919">
        <ele>201.406536</ele>
        <time>2026-08-24T20:52:50.832Z</time>
      </trkpt>
      <trkpt lat="48.089890" lon="7.782925">
        <ele>202.373413</ele>
        <time>2026-08-24T20:53:01.246Z</time>
      </trkpt>
      <trkpt lat="48.089746" lon="7.782900">
        <ele>202.936245</ele>
        <time>2026-08-24T20:53:07.598Z</time>
      </trkpt>
      <trkpt lat="48.089647" lon="7.782839">
        <ele>203.351899</ele>
        <time>2026-08-24T20:53:12.349Z</time>
      </trkpt>
      <trkpt lat="48.089508" lon="7.782658">
        <ele>204.067154</ele>
        <time>2026-08-24T20:53:19.540Z</time>
      </trkpt>
      <trkpt lat="48.089099" lon="7.782142">
        <ele>206.143789</ele>
        <time>2026-08-24T20:53:33.581Z</time>
      </trkpt>
      <trkpt lat="48.089009" lon="7.782087">
        <ele>206.521209</ele>
        <time>2026-08-24T20:53:35.606Z</time>
      </trkpt>
      <trkpt lat="48.088790" lon="7.781978">
        <ele>207.356023</ele>
        <time>2026-08-24T20:53:40.047Z</time>
      </trkpt>
      <trkpt lat="48.088704" lon="7.781977">
        <ele>207.142268</ele>
        <time>2026-08-24T20:53:41.621Z</time>
      </trkpt>
      <trkpt lat="48.088616" lon="7.782009">
        <ele>206.917189</ele>
        <time>2026-08-24T20:53:43.086Z</time>
      </trkpt>
      <trkpt lat="48.088514" lon="7.782108">
        <ele>206.615055</ele>
        <time>2026-08-24T20:53:44.788Z</time>
      </trkpt>
      <trkpt lat="48.088134" lon="7.782447">
        <ele>205.515604</ele>
        <time>2026-08-24T20:53:49.910Z</time>
      </trkpt>
      <trkpt lat="48.087972" lon="7.782572">
        <ele>205.062625</ele>
        <time>2026-08-24T20:53:51.770Z</time>
      </trkpt>
      <trkpt lat="48.087571" lon="7.782862">
        <ele>203.955756</ele>
        <time>2026-08-24T20:53:56.065Z</time>
      </trkpt>
      <trkpt lat="48.087082" lon="7.783235">
        <ele>202.377444</ele>
        <time>2026-08-24T20:54:01.306Z</time>
      </trkpt>
      <trkpt lat="48.086970" lon="7.783301">
        <ele>201.876593</ele>
        <time>2026-08-24T20:54:02.448Z</time>
      </trkpt>
      <trkpt lat="48.086913" lon="7.783332">
        <ele>201.624243</ele>
        <time>2026-08-24T20:54:03.015Z</time>
      </trkpt>
      <trkpt lat="48.086523" lon="7.783283">
        <ele>199.995710</ele>
        <time>2026-08-24T20:54:06.738Z</time>
      </trkpt>
      <trkpt lat="48.086465" lon="7.783270">
        <ele>199.751676</ele>
        <time>2026-08-24T20:54:07.296Z</time>
      </trkpt>
      <trkpt lat="48.086385" lon="7.783255">
        <ele>199.416187</ele>
        <time>2026-08-24T20:54:08.056Z</time>
      </trkpt>
      <trkpt lat="48.086152" lon="7.783215">
        <ele>198.440297</ele>
        <time>2026-08-24T20:54:10.293Z</time>
      </trkpt>
      <trkpt lat="48.086112" lon="7.783211">
        <ele>198.273482</ele>
        <time>2026-08-24T20:54:10.671Z</time>
      </trkpt>
      <trkpt lat="48.085052" lon="7.783300">
        <ele>194.910201</ele>
        <time>2026-08-24T20:54:21.258Z</time>
      </trkpt>
      <trkpt lat="48.084191" lon="7.783498">
        <ele>193.720821</ele>
        <time>2026-08-24T20:54:31.438Z</time>
      </trkpt>
      <trkpt lat="48.084054" lon="7.783557">
        <ele>193.526177</ele>
        <time>2026-08-24T20:54:33.329Z</time>
      </trkpt>
      <trkpt lat="48.083164" lon="7.784133">
        <ele>193.468235</ele>
        <time>2026-08-24T20:54:49.876Z</time>
      </trkpt>
      <trkpt lat="48.083108" lon="7.784174">
        <ele>193.523596</ele>
        <time>2026-08-24T20:54:50.983Z</time>
      </trkpt>
      <trkpt lat="48.082872" lon="7.784311">
        <ele>193.748387</ele>
        <time>2026-08-24T20:54:55.909Z</time>
      </trkpt>
      <trkpt lat="48.082697" lon="7.784352">
        <ele>193.905689</ele>
        <time>2026-08-24T20:54:59.455Z</time>
      </trkpt>
      <trkpt lat="48.082110" lon="7.784406">
        <ele>194.427965</ele>
        <time>2026-08-24T20:55:11.470Z</time>
      </trkpt>
      <trkpt lat="48.081606" lon="7.784411">
        <ele>194.642110</ele>
        <time>2026-08-24T20:55:20.616Z</time>
      </trkpt>
      <trkpt lat="48.081251" lon="7.784325">
        <ele>194.720135</ele>
        <time>2026-08-24T20:55:25.907Z</time>
      </trkpt>
      <trkpt lat="48.080250" lon="7.783834">
        <ele>194.948683</ele>
        <time>2026-08-24T20:55:41.349Z</time>
      </trkpt>
      <trkpt lat="48.080141" lon="7.783835">
        <ele>194.980658</ele>
        <time>2026-08-24T20:55:42.869Z</time>
      </trkpt>
      <trkpt lat="48.080099" lon="7.784122">
        <ele>195.046193</ele>
        <time>2026-08-24T20:55:45.858Z</time>
      </trkpt>
      <trkpt lat="48.080023" lon="7.784269">
        <ele>195.087654</ele>
        <time>2026-08-24T20:55:47.718Z</time>
      </trkpt>
      <trkpt lat="48.079467" lon="7.784496">
        <ele>195.280069</ele>
        <time>2026-08-24T20:55:57.278Z</time>
      </trkpt>
      <trkpt lat="48.079029" lon="7.784577">
        <ele>195.427417</ele>
        <time>2026-08-24T20:56:05.211Z</time>
      </trkpt>
      <trkpt lat="48.078491" lon="7.784760">
        <ele>195.489577</ele>
        <time>2026-08-24T20:56:14.048Z</time>
      </trkpt>
      <trkpt lat="48.078050" lon="7.785016">
        <ele>195.292043</ele>
        <time>2026-08-24T20:56:20.931Z</time>
      </trkpt>
      <trkpt lat="48.077772" lon="7.785216">
        <ele>195.163231</ele>
        <time>2026-08-24T20:56:25.130Z</time>
      </trkpt>
      <trkpt lat="48.077359" lon="7.785661">
        <ele>194.950712</ele>
        <time>2026-08-24T20:56:31.527Z</time>
      </trkpt>
      <trkpt lat="48.077101" lon="7.785988">
        <ele>194.809526</ele>
        <time>2026-08-24T20:56:35.634Z</time>
      </trkpt>
      <trkpt lat="48.077031" lon="7.786098">
        <ele>194.759529</ele>
        <time>2026-08-24T20:56:36.882Z</time>
      </trkpt>
      <trkpt lat="48.076897" lon="7.786434">
        <ele>194.629105</ele>
        <time>2026-08-24T20:56:40.034Z</time>
      </trkpt>
      <trkpt lat="48.076380" lon="7.788256">
        <ele>193.969323</ele>
        <time>2026-08-24T20:56:57.640Z</time>
      </trkpt>
      <trkpt lat="48.076246" lon="7.788637">
        <ele>193.951366</ele>
        <time>2026-08-24T20:57:02.011Z</time>
      </trkpt>
      <trkpt lat="48.075958" lon="7.789333">
        <ele>194.090401</ele>
        <time>2026-08-24T20:57:10.644Z</time>
      </trkpt>
      <trkpt lat="48.075878" lon="7.789486">
        <ele>194.123397</ele>
        <time>2026-08-24T20:57:12.722Z</time>
      </trkpt>
      <trkpt lat="48.075548" lon="7.790063">
        <ele>194.252388</ele>
        <time>2026-08-24T20:57:21.006Z</time>
      </trkpt>
      <trkpt lat="48.075384" lon="7.790290">
        <ele>194.309168</ele>
        <time>2026-08-24T20:57:24.519Z</time>
      </trkpt>
      <trkpt lat="48.074771" lon="7.791008">
        <ele>194.981875</ele>
        <time>2026-08-24T20:57:37.461Z</time>
      </trkpt>
      <trkpt lat="48.074597" lon="7.791319">
        <ele>195.283013</ele>
        <time>2026-08-24T20:57:42.497Z</time>
      </trkpt>
      <trkpt lat="48.074309" lon="7.791905">
        <ele>195.823069</ele>
        <time>2026-08-24T20:57:52.199Z</time>
      </trkpt>
      <trkpt lat="48.074127" lon="7.792289">
        <ele>196.172588</ele>
        <time>2026-08-24T20:57:58.950Z</time>
      </trkpt>
      <trkpt lat="48.074006" lon="7.792670">
        <ele>196.550868</ele>
        <time>2026-08-24T20:58:05.186Z</time>
      </trkpt>
      <trkpt lat="48.073686" lon="7.793902">
        <ele>198.059586</ele>
        <time>2026-08-24T20:58:25.580Z</time>
      </trkpt>
      <trkpt lat="48.073611" lon="7.794274">
        <ele>198.503096</ele>
        <time>2026-08-24T20:58:31.504Z</time>
      </trkpt>
      <trkpt lat="48.073442" lon="7.794790">
        <ele>199.159012</ele>
        <time>2026-08-24T20:58:39.683Z</time>
      </trkpt>
      <trkpt lat="48.073200" lon="7.795262">
        <ele>199.544597</ele>
        <time>2026-08-24T20:58:47.173Z</time>
      </trkpt>
      <trkpt lat="48.072947" lon="7.795643">
        <ele>199.708892</ele>
        <time>2026-08-24T20:58:53.453Z</time>
      </trkpt>
      <trkpt lat="48.072337" lon="7.796464">
        <ele>200.084434</ele>
        <time>2026-08-24T20:59:07.109Z</time>
      </trkpt>
      <trkpt lat="48.072320" lon="7.796490">
        <ele>200.095561</ele>
        <time>2026-08-24T20:59:07.453Z</time>
      </trkpt>
      <trkpt lat="48.072071" lon="7.796878">
        <ele>200.260110</ele>
        <time>2026-08-24T20:59:12.412Z</time>
      </trkpt>
      <trkpt lat="48.071503" lon="7.797382">
        <ele>199.916615</ele>
        <time>2026-08-24T20:59:21.310Z</time>
      </trkpt>
      <trkpt lat="48.071710" lon="7.797782">
        <ele>199.740327</ele>
        <time>2026-08-24T20:59:25.854Z</time>
      </trkpt>
      <trkpt lat="48.072467" lon="7.799263">
        <ele>199.166767</ele>
        <time>2026-08-24T20:59:41.607Z</time>
      </trkpt>
      <trkpt lat="48.072583" lon="7.799596">
        <ele>199.078873</ele>
        <time>2026-08-24T20:59:44.877Z</time>
      </trkpt>
      <trkpt lat="48.072014" lon="7.800209">
        <ele>198.833296</ele>
        <time>2026-08-24T20:59:54.584Z</time>
      </trkpt>
      <trkpt lat="48.071871" lon="7.800372">
        <ele>198.770333</ele>
        <time>2026-08-24T20:59:57.237Z</time>
      </trkpt>
      <trkpt lat="48.071586" lon="7.800736">
        <ele>198.741547</ele>
        <time>2026-08-24T21:00:03.064Z</time>
      </trkpt>
      <trkpt lat="48.071406" lon="7.801077">
        <ele>198.834742</ele>
        <time>2026-08-24T21:00:07.620Z</time>
      </trkpt>
      <trkpt lat="48.071307" lon="7.801271">
        <ele>198.887092</ele>
        <time>2026-08-24T21:00:10.173Z</time>
      </trkpt>
      <trkpt lat="48.071215" lon="7.801379">
        <ele>198.924619</ele>
        <time>2026-08-24T21:00:12.004Z</time>
      </trkpt>
      <trkpt lat="48.071251" lon="7.801463">
        <ele>198.946021</ele>
        <time>2026-08-24T21:00:13.048Z</time>
      </trkpt>
      <trkpt lat="48.071283" lon="7.801536">
        <ele>198.964744</ele>
        <time>2026-08-24T21:00:13.976Z</time>
      </trkpt>
      <trkpt lat="48.071295" lon="7.801564">
        <ele>198.971878</ele>
        <time>2026-08-24T21:00:14.335Z</time>
      </trkpt>
      <trkpt lat="48.071447" lon="7.801935">
        <ele>199.065206</ele>
        <time>2026-08-24T21:00:19.102Z</time>
      </trkpt>
      <trkpt lat="48.071558" lon="7.802244">
        <ele>199.140442</ele>
        <time>2026-08-24T21:00:23.088Z</time>
      </trkpt>
      <trkpt lat="48.071625" lon="7.802545">
        <ele>199.208481</ele>
        <time>2026-08-24T21:00:26.675Z</time>
      </trkpt>
      <trkpt lat="48.071638" lon="7.802613">
        <ele>199.223649</ele>
        <time>2026-08-24T21:00:27.462Z</time>
      </trkpt>
      <trkpt lat="48.071703" lon="7.803260">
        <ele>199.269825</ele>
        <time>2026-08-24T21:00:34.753Z</time>
      </trkpt>
      <trkpt lat="48.071722" lon="7.803610">
        <ele>199.269825</ele>
        <time>2026-08-24T21:00:38.622Z</time>
      </trkpt>
      <trkpt lat="48.071754" lon="7.803929">
        <ele>199.269825</ele>
        <time>2026-08-24T21:00:42.138Z</time>
      </trkpt>
      <trkpt lat="48.071771" lon="7.804183">
        <ele>199.269825</ele>
        <time>2026-08-24T21:00:44.935Z</time>
      </trkpt>
      <trkpt lat="48.071787" lon="7.804308">
        <ele>199.269825</ele>
        <time>2026-08-24T21:00:46.345Z</time>
      </trkpt>
      <trkpt lat="48.071499" lon="7.804477">
        <ele>199.269825</ele>
        <time>2026-08-24T21:00:51.462Z</time>
      </trkpt>
    </trkseg>
  </trk>
</gpx>